Wetterdaten: Sonntag, 17.09.2017
Datum Zeit Temp. A. Pool Temp. Feuchte A. Luftdruck Regen Wind Richtung Richtung Sonnenschein ET UV Solar Taupunkt Windchill Windben Empfang
17.09.2017 00:00 10,6 C 15,6 C 93 % 1012,8 hPa 0,0 l/m 2,3 km/h (1 Bft) SW 216 0 min 0,000 mm 0,0 UV-I 0 W/m 9,5 C 10,6 C 4,8 km/h (1 Bft) 95,12 %
17.09.2017 00:02 10,6 C 15,6 C 93 % 1012,8 hPa 0,0 l/m 1,6 km/h (1 Bft) SW 216 0 min 0,000 mm 0,0 UV-I 0 W/m 9,5 C 10,6 C 3,2 km/h (1 Bft) 95,00 %
17.09.2017 00:04 10,5 C 15,6 C 93 % 1012,8 hPa 0,0 l/m 1,9 km/h (1 Bft) SW 216 0 min 0,000 mm 0,0 UV-I 0 W/m 9,4 C 10,5 C 3,2 km/h (1 Bft) 95,45 %
17.09.2017 00:06 10,6 C 15,6 C 93 % 1012,8 hPa 0,0 l/m 2,6 km/h (1 Bft) SW 216 0 min 0,000 mm 0,0 UV-I 0 W/m 9,5 C 10,6 C 3,2 km/h (1 Bft) 98,00 %
17.09.2017 00:08 10,5 C 15,6 C 93 % 1012,8 hPa 0,0 l/m 2,7 km/h (1 Bft) SW 216 0 min 0,000 mm 0,0 UV-I 0 W/m 9,4 C 10,5 C 4,8 km/h (1 Bft) 97,87 %
17.09.2017 00:10 10,5 C 15,6 C 93 % 1012,8 hPa 0,0 l/m 2,5 km/h (1 Bft) SW 216 0 min 0,000 mm 0,0 UV-I 0 W/m 9,4 C 10,5 C 3,2 km/h (1 Bft) 95,74 %
17.09.2017 00:12 10,5 C 15,6 C 93 % 1012,8 hPa 0,0 l/m 1,2 km/h (1 Bft) SW 216 0 min 0,000 mm 0,0 UV-I 0 W/m 9,4 C 10,5 C 1,6 km/h (1 Bft) 93,62 %
17.09.2017 00:14 10,5 C 15,6 C 93 % 1012,8 hPa 0,0 l/m 1,8 km/h (1 Bft) SW 216 0 min 0,000 mm 0,0 UV-I 0 W/m 9,4 C 10,5 C 3,2 km/h (1 Bft) 96,00 %
17.09.2017 00:16 10,5 C 15,6 C 93 % 1012,8 hPa 0,0 l/m 0,4 km/h (0 Bft) SW 216 0 min 0,000 mm 0,0 UV-I 0 W/m 9,4 C 10,5 C 1,6 km/h (1 Bft) 94,44 %
17.09.2017 00:18 10,5 C 15,6 C 93 % 1012,7 hPa 0,0 l/m 0,2 km/h (0 Bft) SW 216 0 min 0,000 mm 0,0 UV-I 0 W/m 9,4 C 10,5 C 1,6 km/h (1 Bft) 94,64 %
17.09.2017 00:20 10,5 C 15,6 C 93 % 1012,8 hPa 0,0 l/m 0,1 km/h (0 Bft) SW 216 0 min 0,000 mm 0,0 UV-I 0 W/m 9,4 C 10,5 C 1,6 km/h (1 Bft) 95,74 %
17.09.2017 00:22 10,5 C 15,6 C 93 % 1012,8 hPa 0,0 l/m 0,1 km/h (0 Bft) SW 216 0 min 0,000 mm 0,0 UV-I 0 W/m 9,4 C 10,5 C 1,6 km/h (1 Bft) 97,87 %
17.09.2017 00:24 10,5 C 15,6 C 93 % 1012,8 hPa 0,0 l/m 1,7 km/h (1 Bft) SW 216 0 min 0,000 mm 0,0 UV-I 0 W/m 9,4 C 10,5 C 4,8 km/h (1 Bft) 96,00 %
17.09.2017 00:26 10,5 C 15,6 C 93 % 1012,9 hPa 0,0 l/m 1,0 km/h (0 Bft) SW 216 0 min 0,000 mm 0,0 UV-I 0 W/m 9,4 C 10,5 C 3,2 km/h (1 Bft) 100,00 %
17.09.2017 00:28 10,5 C 15,6 C 93 % 1012,9 hPa 0,0 l/m 0,9 km/h (0 Bft) SW 216 0 min 0,000 mm 0,0 UV-I 0 W/m 9,4 C 10,5 C 1,6 km/h (1 Bft) 98,00 %
17.09.2017 00:30 10,5 C 15,6 C 93 % 1012,9 hPa 0,0 l/m 0,0 km/h (0 Bft) SW 216 0 min 0,000 mm 0,0 UV-I 0 W/m 9,4 C 10,5 C 0,0 km/h (0 Bft) 94,00 %
17.09.2017 00:32 10,5 C 15,6 C 93 % 1012,8 hPa 0,0 l/m 0,1 km/h (0 Bft) SW 216 0 min 0,000 mm 0,0 UV-I 0 W/m 9,4 C 10,5 C 1,6 km/h (1 Bft) 98,00 %
17.09.2017 00:34 10,5 C 15,6 C 93 % 1012,9 hPa 0,0 l/m 0,3 km/h (0 Bft) SW 216 0 min 0,000 mm 0,0 UV-I 0 W/m 9,4 C 10,5 C 1,6 km/h (1 Bft) 97,14 %
17.09.2017 00:36 10,4 C 15,6 C 93 % 1012,8 hPa 0,0 l/m 0,4 km/h (0 Bft) SW 216 0 min 0,000 mm 0,0 UV-I 0 W/m 9,3 C 10,4 C 1,6 km/h (1 Bft) 94,34 %
17.09.2017 00:38 10,5 C 15,6 C 93 % 1012,8 hPa 0,0 l/m 0,0 km/h (0 Bft) SW 216 0 min 0,000 mm 0,0 UV-I 0 W/m 9,4 C 10,5 C 0,0 km/h (0 Bft) 98,11 %
17.09.2017 00:40 10,5 C 15,6 C 93 % 1012,8 hPa 0,0 l/m 0,0 km/h (0 Bft) SW 216 0 min 0,000 mm 0,0 UV-I 0 W/m 9,4 C 10,5 C 0,0 km/h (0 Bft) 97,87 %
17.09.2017 00:42 10,5 C 15,6 C 93 % 1012,7 hPa 0,0 l/m 0,0 km/h (0 Bft) SW 216 0 min 0,000 mm 0,0 UV-I 0 W/m 9,4 C 10,5 C 0,0 km/h (0 Bft) 97,14 %
17.09.2017 00:44 10,5 C 15,6 C 93 % 1012,5 hPa 0,0 l/m 0,0 km/h (0 Bft) SW 216 0 min 0,000 mm 0,0 UV-I 0 W/m 9,4 C 10,5 C 0,0 km/h (0 Bft) 98,15 %
17.09.2017 00:46 10,4 C 15,6 C 93 % 1012,4 hPa 0,0 l/m 0,0 km/h (0 Bft) SW 216 0 min 0,000 mm 0,0 UV-I 0 W/m 9,3 C 10,4 C 0,0 km/h (0 Bft) 98,00 %
17.09.2017 00:48 10,4 C 15,6 C 93 % 1012,4 hPa 0,0 l/m 0,1 km/h (0 Bft) SW 216 0 min 0,000 mm 0,0 UV-I 0 W/m 9,3 C 10,4 C 1,6 km/h (1 Bft) 95,74 %
17.09.2017 00:50 10,4 C 15,6 C 93 % 1012,4 hPa 0,0 l/m 1,0 km/h (0 Bft) SW 216 0 min 0,000 mm 0,0 UV-I 0 W/m 9,3 C 10,4 C 1,6 km/h (1 Bft) 96,00 %
17.09.2017 00:52 10,4 C 15,6 C 93 % 1012,4 hPa 0,0 l/m 0,6 km/h (0 Bft) SW 216 0 min 0,000 mm 0,0 UV-I 0 W/m 9,3 C 10,4 C 3,2 km/h (1 Bft) 97,56 %
17.09.2017 00:54 10,4 C 15,6 C 93 % 1012,3 hPa 0,0 l/m 0,0 km/h (0 Bft) SW 216 0 min 0,000 mm 0,0 UV-I 0 W/m 9,3 C 10,4 C 0,0 km/h (0 Bft) 98,00 %
17.09.2017 00:56 10,4 C 15,6 C 93 % 1012,3 hPa 0,0 l/m 1,1 km/h (1 Bft) SW 216 0 min 0,000 mm 0,0 UV-I 0 W/m 9,3 C 10,4 C 3,2 km/h (1 Bft) 98,00 %
17.09.2017 00:58 10,4 C 15,6 C 93 % 1012,2 hPa 0,0 l/m 1,6 km/h (1 Bft) SW 216 0 min 0,000 mm 0,0 UV-I 0 W/m 9,3 C 10,4 C 3,2 km/h (1 Bft) 97,87 %
17.09.2017 01:00 10,4 C 15,6 C 93 % 1012,2 hPa 0,0 l/m 1,2 km/h (1 Bft) SW 216 0 min 0,000 mm 0,0 UV-I 0 W/m 9,3 C 10,4 C 3,2 km/h (1 Bft) 94,44 %
17.09.2017 01:02 10,4 C 15,6 C 93 % 1012,3 hPa 0,0 l/m 0,4 km/h (0 Bft) SW 216 0 min 0,000 mm 0,0 UV-I 0 W/m 9,3 C 10,4 C 3,2 km/h (1 Bft) 92,00 %
17.09.2017 01:04 10,4 C 15,6 C 93 % 1012,3 hPa 0,0 l/m 0,1 km/h (0 Bft) SW 216 0 min 0,000 mm 0,0 UV-I 0 W/m 9,3 C 10,4 C 1,6 km/h (1 Bft) 97,37 %
17.09.2017 01:06 10,4 C 15,6 C 93 % 1012,3 hPa 0,0 l/m 0,7 km/h (0 Bft) SW 216 0 min 0,000 mm 0,0 UV-I 0 W/m 9,3 C 10,4 C 3,2 km/h (1 Bft) 98,46 %
17.09.2017 01:08 10,4 C 15,6 C 93 % 1012,4 hPa 0,0 l/m 0,3 km/h (0 Bft) SW 216 0 min 0,000 mm 0,0 UV-I 0 W/m 9,3 C 10,4 C 1,6 km/h (1 Bft) 94,74 %
17.09.2017 01:10 10,4 C 15,6 C 93 % 1012,4 hPa 0,0 l/m 0,0 km/h (0 Bft) SW 216 0 min 0,000 mm 0,0 UV-I 0 W/m 9,3 C 10,4 C 1,6 km/h (1 Bft) 98,11 %
17.09.2017 01:12 10,4 C 15,6 C 93 % 1012,3 hPa 0,0 l/m 0,4 km/h (0 Bft) SW 216 0 min 0,000 mm 0,0 UV-I 0 W/m 9,3 C 10,4 C 1,6 km/h (1 Bft) 100,00 %
17.09.2017 01:14 10,4 C 15,6 C 93 % 1012,3 hPa 0,0 l/m 2,2 km/h (1 Bft) SW 216 0 min 0,000 mm 0,0 UV-I 0 W/m 9,3 C 10,4 C 4,8 km/h (1 Bft) 100,00 %
17.09.2017 01:16 10,4 C 15,6 C 93 % 1012,4 hPa 0,0 l/m 0,4 km/h (0 Bft) SW 216 0 min 0,000 mm 0,0 UV-I 0 W/m 9,3 C 10,4 C 3,2 km/h (1 Bft) 96,43 %
17.09.2017 01:18 10,4 C 15,6 C 93 % 1012,4 hPa 0,0 l/m 1,9 km/h (1 Bft) SW 216 0 min 0,000 mm 0,0 UV-I 0 W/m 9,3 C 10,4 C 3,2 km/h (1 Bft) 100,00 %
17.09.2017 01:20 10,4 C 15,6 C 93 % 1012,4 hPa 0,0 l/m 1,6 km/h (1 Bft) SW 215 0 min 0,000 mm 0,0 UV-I 0 W/m 9,3 C 10,4 C 3,2 km/h (1 Bft) 100,00 %
17.09.2017 01:22 10,4 C 15,6 C 93 % 1012,4 hPa 0,0 l/m 0,8 km/h (0 Bft) SW 215 0 min 0,000 mm 0,0 UV-I 0 W/m 9,3 C 10,4 C 1,6 km/h (1 Bft) 100,00 %
17.09.2017 01:24 10,3 C 15,6 C 93 % 1012,4 hPa 0,0 l/m 0,9 km/h (0 Bft) SW 214 0 min 0,000 mm 0,0 UV-I 0 W/m 9,2 C 10,3 C 1,6 km/h (1 Bft) 100,00 %
17.09.2017 01:26 10,3 C 15,6 C 93 % 1012,5 hPa 0,0 l/m 0,8 km/h (0 Bft) SW 214 0 min 0,000 mm 0,0 UV-I 0 W/m 9,2 C 10,3 C 3,2 km/h (1 Bft) 100,00 %
17.09.2017 01:28 10,3 C 15,6 C 93 % 1012,5 hPa 0,0 l/m 1,1 km/h (1 Bft) S 177 0 min 0,000 mm 0,0 UV-I 0 W/m 9,2 C 10,3 C 4,8 km/h (1 Bft) 100,00 %
17.09.2017 01:30 10,3 C 15,6 C 93 % 1012,5 hPa 0,0 l/m 1,7 km/h (1 Bft) S 177 0 min 0,000 mm 0,0 UV-I 0 W/m 9,2 C 10,3 C 4,8 km/h (1 Bft) 100,00 %
17.09.2017 01:32 10,3 C 15,6 C 93 % 1012,6 hPa 0,0 l/m 3,5 km/h (1 Bft) S 183 0 min 0,000 mm 0,0 UV-I 0 W/m 9,2 C 10,3 C 6,4 km/h (2 Bft) 97,73 %
17.09.2017 01:34 10,3 C 15,6 C 93 % 1012,7 hPa 0,0 l/m 3,6 km/h (1 Bft) S-SO 168 0 min 0,000 mm 0,0 UV-I 0 W/m 9,2 C 10,3 C 6,4 km/h (2 Bft) 98,00 %
17.09.2017 01:36 10,3 C 15,6 C 93 % 1012,6 hPa 0,0 l/m 2,8 km/h (1 Bft) S 178 0 min 0,000 mm 0,0 UV-I 0 W/m 9,2 C 10,3 C 4,8 km/h (1 Bft) 100,00 %
17.09.2017 01:38 10,3 C 15,6 C 93 % 1012,5 hPa 0,0 l/m 1,9 km/h (1 Bft) S 173 0 min 0,000 mm 0,0 UV-I 0 W/m 9,2 C 10,3 C 4,8 km/h (1 Bft) 100,00 %
17.09.2017 01:40 10,3 C 15,6 C 93 % 1012,5 hPa 0,0 l/m 2,3 km/h (1 Bft) S-SW 197 0 min 0,000 mm 0,0 UV-I 0 W/m 9,2 C 10,3 C 6,4 km/h (2 Bft) 100,00 %
17.09.2017 01:42 10,3 C 15,6 C 93 % 1012,5 hPa 0,0 l/m 2,6 km/h (1 Bft) S-SW 197 0 min 0,000 mm 0,0 UV-I 0 W/m 9,2 C 10,3 C 3,2 km/h (1 Bft) 100,00 %
17.09.2017 01:44 10,3 C 15,6 C 93 % 1012,4 hPa 0,0 l/m 1,9 km/h (1 Bft) S-SW 197 0 min 0,000 mm 0,0 UV-I 0 W/m 9,2 C 10,3 C 3,2 km/h (1 Bft) 97,14 %
17.09.2017 01:46 10,3 C 15,6 C 93 % 1012,3 hPa 0,0 l/m 0,5 km/h (0 Bft) S-SW 197 0 min 0,000 mm 0,0 UV-I 0 W/m 9,2 C 10,3 C 1,6 km/h (1 Bft) 98,46 %
17.09.2017 01:48 10,3 C 15,6 C 93 % 1012,2 hPa 0,0 l/m 1,2 km/h (1 Bft) S-SW 197 0 min 0,000 mm 0,0 UV-I 0 W/m 9,2 C 10,3 C 3,2 km/h (1 Bft) 98,00 %
17.09.2017 01:50 10,3 C 15,6 C 93 % 1012,1 hPa 0,0 l/m 1,6 km/h (1 Bft) S-SW 197 0 min 0,000 mm 0,0 UV-I 0 W/m 9,2 C 10,3 C 4,8 km/h (1 Bft) 97,87 %
17.09.2017 01:52 10,3 C 15,6 C 93 % 1012,0 hPa 0,0 l/m 1,9 km/h (1 Bft) S-SW 197 0 min 0,000 mm 0,0 UV-I 0 W/m 9,2 C 10,3 C 4,8 km/h (1 Bft) 97,37 %
17.09.2017 01:54 10,3 C 15,6 C 93 % 1012,0 hPa 0,0 l/m 2,9 km/h (1 Bft) S-SW 197 0 min 0,000 mm 0,0 UV-I 0 W/m 9,2 C 10,3 C 4,8 km/h (1 Bft) 98,11 %
17.09.2017 01:56 10,3 C 15,6 C 93 % 1011,9 hPa 0,0 l/m 2,6 km/h (1 Bft) S-SW 197 0 min 0,000 mm 0,0 UV-I 0 W/m 9,2 C 10,3 C 4,8 km/h (1 Bft) 93,62 %
17.09.2017 01:58 10,2 C 15,6 C 93 % 1011,9 hPa 0,0 l/m 2,8 km/h (1 Bft) S-SW 197 0 min 0,000 mm 0,0 UV-I 0 W/m 9,1 C 10,2 C 6,4 km/h (2 Bft) 97,56 %
17.09.2017 02:00 10,2 C 15,6 C 93 % 1012,0 hPa 0,0 l/m 4,6 km/h (1 Bft) S-SW 198 0 min 0,000 mm 0,0 UV-I 0 W/m 9,1 C 10,2 C 8,0 km/h (2 Bft) 98,11 %
17.09.2017 02:02 10,2 C 15,6 C 93 % 1012,0 hPa 0,0 l/m 3,3 km/h (1 Bft) S-SW 205 0 min 0,000 mm 0,0 UV-I 0 W/m 9,1 C 10,2 C 6,4 km/h (2 Bft) 97,50 %
17.09.2017 02:04 10,2 C 15,6 C 93 % 1012,0 hPa 0,0 l/m 2,7 km/h (1 Bft) S-SW 201 0 min 0,000 mm 0,0 UV-I 0 W/m 9,1 C 10,2 C 4,8 km/h (1 Bft) 98,11 %
17.09.2017 02:06 10,2 C 15,6 C 93 % 1012,1 hPa 0,0 l/m 2,0 km/h (1 Bft) S-SW 197 0 min 0,000 mm 0,0 UV-I 0 W/m 9,1 C 10,2 C 4,8 km/h (1 Bft) 98,00 %
17.09.2017 02:08 10,2 C 15,6 C 93 % 1012,1 hPa 0,0 l/m 1,0 km/h (0 Bft) S-SW 197 0 min 0,000 mm 0,0 UV-I 0 W/m 9,1 C 10,2 C 3,2 km/h (1 Bft) 94,74 %
17.09.2017 02:10 10,2 C 15,6 C 93 % 1012,1 hPa 0,0 l/m 1,8 km/h (1 Bft) S-SW 197 0 min 0,000 mm 0,0 UV-I 0 W/m 9,1 C 10,2 C 3,2 km/h (1 Bft) 97,87 %
17.09.2017 02:12 10,2 C 15,6 C 93 % 1012,1 hPa 0,0 l/m 3,7 km/h (1 Bft) S-SW 195 0 min 0,000 mm 0,0 UV-I 0 W/m 9,1 C 10,2 C 4,8 km/h (1 Bft) 97,87 %
17.09.2017 02:14 10,2 C 15,6 C 93 % 1012,2 hPa 0,0 l/m 4,2 km/h (1 Bft) S-SO 154 0 min 0,000 mm 0,0 UV-I 0 W/m 9,1 C 10,2 C 6,4 km/h (2 Bft) 95,83 %
17.09.2017 02:16 10,2 C 15,6 C 93 % 1012,3 hPa 0,0 l/m 3,9 km/h (1 Bft) SO 129 0 min 0,000 mm 0,0 UV-I 0 W/m 9,1 C 10,2 C 6,4 km/h (2 Bft) 97,96 %
17.09.2017 02:18 10,2 C 15,6 C 93 % 1012,3 hPa 0,0 l/m 2,6 km/h (1 Bft) SO 130 0 min 0,000 mm 0,0 UV-I 0 W/m 9,1 C 10,2 C 4,8 km/h (1 Bft) 97,44 %
17.09.2017 02:20 10,2 C 15,6 C 93 % 1012,3 hPa 0,0 l/m 1,6 km/h (1 Bft) SO 130 0 min 0,000 mm 0,0 UV-I 0 W/m 9,1 C 10,2 C 4,8 km/h (1 Bft) 98,00 %
17.09.2017 02:22 10,2 C 15,6 C 93 % 1012,3 hPa 0,0 l/m 1,0 km/h (0 Bft) SO 130 0 min 0,000 mm 0,0 UV-I 0 W/m 9,1 C 10,2 C 3,2 km/h (1 Bft) 98,00 %
17.09.2017 02:24 10,2 C 15,6 C 93 % 1012,2 hPa 0,0 l/m 0,2 km/h (0 Bft) SO 130 0 min 0,000 mm 0,0 UV-I 0 W/m 9,1 C 10,2 C 1,6 km/h (1 Bft) 100,00 %
17.09.2017 02:26 10,2 C 15,6 C 93 % 1012,2 hPa 0,0 l/m 0,4 km/h (0 Bft) SO 130 0 min 0,000 mm 0,0 UV-I 0 W/m 9,1 C 10,2 C 1,6 km/h (1 Bft) 96,23 %
17.09.2017 02:28 10,2 C 15,6 C 93 % 1012,2 hPa 0,0 l/m 0,4 km/h (0 Bft) SO 130 0 min 0,000 mm 0,0 UV-I 0 W/m 9,1 C 10,2 C 1,6 km/h (1 Bft) 100,00 %
17.09.2017 02:30 10,2 C 15,6 C 93 % 1012,3 hPa 0,0 l/m 1,0 km/h (0 Bft) SO 130 0 min 0,000 mm 0,0 UV-I 0 W/m 9,1 C 10,2 C 3,2 km/h (1 Bft) 100,00 %
17.09.2017 02:32 10,2 C 15,6 C 93 % 1012,3 hPa 0,0 l/m 1,1 km/h (1 Bft) SO 130 0 min 0,000 mm 0,0 UV-I 0 W/m 9,1 C 10,2 C 4,8 km/h (1 Bft) 100,00 %
17.09.2017 02:34 10,2 C 15,6 C 93 % 1012,3 hPa 0,0 l/m 3,3 km/h (1 Bft) SO 130 0 min 0,000 mm 0,0 UV-I 0 W/m 9,1 C 10,2 C 4,8 km/h (1 Bft) 100,00 %
17.09.2017 02:36 10,2 C 15,6 C 93 % 1012,4 hPa 0,0 l/m 2,3 km/h (1 Bft) SO 130 0 min 0,000 mm 0,0 UV-I 0 W/m 9,1 C 10,2 C 4,8 km/h (1 Bft) 98,00 %
17.09.2017 02:38 10,2 C 15,6 C 93 % 1012,4 hPa 0,0 l/m 2,3 km/h (1 Bft) SO 130 0 min 0,000 mm 0,0 UV-I 0 W/m 9,1 C 10,2 C 4,8 km/h (1 Bft) 97,92 %
17.09.2017 02:40 10,2 C 15,6 C 93 % 1012,4 hPa 0,0 l/m 2,7 km/h (1 Bft) SO 130 0 min 0,000 mm 0,0 UV-I 0 W/m 9,1 C 10,2 C 4,8 km/h (1 Bft) 100,00 %
17.09.2017 02:42 10,2 C 15,6 C 93 % 1012,4 hPa 0,0 l/m 3,8 km/h (1 Bft) S-SW 192 0 min 0,000 mm 0,0 UV-I 0 W/m 9,1 C 10,2 C 4,8 km/h (1 Bft) 100,00 %
17.09.2017 02:44 10,2 C 15,6 C 93 % 1012,2 hPa 0,0 l/m 1,9 km/h (1 Bft) S-SW 192 0 min 0,000 mm 0,0 UV-I 0 W/m 9,1 C 10,2 C 3,2 km/h (1 Bft) 100,00 %
17.09.2017 02:46 10,2 C 15,6 C 93 % 1012,2 hPa 0,0 l/m 0,2 km/h (0 Bft) S-SW 192 0 min 0,000 mm 0,0 UV-I 0 W/m 9,1 C 10,2 C 1,6 km/h (1 Bft) 100,00 %
17.09.2017 02:48 10,2 C 15,6 C 93 % 1012,2 hPa 0,0 l/m 0,8 km/h (0 Bft) S-SW 192 0 min 0,000 mm 0,0 UV-I 0 W/m 9,1 C 10,2 C 3,2 km/h (1 Bft) 100,00 %
17.09.2017 02:50 10,2 C 15,6 C 93 % 1012,3 hPa 0,0 l/m 2,0 km/h (1 Bft) S-SW 192 0 min 0,000 mm 0,0 UV-I 0 W/m 9,1 C 10,2 C 3,2 km/h (1 Bft) 97,87 %
17.09.2017 02:52 10,2 C 15,6 C 94 % 1012,2 hPa 0,0 l/m 2,2 km/h (1 Bft) S-SW 192 0 min 0,000 mm 0,0 UV-I 0 W/m 9,3 C 10,2 C 3,2 km/h (1 Bft) 97,37 %
17.09.2017 02:54 10,2 C 15,6 C 94 % 1012,2 hPa 0,0 l/m 1,7 km/h (1 Bft) S-SW 192 0 min 0,000 mm 0,0 UV-I 0 W/m 9,3 C 10,2 C 3,2 km/h (1 Bft) 94,44 %
17.09.2017 02:56 10,2 C 15,6 C 94 % 1012,1 hPa 0,0 l/m 0,6 km/h (0 Bft) S-SW 192 0 min 0,000 mm 0,0 UV-I 0 W/m 9,3 C 10,2 C 1,6 km/h (1 Bft) 100,00 %
17.09.2017 02:58 10,2 C 15,6 C 94 % 1012,0 hPa 0,0 l/m 0,0 km/h (0 Bft) S-SW 192 0 min 0,000 mm 0,0 UV-I 0 W/m 9,3 C 10,2 C 0,0 km/h (0 Bft) 100,00 %
17.09.2017 03:00 10,2 C 15,6 C 94 % 1011,9 hPa 0,0 l/m 0,0 km/h (0 Bft) S-SW 192 0 min 0,000 mm 0,0 UV-I 0 W/m 9,3 C 10,2 C 0,0 km/h (0 Bft) 100,00 %
17.09.2017 03:02 10,2 C 15,6 C 94 % 1011,9 hPa 0,0 l/m 0,4 km/h (0 Bft) S-SW 192 0 min 0,000 mm 0,0 UV-I 0 W/m 9,3 C 10,2 C 1,6 km/h (1 Bft) 100,00 %
17.09.2017 03:04 10,2 C 15,6 C 94 % 1012,0 hPa 0,0 l/m 2,7 km/h (1 Bft) S-SW 192 0 min 0,000 mm 0,0 UV-I 0 W/m 9,3 C 10,2 C 4,8 km/h (1 Bft) 100,00 %
17.09.2017 03:06 10,2 C 15,6 C 94 % 1012,2 hPa 0,0 l/m 2,1 km/h (1 Bft) S-SW 192 0 min 0,000 mm 0,0 UV-I 0 W/m 9,3 C 10,2 C 3,2 km/h (1 Bft) 100,00 %
17.09.2017 03:08 10,2 C 15,6 C 94 % 1012,2 hPa 0,0 l/m 1,1 km/h (1 Bft) S-SW 192 0 min 0,000 mm 0,0 UV-I 0 W/m 9,3 C 10,2 C 1,6 km/h (1 Bft) 100,00 %
17.09.2017 03:10 10,2 C 15,6 C 94 % 1012,2 hPa 0,0 l/m 1,9 km/h (1 Bft) S-SW 192 0 min 0,000 mm 0,0 UV-I 0 W/m 9,3 C 10,2 C 3,2 km/h (1 Bft) 100,00 %
17.09.2017 03:12 10,2 C 15,6 C 94 % 1012,2 hPa 0,0 l/m 1,9 km/h (1 Bft) S-SW 192 0 min 0,000 mm 0,0 UV-I 0 W/m 9,3 C 10,2 C 3,2 km/h (1 Bft) 100,00 %
17.09.2017 03:14 10,2 C 15,6 C 94 % 1012,2 hPa 0,0 l/m 2,2 km/h (1 Bft) S-SW 192 0 min 0,000 mm 0,0 UV-I 0 W/m 9,3 C 10,2 C 3,2 km/h (1 Bft) 100,00 %
17.09.2017 03:16 10,2 C 15,6 C 94 % 1012,2 hPa 0,0 l/m 2,6 km/h (1 Bft) SW 219 0 min 0,000 mm 0,0 UV-I 0 W/m 9,3 C 10,2 C 4,8 km/h (1 Bft) 100,00 %
17.09.2017 03:18 10,2 C 15,6 C 94 % 1012,3 hPa 0,0 l/m 3,2 km/h (1 Bft) SW 219 0 min 0,000 mm 0,0 UV-I 0 W/m 9,3 C 10,2 C 4,8 km/h (1 Bft) 100,00 %
17.09.2017 03:20 10,2 C 15,6 C 94 % 1012,3 hPa 0,0 l/m 1,8 km/h (1 Bft) SW 219 0 min 0,000 mm 0,0 UV-I 0 W/m 9,3 C 10,2 C 3,2 km/h (1 Bft) 100,00 %
17.09.2017 03:22 10,2 C 15,6 C 94 % 1012,4 hPa 0,0 l/m 2,7 km/h (1 Bft) SW 219 0 min 0,000 mm 0,0 UV-I 0 W/m 9,3 C 10,2 C 4,8 km/h (1 Bft) 100,00 %
17.09.2017 03:24 10,2 C 15,6 C 94 % 1012,4 hPa 0,0 l/m 2,2 km/h (1 Bft) SW 219 0 min 0,000 mm 0,0 UV-I 0 W/m 9,3 C 10,2 C 4,8 km/h (1 Bft) 100,00 %
17.09.2017 03:26 10,2 C 15,6 C 94 % 1012,3 hPa 0,0 l/m 0,2 km/h (0 Bft) SW 219 0 min 0,000 mm 0,0 UV-I 0 W/m 9,3 C 10,2 C 1,6 km/h (1 Bft) 100,00 %
17.09.2017 03:28 10,2 C 15,6 C 94 % 1012,3 hPa 0,0 l/m 0,1 km/h (0 Bft) SW 219 0 min 0,000 mm 0,0 UV-I 0 W/m 9,3 C 10,2 C 1,6 km/h (1 Bft) 97,87 %
17.09.2017 03:30 10,2 C 15,6 C 94 % 1012,4 hPa 0,0 l/m 1,6 km/h (1 Bft) SW 219 0 min 0,000 mm 0,0 UV-I 0 W/m 9,3 C 10,2 C 3,2 km/h (1 Bft) 100,00 %
17.09.2017 03:32 10,2 C 15,6 C 94 % 1012,4 hPa 0,0 l/m 2,1 km/h (1 Bft) SW 219 0 min 0,000 mm 0,0 UV-I 0 W/m 9,3 C 10,2 C 3,2 km/h (1 Bft) 100,00 %
17.09.2017 03:34 10,2 C 15,6 C 94 % 1012,4 hPa 0,0 l/m 2,9 km/h (1 Bft) SW 219 0 min 0,000 mm 0,0 UV-I 0 W/m 9,3 C 10,2 C 4,8 km/h (1 Bft) 100,00 %
17.09.2017 03:36 10,2 C 15,6 C 94 % 1012,5 hPa 0,0 l/m 3,2 km/h (1 Bft) SW 219 0 min 0,000 mm 0,0 UV-I 0 W/m 9,3 C 10,2 C 4,8 km/h (1 Bft) 96,00 %
17.09.2017 03:38 10,2 C 15,6 C 94 % 1012,6 hPa 0,0 l/m 1,8 km/h (1 Bft) SW 219 0 min 0,000 mm 0,0 UV-I 0 W/m 9,3 C 10,2 C 4,8 km/h (1 Bft) 97,87 %
17.09.2017 03:40 10,2 C 15,6 C 94 % 1012,6 hPa 0,0 l/m 1,0 km/h (0 Bft) SW 219 0 min 0,000 mm 0,0 UV-I 0 W/m 9,3 C 10,2 C 3,2 km/h (1 Bft) 96,00 %
17.09.2017 03:42 10,2 C 15,6 C 94 % 1012,5 hPa 0,0 l/m 3,2 km/h (1 Bft) SW 219 0 min 0,000 mm 0,0 UV-I 0 W/m 9,3 C 10,2 C 4,8 km/h (1 Bft) 98,00 %
17.09.2017 03:44 10,2 C 15,6 C 94 % 1012,5 hPa 0,0 l/m 2,4 km/h (1 Bft) SW 219 0 min 0,000 mm 0,0 UV-I 0 W/m 9,3 C 10,2 C 3,2 km/h (1 Bft) 98,00 %
17.09.2017 03:46 10,2 C 15,6 C 94 % 1012,4 hPa 0,0 l/m 1,4 km/h (1 Bft) SW 219 0 min 0,000 mm 0,0 UV-I 0 W/m 9,3 C 10,2 C 3,2 km/h (1 Bft) 95,12 %
17.09.2017 03:48 10,2 C 15,6 C 94 % 1012,4 hPa 0,0 l/m 1,9 km/h (1 Bft) SW 219 0 min 0,000 mm 0,0 UV-I 0 W/m 9,3 C 10,2 C 4,8 km/h (1 Bft) 98,00 %
17.09.2017 03:50 10,2 C 15,6 C 94 % 1012,5 hPa 0,0 l/m 2,8 km/h (1 Bft) SW 219 0 min 0,000 mm 0,0 UV-I 0 W/m 9,3 C 10,2 C 4,8 km/h (1 Bft) 93,62 %
17.09.2017 03:52 10,2 C 15,6 C 94 % 1012,4 hPa 0,0 l/m 2,9 km/h (1 Bft) SW 219 0 min 0,000 mm 0,0 UV-I 0 W/m 9,3 C 10,2 C 4,8 km/h (1 Bft) 94,29 %
17.09.2017 03:54 10,2 C 15,6 C 94 % 1012,5 hPa 0,0 l/m 1,9 km/h (1 Bft) SW 219 0 min 0,000 mm 0,0 UV-I 0 W/m 9,3 C 10,2 C 3,2 km/h (1 Bft) 95,12 %
17.09.2017 03:56 10,2 C 15,6 C 94 % 1012,3 hPa 0,0 l/m 1,7 km/h (1 Bft) SW 219 0 min 0,000 mm 0,0 UV-I 0 W/m 9,3 C 10,2 C 3,2 km/h (1 Bft) 96,43 %
17.09.2017 03:58 10,2 C 15,6 C 94 % 1012,4 hPa 0,0 l/m 0,8 km/h (0 Bft) SW 219 0 min 0,000 mm 0,0 UV-I 0 W/m 9,3 C 10,2 C 3,2 km/h (1 Bft) 94,00 %
17.09.2017 04:00 10,2 C 15,6 C 94 % 1012,4 hPa 0,0 l/m 1,5 km/h (1 Bft) SW 219 0 min 0,000 mm 0,0 UV-I 0 W/m 9,3 C 10,2 C 3,2 km/h (1 Bft) 93,18 %
17.09.2017 04:02 10,2 C 15,6 C 94 % 1012,6 hPa 0,0 l/m 0,5 km/h (0 Bft) SW 219 0 min 0,000 mm 0,0 UV-I 0 W/m 9,3 C 10,2 C 3,2 km/h (1 Bft) 96,77 %
17.09.2017 04:04 10,2 C 15,6 C 94 % 1012,6 hPa 0,0 l/m 1,2 km/h (1 Bft) SW 219 0 min 0,000 mm 0,0 UV-I 0 W/m 9,3 C 10,2 C 3,2 km/h (1 Bft) 95,74 %
17.09.2017 04:06 10,2 C 15,6 C 94 % 1012,6 hPa 0,0 l/m 2,1 km/h (1 Bft) SW 219 0 min 0,000 mm 0,0 UV-I 0 W/m 9,3 C 10,2 C 4,8 km/h (1 Bft) 96,00 %
17.09.2017 04:08 10,2 C 15,6 C 94 % 1012,7 hPa 0,0 l/m 0,0 km/h (0 Bft) SW 219 0 min 0,000 mm 0,0 UV-I 0 W/m 9,3 C 10,2 C 1,6 km/h (1 Bft) 95,12 %
17.09.2017 04:10 10,2 C 15,6 C 94 % 1012,7 hPa 0,0 l/m 0,4 km/h (0 Bft) SW 219 0 min 0,000 mm 0,0 UV-I 0 W/m 9,3 C 10,2 C 1,6 km/h (1 Bft) 93,62 %
17.09.2017 04:12 10,2 C 15,6 C 94 % 1012,6 hPa 0,0 l/m 1,9 km/h (1 Bft) SW 219 0 min 0,000 mm 0,0 UV-I 0 W/m 9,3 C 10,2 C 3,2 km/h (1 Bft) 96,23 %
17.09.2017 04:14 10,2 C 15,6 C 94 % 1012,6 hPa 0,0 l/m 2,4 km/h (1 Bft) SW 219 0 min 0,000 mm 0,0 UV-I 0 W/m 9,3 C 10,2 C 3,2 km/h (1 Bft) 94,87 %
17.09.2017 04:16 10,2 C 15,6 C 94 % 1012,5 hPa 0,0 l/m 1,9 km/h (1 Bft) SW 219 0 min 0,000 mm 0,0 UV-I 0 W/m 9,3 C 10,2 C 3,2 km/h (1 Bft) 94,00 %
17.09.2017 04:18 10,2 C 15,6 C 94 % 1012,3 hPa 0,0 l/m 2,3 km/h (1 Bft) SW 219 0 min 0,000 mm 0,0 UV-I 0 W/m 9,3 C 10,2 C 3,2 km/h (1 Bft) 95,74 %
17.09.2017 04:20 10,2 C 15,6 C 94 % 1012,2 hPa 0,0 l/m 0,0 km/h (0 Bft) SW 219 0 min 0,000 mm 0,0 UV-I 0 W/m 9,3 C 10,2 C 0,0 km/h (0 Bft) 97,87 %
17.09.2017 04:22 10,2 C 15,6 C 94 % 1012,2 hPa 0,0 l/m 0,2 km/h (0 Bft) SW 219 0 min 0,000 mm 0,0 UV-I 0 W/m 9,3 C 10,2 C 1,6 km/h (1 Bft) 97,87 %
17.09.2017 04:24 10,2 C 15,6 C 94 % 1012,3 hPa 0,0 l/m 0,1 km/h (0 Bft) SW 219 0 min 0,000 mm 0,0 UV-I 0 W/m 9,3 C 10,2 C 1,6 km/h (1 Bft) 94,00 %
17.09.2017 04:26 10,2 C 15,6 C 94 % 1012,3 hPa 0,0 l/m 1,4 km/h (1 Bft) SW 219 0 min 0,000 mm 0,0 UV-I 0 W/m 9,3 C 10,2 C 3,2 km/h (1 Bft) 98,00 %
17.09.2017 04:28 10,2 C 15,6 C 94 % 1012,3 hPa 0,0 l/m 1,1 km/h (1 Bft) SW 219 0 min 0,000 mm 0,0 UV-I 0 W/m 9,3 C 10,2 C 1,6 km/h (1 Bft) 97,56 %
17.09.2017 04:30 10,2 C 15,6 C 94 % 1012,3 hPa 0,0 l/m 0,9 km/h (0 Bft) SW 219 0 min 0,000 mm 0,0 UV-I 0 W/m 9,3 C 10,2 C 1,6 km/h (1 Bft) 97,87 %
17.09.2017 04:32 10,2 C 15,6 C 94 % 1012,4 hPa 0,0 l/m 0,7 km/h (0 Bft) SW 219 0 min 0,000 mm 0,0 UV-I 0 W/m 9,3 C 10,2 C 1,6 km/h (1 Bft) 97,87 %
17.09.2017 04:34 10,2 C 15,6 C 94 % 1012,3 hPa 0,0 l/m 0,9 km/h (0 Bft) SW 219 0 min 0,000 mm 0,0 UV-I 0 W/m 9,3 C 10,2 C 1,6 km/h (1 Bft) 100,00 %
17.09.2017 04:36 10,2 C 15,6 C 94 % 1012,3 hPa 0,0 l/m 1,7 km/h (1 Bft) SW 219 0 min 0,000 mm 0,0 UV-I 0 W/m 9,3 C 10,2 C 3,2 km/h (1 Bft) 100,00 %
17.09.2017 04:38 10,2 C 15,6 C 94 % 1012,4 hPa 0,0 l/m 3,2 km/h (1 Bft) SW 219 0 min 0,000 mm 0,0 UV-I 0 W/m 9,3 C 10,2 C 4,8 km/h (1 Bft) 98,00 %
17.09.2017 04:40 10,2 C 15,6 C 94 % 1012,4 hPa 0,0 l/m 3,9 km/h (1 Bft) SW 219 0 min 0,000 mm 0,0 UV-I 0 W/m 9,3 C 10,2 C 6,4 km/h (2 Bft) 100,00 %
17.09.2017 04:42 10,2 C 15,6 C 94 % 1012,4 hPa 0,0 l/m 3,6 km/h (1 Bft) SW 219 0 min 0,000 mm 0,0 UV-I 0 W/m 9,3 C 10,2 C 6,4 km/h (2 Bft) 100,00 %
17.09.2017 04:44 10,2 C 15,6 C 94 % 1012,3 hPa 0,0 l/m 2,6 km/h (1 Bft) SW 219 0 min 0,000 mm 0,0 UV-I 0 W/m 9,3 C 10,2 C 4,8 km/h (1 Bft) 100,00 %
17.09.2017 04:46 10,2 C 15,6 C 94 % 1012,3 hPa 0,0 l/m 2,2 km/h (1 Bft) SW 219 0 min 0,000 mm 0,0 UV-I 0 W/m 9,3 C 10,2 C 3,2 km/h (1 Bft) 100,00 %
17.09.2017 04:48 10,2 C 15,6 C 94 % 1012,3 hPa 0,0 l/m 1,9 km/h (1 Bft) SW 219 0 min 0,000 mm 0,0 UV-I 0 W/m 9,3 C 10,2 C 4,8 km/h (1 Bft) 100,00 %
17.09.2017 04:50 10,2 C 15,6 C 94 % 1012,4 hPa 0,0 l/m 1,6 km/h (1 Bft) SW 219 0 min 0,000 mm 0,0 UV-I 0 W/m 9,3 C 10,2 C 3,2 km/h (1 Bft) 100,00 %
17.09.2017 04:52 10,2 C 15,6 C 94 % 1012,4 hPa 0,0 l/m 1,9 km/h (1 Bft) SW 219 0 min 0,000 mm 0,0 UV-I 0 W/m 9,3 C 10,2 C 4,8 km/h (1 Bft) 100,00 %
17.09.2017 04:54 10,2 C 15,6 C 94 % 1012,4 hPa 0,0 l/m 2,0 km/h (1 Bft) SW 219 0 min 0,000 mm 0,0 UV-I 0 W/m 9,3 C 10,2 C 4,8 km/h (1 Bft) 100,00 %
17.09.2017 04:56 10,2 C 15,6 C 94 % 1012,5 hPa 0,0 l/m 3,6 km/h (1 Bft) SW 219 0 min 0,000 mm 0,0 UV-I 0 W/m 9,3 C 10,2 C 4,8 km/h (1 Bft) 100,00 %
17.09.2017 04:58 10,2 C 15,6 C 94 % 1012,5 hPa 0,0 l/m 1,6 km/h (1 Bft) SW 219 0 min 0,000 mm 0,0 UV-I 0 W/m 9,3 C 10,2 C 3,2 km/h (1 Bft) 100,00 %
17.09.2017 05:00 10,2 C 15,6 C 94 % 1012,6 hPa 0,0 l/m 2,7 km/h (1 Bft) SW 219 0 min 0,000 mm 0,0 UV-I 0 W/m 9,3 C 10,2 C 4,8 km/h (1 Bft) 100,00 %
17.09.2017 05:02 10,2 C 15,6 C 94 % 1012,6 hPa 0,0 l/m 1,0 km/h (0 Bft) SW 219 0 min 0,000 mm 0,0 UV-I 0 W/m 9,3 C 10,2 C 3,2 km/h (1 Bft) 100,00 %
17.09.2017 05:04 10,2 C 15,6 C 94 % 1012,5 hPa 0,0 l/m 1,3 km/h (1 Bft) SW 219 0 min 0,000 mm 0,0 UV-I 0 W/m 9,3 C 10,2 C 3,2 km/h (1 Bft) 100,00 %
17.09.2017 05:06 10,2 C 15,6 C 94 % 1012,5 hPa 0,0 l/m 0,1 km/h (0 Bft) SW 219 0 min 0,000 mm 0,0 UV-I 0 W/m 9,3 C 10,2 C 1,6 km/h (1 Bft) 100,00 %
17.09.2017 05:08 10,2 C 15,6 C 94 % 1012,5 hPa 0,0 l/m 0,4 km/h (0 Bft) SW 219 0 min 0,000 mm 0,0 UV-I 0 W/m 9,3 C 10,2 C 1,6 km/h (1 Bft) 100,00 %
17.09.2017 05:10 10,2 C 15,6 C 94 % 1012,5 hPa 0,0 l/m 0,0 km/h (0 Bft) SW 219 0 min 0,000 mm 0,0 UV-I 0 W/m 9,3 C 10,2 C 0,0 km/h (0 Bft) 93,62 %
17.09.2017 05:12 10,2 C 15,6 C 94 % 1012,4 hPa 0,0 l/m 0,0 km/h (0 Bft) SW 219 0 min 0,000 mm 0,0 UV-I 0 W/m 9,3 C 10,2 C 1,6 km/h (1 Bft) 100,00 %
17.09.2017 05:14 10,2 C 15,6 C 94 % 1012,5 hPa 0,0 l/m 0,0 km/h (0 Bft) SW 219 0 min 0,000 mm 0,0 UV-I 0 W/m 9,3 C 10,2 C 0,0 km/h (0 Bft) 100,00 %
17.09.2017 05:16 10,2 C 15,6 C 94 % 1012,5 hPa 0,0 l/m 0,1 km/h (0 Bft) SW 219 0 min 0,000 mm 0,0 UV-I 0 W/m 9,3 C 10,2 C 1,6 km/h (1 Bft) 100,00 %
17.09.2017 05:18 10,2 C 15,0 C 94 % 1012,5 hPa 0,0 l/m 0,1 km/h (0 Bft) SW 219 0 min 0,000 mm 0,0 UV-I 0 W/m 9,3 C 10,2 C 1,6 km/h (1 Bft) 100,00 %
17.09.2017 05:20 10,2 C 15,6 C 94 % 1012,4 hPa 0,0 l/m 0,0 km/h (0 Bft) SW 219 0 min 0,000 mm 0,0 UV-I 0 W/m 9,3 C 10,2 C 0,0 km/h (0 Bft) 100,00 %
17.09.2017 05:22 10,2 C 15,6 C 94 % 1012,3 hPa 0,0 l/m 0,0 km/h (0 Bft) SW 219 0 min 0,000 mm 0,0 UV-I 0 W/m 9,3 C 10,2 C 0,0 km/h (0 Bft) 100,00 %
17.09.2017 05:24 10,2 C 15,6 C 94 % 1012,3 hPa 0,0 l/m 0,0 km/h (0 Bft) SW 219 0 min 0,000 mm 0,0 UV-I 0 W/m 9,3 C 10,2 C 1,6 km/h (1 Bft) 100,00 %
17.09.2017 05:26 10,2 C 15,6 C 94 % 1012,3 hPa 0,0 l/m 0,2 km/h (0 Bft) SW 219 0 min 0,000 mm 0,0 UV-I 0 W/m 9,3 C 10,2 C 1,6 km/h (1 Bft) 100,00 %
17.09.2017 05:28 10,2 C 15,0 C 94 % 1012,2 hPa 0,0 l/m 0,0 km/h (0 Bft) SW 219 0 min 0,000 mm 0,0 UV-I 0 W/m 9,3 C 10,2 C 0,0 km/h (0 Bft) 98,15 %
17.09.2017 05:30 10,2 C 15,0 C 94 % 1012,1 hPa 0,0 l/m 0,0 km/h (0 Bft) SW 219 0 min 0,000 mm 0,0 UV-I 0 W/m 9,3 C 10,2 C 0,0 km/h (0 Bft) 100,00 %
17.09.2017 05:32 10,2 C 15,0 C 94 % 1012,1 hPa 0,0 l/m 0,0 km/h (0 Bft) SW 219 0 min 0,000 mm 0,0 UV-I 0 W/m 9,3 C 10,2 C 0,0 km/h (0 Bft) 100,00 %
17.09.2017 05:34 10,2 C 15,0 C 94 % 1012,1 hPa 0,0 l/m 0,0 km/h (0 Bft) SW 219 0 min 0,000 mm 0,0 UV-I 0 W/m 9,3 C 10,2 C 0,0 km/h (0 Bft) 100,00 %
17.09.2017 05:36 10,2 C 15,0 C 94 % 1012,1 hPa 0,0 l/m 0,0 km/h (0 Bft) SW 219 0 min 0,000 mm 0,0 UV-I 0 W/m 9,3 C 10,2 C 0,0 km/h (0 Bft) 100,00 %
17.09.2017 05:38 10,2 C 15,0 C 94 % 1012,0 hPa 0,0 l/m 0,0 km/h (0 Bft) SW 219 0 min 0,000 mm 0,0 UV-I 0 W/m 9,3 C 10,2 C 0,0 km/h (0 Bft) 100,00 %
17.09.2017 05:40 10,2 C 15,0 C 94 % 1012,0 hPa 0,0 l/m 0,0 km/h (0 Bft) SW 219 0 min 0,000 mm 0,0 UV-I 0 W/m 9,3 C 10,2 C 0,0 km/h (0 Bft) 100,00 %
17.09.2017 05:42 10,2 C 15,0 C 94 % 1012,0 hPa 0,0 l/m 0,0 km/h (0 Bft) SW 219 0 min 0,000 mm 0,0 UV-I 0 W/m 9,3 C 10,2 C 0,0 km/h (0 Bft) 100,00 %
17.09.2017 05:44 10,2 C 15,0 C 94 % 1012,0 hPa 0,0 l/m 0,0 km/h (0 Bft) SW 219 0 min 0,000 mm 0,0 UV-I 0 W/m 9,3 C 10,2 C 0,0 km/h (0 Bft) 100,00 %
17.09.2017 05:46 10,2 C 15,0 C 94 % 1011,9 hPa 0,0 l/m 0,0 km/h (0 Bft) SW 219 0 min 0,000 mm 0,0 UV-I 0 W/m 9,3 C 10,2 C 0,0 km/h (0 Bft) 95,74 %
17.09.2017 05:48 10,2 C 15,0 C 94 % 1011,9 hPa 0,0 l/m 0,0 km/h (0 Bft) SW 219 0 min 0,000 mm 0,0 UV-I 0 W/m 9,3 C 10,2 C 0,0 km/h (0 Bft) 95,74 %
17.09.2017 05:50 10,2 C 15,0 C 94 % 1011,9 hPa 0,0 l/m 0,0 km/h (0 Bft) SW 219 0 min 0,000 mm 0,0 UV-I 0 W/m 9,3 C 10,2 C 0,0 km/h (0 Bft) 98,00 %
17.09.2017 05:52 10,2 C 15,0 C 94 % 1012,0 hPa 0,0 l/m 0,0 km/h (0 Bft) SW 219 0 min 0,000 mm 0,0 UV-I 0 W/m 9,3 C 10,2 C 0,0 km/h (0 Bft) 97,87 %
17.09.2017 05:54 10,2 C 15,0 C 94 % 1011,9 hPa 0,0 l/m 0,0 km/h (0 Bft) SW 219 0 min 0,000 mm 0,0 UV-I 0 W/m 9,3 C 10,2 C 0,0 km/h (0 Bft) 95,12 %
17.09.2017 05:56 10,2 C 15,0 C 94 % 1011,9 hPa 0,0 l/m 0,0 km/h (0 Bft) SW 219 0 min 0,000 mm 0,0 UV-I 0 W/m 9,3 C 10,2 C 0,0 km/h (0 Bft) 97,87 %
17.09.2017 05:58 10,2 C 15,0 C 94 % 1011,9 hPa 0,0 l/m 0,1 km/h (0 Bft) SW 219 0 min 0,000 mm 0,0 UV-I 0 W/m 9,3 C 10,2 C 1,6 km/h (1 Bft) 93,62 %
17.09.2017 06:00 10,2 C 15,0 C 94 % 1011,9 hPa 0,0 l/m 0,0 km/h (0 Bft) SW 219 0 min 0,000 mm 0,0 UV-I 0 W/m 9,3 C 10,2 C 0,0 km/h (0 Bft) 93,62 %
17.09.2017 06:02 10,2 C 15,0 C 94 % 1012,0 hPa 0,0 l/m 0,0 km/h (0 Bft) SW 219 0 min 0,000 mm 0,0 UV-I 0 W/m 9,3 C 10,2 C 0,0 km/h (0 Bft) 98,00 %
17.09.2017 06:04 10,2 C 15,0 C 94 % 1011,9 hPa 0,0 l/m 0,0 km/h (0 Bft) SW 219 0 min 0,000 mm 0,0 UV-I 0 W/m 9,3 C 10,2 C 0,0 km/h (0 Bft) 98,00 %
17.09.2017 06:06 10,2 C 15,0 C 94 % 1012,0 hPa 0,0 l/m 0,0 km/h (0 Bft) SW 219 0 min 0,000 mm 0,0 UV-I 0 W/m 9,3 C 10,2 C 0,0 km/h (0 Bft) 97,37 %
17.09.2017 06:08 10,2 C 15,0 C 94 % 1012,0 hPa 0,0 l/m 0,0 km/h (0 Bft) SW 219 0 min 0,000 mm 0,0 UV-I 0 W/m 9,3 C 10,2 C 0,0 km/h (0 Bft) 98,00 %
17.09.2017 06:10 10,3 C 15,0 C 94 % 1012,0 hPa 0,0 l/m 0,9 km/h (0 Bft) SW 219 0 min 0,000 mm 0,0 UV-I 0 W/m 9,4 C 10,3 C 1,6 km/h (1 Bft) 98,00 %
17.09.2017 06:12 10,3 C 15,0 C 94 % 1012,1 hPa 0,0 l/m 0,3 km/h (0 Bft) SW 219 0 min 0,000 mm 0,0 UV-I 0 W/m 9,4 C 10,3 C 1,6 km/h (1 Bft) 97,22 %
17.09.2017 06:14 10,2 C 15,0 C 94 % 1012,1 hPa 0,0 l/m 1,3 km/h (1 Bft) SW 219 0 min 0,000 mm 0,0 UV-I 0 W/m 9,3 C 10,2 C 1,6 km/h (1 Bft) 98,21 %
17.09.2017 06:16 10,3 C 15,0 C 95 % 1012,1 hPa 0,0 l/m 0,8 km/h (0 Bft) SW 219 0 min 0,000 mm 0,0 UV-I 0 W/m 9,5 C 10,3 C 1,6 km/h (1 Bft) 95,74 %
17.09.2017 06:18 10,3 C 15,0 C 95 % 1012,1 hPa 0,0 l/m 0,2 km/h (0 Bft) SW 219 0 min 0,000 mm 0,0 UV-I 0 W/m 9,5 C 10,3 C 1,6 km/h (1 Bft) 97,87 %
17.09.2017 06:20 10,3 C 15,0 C 94 % 1012,0 hPa 0,0 l/m 0,0 km/h (0 Bft) SW 219 0 min 0,000 mm 0,0 UV-I 0 W/m 9,4 C 10,3 C 0,0 km/h (0 Bft) 100,00 %
17.09.2017 06:22 10,3 C 15,0 C 95 % 1012,0 hPa 0,0 l/m 0,0 km/h (0 Bft) SW 219 0 min 0,000 mm 0,0 UV-I 0 W/m 9,5 C 10,3 C 0,0 km/h (0 Bft) 100,00 %
17.09.2017 06:24 10,3 C 15,0 C 95 % 1011,9 hPa 0,0 l/m 0,0 km/h (0 Bft) SW 219 0 min 0,000 mm 0,0 UV-I 0 W/m 9,5 C 10,3 C 0,0 km/h (0 Bft) 98,00 %
17.09.2017 06:26 10,3 C 15,0 C 95 % 1011,9 hPa 0,0 l/m 0,1 km/h (0 Bft) SW 219 0 min 0,000 mm 0,0 UV-I 0 W/m 9,5 C 10,3 C 1,6 km/h (1 Bft) 100,00 %
17.09.2017 06:28 10,3 C 15,0 C 95 % 1011,9 hPa 0,0 l/m 1,0 km/h (0 Bft) SW 219 0 min 0,000 mm 0,0 UV-I 0 W/m 9,5 C 10,3 C 3,2 km/h (1 Bft) 100,00 %
17.09.2017 06:30 10,3 C 15,0 C 95 % 1011,9 hPa 0,0 l/m 1,6 km/h (1 Bft) SW 219 0 min 0,000 mm 0,0 UV-I 0 W/m 9,5 C 10,3 C 3,2 km/h (1 Bft) 97,87 %
17.09.2017 06:32 10,3 C 15,0 C 95 % 1012,0 hPa 0,0 l/m 1,8 km/h (1 Bft) SW 219 0 min 0,000 mm 0,0 UV-I 0 W/m 9,5 C 10,3 C 3,2 km/h (1 Bft) 100,00 %
17.09.2017 06:34 10,3 C 15,0 C 95 % 1012,0 hPa 0,0 l/m 1,6 km/h (1 Bft) SW 219 0 min 0,000 mm 0,0 UV-I 0 W/m 9,5 C 10,3 C 3,2 km/h (1 Bft) 100,00 %
17.09.2017 06:36 10,3 C 15,0 C 95 % 1012,1 hPa 0,0 l/m 2,5 km/h (1 Bft) SW 219 0 min 0,000 mm 0,0 UV-I 0 W/m 9,5 C 10,3 C 3,2 km/h (1 Bft) 100,00 %
17.09.2017 06:38 10,3 C 15,0 C 95 % 1012,0 hPa 0,0 l/m 1,2 km/h (1 Bft) SW 219 0 min 0,000 mm 0,0 UV-I 0 W/m 9,5 C 10,3 C 3,2 km/h (1 Bft) 100,00 %
17.09.2017 06:40 10,3 C 15,0 C 95 % 1012,0 hPa 0,0 l/m 1,6 km/h (1 Bft) SW 219 0 min 0,000 mm 0,0 UV-I 0 W/m 9,5 C 10,3 C 3,2 km/h (1 Bft) 100,00 %
17.09.2017 06:42 10,3 C 15,0 C 95 % 1012,1 hPa 0,0 l/m 1,7 km/h (1 Bft) SW 219 0 min 0,000 mm 0,0 UV-I 0 W/m 9,5 C 10,3 C 3,2 km/h (1 Bft) 100,00 %
17.09.2017 06:44 10,3 C 15,0 C 95 % 1012,2 hPa 0,0 l/m 2,0 km/h (1 Bft) SW 219 0 min 0,000 mm 0,0 UV-I 0 W/m 9,5 C 10,3 C 3,2 km/h (1 Bft) 98,00 %
17.09.2017 06:46 10,3 C 15,0 C 95 % 1012,2 hPa 0,0 l/m 2,3 km/h (1 Bft) SW 219 0 min 0,000 mm 0,0 UV-I 0 W/m 9,5 C 10,3 C 4,8 km/h (1 Bft) 100,00 %
17.09.2017 06:48 10,2 C 15,0 C 95 % 1012,3 hPa 0,0 l/m 3,3 km/h (1 Bft) SW 219 0 min 0,000 mm 0,0 UV-I 0 W/m 9,4 C 10,2 C 4,8 km/h (1 Bft) 100,00 %
17.09.2017 06:50 10,2 C 15,0 C 95 % 1012,3 hPa 0,0 l/m 3,1 km/h (1 Bft) SW 219 0 min 0,000 mm 0,0 UV-I 0 W/m 9,4 C 10,2 C 4,8 km/h (1 Bft) 100,00 %
17.09.2017 06:52 10,2 C 15,0 C 95 % 1012,3 hPa 0,0 l/m 4,1 km/h (1 Bft) SW 219 0 min 0,000 mm 0,0 UV-I 0 W/m 9,4 C 10,2 C 4,8 km/h (1 Bft) 100,00 %
17.09.2017 06:54 10,2 C 15,0 C 95 % 1012,3 hPa 0,0 l/m 3,2 km/h (1 Bft) SW 219 0 min 0,000 mm 0,0 UV-I 2 W/m 9,4 C 10,2 C 4,8 km/h (1 Bft) 100,00 %
17.09.2017 06:56 10,2 C 15,0 C 95 % 1012,3 hPa 0,0 l/m 4,2 km/h (1 Bft) SW 219 0 min 0,000 mm 0,0 UV-I 5 W/m 9,4 C 10,2 C 6,4 km/h (2 Bft) 98,11 %
17.09.2017 06:58 10,2 C 15,0 C 95 % 1012,4 hPa 0,0 l/m 3,4 km/h (1 Bft) SW 219 0 min 0,000 mm 0,0 UV-I 5 W/m 9,4 C 10,2 C 4,8 km/h (1 Bft) 100,00 %
17.09.2017 07:00 10,2 C 15,0 C 95 % 1012,4 hPa 0,2 l/m 4,8 km/h (1 Bft) SW 227 0 min 0,000 mm 0,0 UV-I 5 W/m 9,4 C 10,2 C 6,4 km/h (2 Bft) 100,00 %
17.09.2017 07:02 10,2 C 15,0 C 95 % 1012,3 hPa 0,0 l/m 4,8 km/h (1 Bft) SW 226 0 min 0,000 mm 0,0 UV-I 5 W/m 9,4 C 10,2 C 8,0 km/h (2 Bft) 100,00 %
17.09.2017 07:04 10,2 C 15,0 C 95 % 1012,4 hPa 0,0 l/m 4,0 km/h (1 Bft) SW 216 0 min 0,000 mm 0,0 UV-I 7 W/m 9,4 C 10,2 C 6,4 km/h (2 Bft) 97,56 %
17.09.2017 07:06 10,2 C 15,0 C 95 % 1012,4 hPa 0,0 l/m 4,5 km/h (1 Bft) SW 215 0 min 0,000 mm 0,0 UV-I 7 W/m 9,4 C 10,2 C 8,0 km/h (2 Bft) 97,87 %
17.09.2017 07:08 10,2 C 15,0 C 95 % 1012,5 hPa 0,0 l/m 6,2 km/h (2 Bft) S-SW 192 0 min 0,000 mm 0,0 UV-I 7 W/m 9,4 C 10,2 C 8,0 km/h (2 Bft) 98,00 %
17.09.2017 07:10 10,2 C 15,0 C 95 % 1012,5 hPa 0,0 l/m 6,0 km/h (2 Bft) W-SW 242 0 min 0,000 mm 0,0 UV-I 9 W/m 9,4 C 10,2 C 8,0 km/h (2 Bft) 97,37 %
17.09.2017 07:12 10,2 C 15,0 C 95 % 1012,6 hPa 0,0 l/m 4,0 km/h (1 Bft) W-SW 240 0 min 0,000 mm 0,0 UV-I 9 W/m 9,4 C 10,2 C 4,8 km/h (1 Bft) 97,87 %
17.09.2017 07:14 10,2 C 15,0 C 95 % 1012,6 hPa 0,0 l/m 3,8 km/h (1 Bft) SW 214 0 min 0,000 mm 0,0 UV-I 10 W/m 9,4 C 10,2 C 6,4 km/h (2 Bft) 96,23 %
17.09.2017 07:16 10,2 C 15,0 C 95 % 1012,5 hPa 0,0 l/m 3,1 km/h (1 Bft) SW 225 0 min 0,000 mm 0,0 UV-I 12 W/m 9,4 C 10,2 C 6,4 km/h (2 Bft) 98,00 %
17.09.2017 07:18 10,2 C 15,0 C 95 % 1012,4 hPa 0,0 l/m 3,7 km/h (1 Bft) W 263 0 min 0,000 mm 0,0 UV-I 14 W/m 9,4 C 10,2 C 6,4 km/h (2 Bft) 97,56 %
17.09.2017 07:20 10,1 C 15,0 C 95 % 1012,4 hPa 0,0 l/m 4,2 km/h (1 Bft) SW 234 0 min 0,000 mm 0,0 UV-I 17 W/m 9,3 C 10,1 C 6,4 km/h (2 Bft) 98,00 %
17.09.2017 07:22 10,1 C 15,0 C 95 % 1012,4 hPa 0,0 l/m 4,1 km/h (1 Bft) W 259 0 min 0,000 mm 0,0 UV-I 18 W/m 9,3 C 10,1 C 6,4 km/h (2 Bft) 97,56 %
17.09.2017 07:24 10,1 C 15,0 C 95 % 1012,3 hPa 0,0 l/m 4,1 km/h (1 Bft) W-SW 237 0 min 0,000 mm 0,0 UV-I 19 W/m 9,3 C 10,1 C 6,4 km/h (2 Bft) 97,22 %
17.09.2017 07:26 10,1 C 15,0 C 95 % 1012,3 hPa 0,0 l/m 2,5 km/h (1 Bft) W-SW 246 0 min 0,000 mm 0,0 UV-I 19 W/m 9,3 C 10,1 C 4,8 km/h (1 Bft) 96,88 %
17.09.2017 07:28 10,1 C 15,0 C 95 % 1012,3 hPa 0,0 l/m 3,8 km/h (1 Bft) W-SW 244 0 min 0,000 mm 0,0 UV-I 19 W/m 9,3 C 10,1 C 6,4 km/h (2 Bft) 94,00 %
17.09.2017 07:30 10,1 C 15,0 C 95 % 1012,3 hPa 0,0 l/m 5,8 km/h (2 Bft) W-SW 238 0 min 0,000 mm 0,0 UV-I 17 W/m 9,3 C 10,1 C 8,0 km/h (2 Bft) 97,22 %
17.09.2017 07:32 10,1 C 15,0 C 95 % 1012,3 hPa 0,0 l/m 4,9 km/h (1 Bft) S-SW 192 0 min 0,000 mm 0,0 UV-I 13 W/m 9,3 C 10,1 C 6,4 km/h (2 Bft) 98,11 %
17.09.2017 07:34 10,1 C 15,0 C 95 % 1012,3 hPa 0,0 l/m 4,7 km/h (1 Bft) SW 233 0 min 0,000 mm 0,0 UV-I 11 W/m 9,3 C 10,1 C 6,4 km/h (2 Bft) 97,56 %
17.09.2017 07:36 10,0 C 15,0 C 95 % 1012,3 hPa 0,0 l/m 4,6 km/h (1 Bft) SW 221 0 min 0,000 mm 0,0 UV-I 11 W/m 9,2 C 10,0 C 6,4 km/h (2 Bft) 94,64 %
17.09.2017 07:38 10,0 C 15,0 C 95 % 1012,2 hPa 0,0 l/m 5,4 km/h (1 Bft) S-SW 213 0 min 0,000 mm 0,0 UV-I 13 W/m 9,2 C 10,0 C 8,0 km/h (2 Bft) 92,68 %
17.09.2017 07:40 10,0 C 15,0 C 95 % 1012,2 hPa 0,0 l/m 6,1 km/h (2 Bft) SW 217 0 min 0,000 mm 0,0 UV-I 16 W/m 9,2 C 10,0 C 8,0 km/h (2 Bft) 97,87 %
17.09.2017 07:42 10,0 C 15,0 C 95 % 1012,3 hPa 0,0 l/m 4,6 km/h (1 Bft) SW 219 0 min 0,000 mm 0,0 UV-I 17 W/m 9,2 C 10,0 C 8,0 km/h (2 Bft) 96,00 %
17.09.2017 07:44 10,0 C 15,0 C 95 % 1012,3 hPa 0,2 l/m 4,9 km/h (1 Bft) SW 217 0 min 0,000 mm 0,0 UV-I 18 W/m 9,2 C 10,0 C 8,0 km/h (2 Bft) 94,00 %
17.09.2017 07:46 10,0 C 15,0 C 95 % 1012,3 hPa 0,0 l/m 5,4 km/h (1 Bft) S-SW 211 0 min 0,000 mm 0,0 UV-I 19 W/m 9,2 C 10,0 C 8,0 km/h (2 Bft) 94,74 %
17.09.2017 07:48 9,9 C 15,0 C 95 % 1012,3 hPa 0,0 l/m 4,2 km/h (1 Bft) S-SW 203 0 min 0,000 mm 0,0 UV-I 17 W/m 9,1 C 9,9 C 4,8 km/h (1 Bft) 96,43 %
17.09.2017 07:50 9,9 C 15,0 C 95 % 1012,3 hPa 0,0 l/m 4,8 km/h (1 Bft) SW 217 0 min 0,000 mm 0,0 UV-I 16 W/m 9,1 C 9,9 C 6,4 km/h (2 Bft) 94,74 %
17.09.2017 07:52 9,9 C 15,0 C 95 % 1012,3 hPa 0,0 l/m 6,5 km/h (2 Bft) S-SW 205 0 min 0,000 mm 0,0 UV-I 14 W/m 9,1 C 9,9 C 9,7 km/h (2 Bft) 95,12 %
17.09.2017 07:54 9,9 C 15,0 C 95 % 1012,4 hPa 0,0 l/m 7,2 km/h (2 Bft) SW 226 0 min 0,000 mm 0,0 UV-I 14 W/m 9,1 C 9,3 C 11,3 km/h (2 Bft) 93,22 %
17.09.2017 07:56 9,9 C 15,0 C 95 % 1012,5 hPa 0,0 l/m 5,5 km/h (1 Bft) SW 222 0 min 0,000 mm 0,0 UV-I 14 W/m 9,1 C 9,9 C 9,7 km/h (2 Bft) 93,62 %
17.09.2017 07:58 9,9 C 15,0 C 95 % 1012,5 hPa 0,0 l/m 4,1 km/h (1 Bft) S-SW 202 0 min 0,000 mm 0,0 UV-I 15 W/m 9,1 C 9,9 C 8,0 km/h (2 Bft) 92,00 %
17.09.2017 08:00 9,9 C 15,0 C 95 % 1012,4 hPa 0,0 l/m 5,0 km/h (1 Bft) SW 215 0 min 0,000 mm 0,0 UV-I 16 W/m 9,1 C 9,9 C 8,0 km/h (2 Bft) 100,00 %
17.09.2017 08:02 9,9 C 15,0 C 95 % 1012,4 hPa 0,0 l/m 4,1 km/h (1 Bft) SW 215 0 min 0,000 mm 0,0 UV-I 15 W/m 9,1 C 9,9 C 6,4 km/h (2 Bft) 94,00 %
17.09.2017 08:04 9,9 C 15,0 C 95 % 1012,4 hPa 0,0 l/m 4,0 km/h (1 Bft) S-SW 209 0 min 0,000 mm 0,0 UV-I 14 W/m 9,1 C 9,9 C 8,0 km/h (2 Bft) 98,00 %
17.09.2017 08:06 9,9 C 15,0 C 95 % 1012,4 hPa 0,0 l/m 5,0 km/h (1 Bft) S-SW 207 0 min 0,000 mm 0,0 UV-I 14 W/m 9,1 C 9,9 C 8,0 km/h (2 Bft) 94,87 %
17.09.2017 08:08 9,9 C 15,0 C 95 % 1012,4 hPa 0,0 l/m 4,0 km/h (1 Bft) S-SW 211 0 min 0,000 mm 0,0 UV-I 12 W/m 9,1 C 9,9 C 6,4 km/h (2 Bft) 98,08 %
17.09.2017 08:10 9,9 C 15,0 C 95 % 1012,4 hPa 0,0 l/m 3,5 km/h (1 Bft) S-SW 212 0 min 0,000 mm 0,0 UV-I 11 W/m 9,1 C 9,9 C 4,8 km/h (1 Bft) 98,00 %
17.09.2017 08:12 9,9 C 15,0 C 95 % 1012,5 hPa 0,0 l/m 2,6 km/h (1 Bft) S-SW 211 0 min 0,000 mm 0,0 UV-I 10 W/m 9,1 C 9,9 C 4,8 km/h (1 Bft) 97,87 %
17.09.2017 08:14 9,9 C 15,0 C 95 % 1012,6 hPa 0,0 l/m 3,4 km/h (1 Bft) S-SW 211 0 min 0,000 mm 0,0 UV-I 9 W/m 9,1 C 9,9 C 4,8 km/h (1 Bft) 95,83 %
17.09.2017 08:16 9,9 C 15,0 C 95 % 1012,6 hPa 0,0 l/m 2,2 km/h (1 Bft) S-SW 211 0 min 0,000 mm 0,0 UV-I 9 W/m 9,1 C 9,9 C 4,8 km/h (1 Bft) 97,14 %
17.09.2017 08:18 9,9 C 15,0 C 95 % 1012,6 hPa 0,0 l/m 0,1 km/h (0 Bft) S-SW 211 0 min 0,000 mm 0,0 UV-I 9 W/m 9,1 C 9,9 C 3,2 km/h (1 Bft) 96,00 %
17.09.2017 08:20 9,9 C 15,0 C 95 % 1012,6 hPa 0,2 l/m 3,1 km/h (1 Bft) S-SW 211 0 min 0,000 mm 0,0 UV-I 10 W/m 9,1 C 9,9 C 4,8 km/h (1 Bft) 98,00 %
17.09.2017 08:22 9,9 C 15,0 C 95 % 1012,6 hPa 0,0 l/m 2,2 km/h (1 Bft) S-SW 211 0 min 0,000 mm 0,0 UV-I 11 W/m 9,1 C 9,9 C 4,8 km/h (1 Bft) 100,00 %
17.09.2017 08:24 9,9 C 15,0 C 95 % 1012,6 hPa 0,0 l/m 2,2 km/h (1 Bft) S-SW 211 0 min 0,000 mm 0,0 UV-I 12 W/m 9,1 C 9,9 C 4,8 km/h (1 Bft) 100,00 %
17.09.2017 08:26 9,9 C 15,0 C 95 % 1012,6 hPa 0,2 l/m 3,6 km/h (1 Bft) S-SW 211 0 min 0,000 mm 0,0 UV-I 13 W/m 9,1 C 9,9 C 4,8 km/h (1 Bft) 100,00 %
17.09.2017 08:28 9,9 C 15,0 C 95 % 1012,6 hPa 0,2 l/m 3,3 km/h (1 Bft) S-SW 211 0 min 0,000 mm 0,0 UV-I 15 W/m 9,1 C 9,9 C 4,8 km/h (1 Bft) 100,00 %
17.09.2017 08:30 9,9 C 15,0 C 95 % 1012,6 hPa 0,2 l/m 3,9 km/h (1 Bft) S-SW 211 0 min 0,000 mm 0,0 UV-I 18 W/m 9,1 C 9,9 C 4,8 km/h (1 Bft) 95,12 %
17.09.2017 08:32 9,9 C 15,0 C 95 % 1012,6 hPa 0,2 l/m 1,4 km/h (1 Bft) S-SW 211 0 min 0,000 mm 0,0 UV-I 21 W/m 9,1 C 9,9 C 3,2 km/h (1 Bft) 100,00 %
17.09.2017 08:34 9,9 C 15,0 C 96 % 1012,6 hPa 0,2 l/m 1,8 km/h (1 Bft) S-SW 211 0 min 0,000 mm 0,0 UV-I 23 W/m 9,3 C 9,9 C 3,2 km/h (1 Bft) 100,00 %
17.09.2017 08:36 9,9 C 15,0 C 96 % 1012,6 hPa 0,2 l/m 3,0 km/h (1 Bft) S-SW 211 0 min 0,000 mm 0,0 UV-I 23 W/m 9,3 C 9,9 C 4,8 km/h (1 Bft) 100,00 %
17.09.2017 08:38 9,9 C 15,0 C 96 % 1012,5 hPa 0,0 l/m 2,5 km/h (1 Bft) S-SW 211 0 min 0,000 mm 0,0 UV-I 23 W/m 9,3 C 9,9 C 4,8 km/h (1 Bft) 100,00 %
17.09.2017 08:40 9,9 C 15,0 C 96 % 1012,6 hPa 0,2 l/m 1,6 km/h (1 Bft) S-SW 211 0 min 0,000 mm 0,0 UV-I 25 W/m 9,3 C 9,9 C 3,2 km/h (1 Bft) 98,11 %
17.09.2017 08:42 9,9 C 15,0 C 96 % 1012,5 hPa 0,2 l/m 0,8 km/h (0 Bft) S-SW 211 0 min 0,000 mm 0,0 UV-I 28 W/m 9,3 C 9,9 C 3,2 km/h (1 Bft) 100,00 %
17.09.2017 08:44 9,9 C 15,0 C 96 % 1012,5 hPa 0,0 l/m 1,0 km/h (0 Bft) S-SW 211 0 min 0,000 mm 0,0 UV-I 30 W/m 9,3 C 9,9 C 3,2 km/h (1 Bft) 94,74 %
17.09.2017 08:46 9,9 C 15,0 C 96 % 1012,5 hPa 0,2 l/m 1,4 km/h (1 Bft) S-SW 211 0 min 0,000 mm 0,0 UV-I 30 W/m 9,3 C 9,9 C 3,2 km/h (1 Bft) 97,92 %
17.09.2017 08:48 9,9 C 15,0 C 96 % 1012,4 hPa 0,0 l/m 1,8 km/h (1 Bft) S-SW 211 0 min 0,000 mm 0,0 UV-I 30 W/m 9,3 C 9,9 C 3,2 km/h (1 Bft) 100,00 %
17.09.2017 08:50 9,9 C 15,0 C 96 % 1012,4 hPa 0,2 l/m 2,5 km/h (1 Bft) S-SW 211 0 min 0,000 mm 0,0 UV-I 31 W/m 9,3 C 9,9 C 3,2 km/h (1 Bft) 100,00 %
17.09.2017 08:52 9,9 C 15,0 C 96 % 1012,4 hPa 0,0 l/m 2,7 km/h (1 Bft) S-SW 211 0 min 0,000 mm 0,0 UV-I 38 W/m 9,3 C 9,9 C 3,2 km/h (1 Bft) 100,00 %
17.09.2017 08:54 9,9 C 15,0 C 96 % 1012,4 hPa 0,2 l/m 2,6 km/h (1 Bft) S-SW 211 0 min 0,000 mm 0,0 UV-I 54 W/m 9,3 C 9,9 C 4,8 km/h (1 Bft) 100,00 %
17.09.2017 08:56 10,0 C 15,0 C 96 % 1012,4 hPa 0,0 l/m 2,0 km/h (1 Bft) S-SW 211 0 min 0,000 mm 0,0 UV-I 64 W/m 9,4 C 10,0 C 3,2 km/h (1 Bft) 97,37 %
17.09.2017 08:58 10,1 C 15,0 C 96 % 1012,4 hPa 0,2 l/m 1,7 km/h (1 Bft) S-SW 211 0 min 0,000 mm 0,0 UV-I 64 W/m 9,5 C 10,1 C 3,2 km/h (1 Bft) 100,00 %
17.09.2017 09:00 10,1 C 15,0 C 96 % 1012,5 hPa 0,0 l/m 1,1 km/h (1 Bft) S-SW 211 0 min 0,025 mm 0,0 UV-I 57 W/m 9,5 C 10,1 C 3,2 km/h (1 Bft) 100,00 %
17.09.2017 09:02 10,1 C 15,0 C 96 % 1012,5 hPa 0,0 l/m 0,3 km/h (0 Bft) S-SW 211 0 min 0,000 mm 0,0 UV-I 43 W/m 9,5 C 10,1 C 1,6 km/h (1 Bft) 100,00 %
17.09.2017 09:04 10,1 C 15,0 C 96 % 1012,6 hPa 0,0 l/m 2,2 km/h (1 Bft) S-SW 211 0 min 0,000 mm 0,0 UV-I 37 W/m 9,5 C 10,1 C 4,8 km/h (1 Bft) 100,00 %
17.09.2017 09:06 10,1 C 15,0 C 96 % 1012,6 hPa 0,2 l/m 0,4 km/h (0 Bft) S-SW 211 0 min 0,000 mm 0,0 UV-I 39 W/m 9,5 C 10,1 C 3,2 km/h (1 Bft) 100,00 %
17.09.2017 09:08 10,1 C 15,0 C 96 % 1012,6 hPa 0,0 l/m 1,8 km/h (1 Bft) S-SW 211 0 min 0,000 mm 0,0 UV-I 36 W/m 9,5 C 10,1 C 3,2 km/h (1 Bft) 100,00 %
17.09.2017 09:10 10,2 C 15,0 C 96 % 1012,7 hPa 0,0 l/m 2,5 km/h (1 Bft) S-SW 211 0 min 0,000 mm 0,0 UV-I 34 W/m 9,6 C 10,2 C 4,8 km/h (1 Bft) 95,45 %
17.09.2017 09:12 10,2 C 15,0 C 96 % 1012,6 hPa 0,0 l/m 1,3 km/h (1 Bft) S-SW 211 0 min 0,000 mm 0,0 UV-I 30 W/m 9,6 C 10,2 C 3,2 km/h (1 Bft) 100,00 %
17.09.2017 09:14 10,2 C 15,0 C 96 % 1012,6 hPa 0,2 l/m 2,0 km/h (1 Bft) S-SW 211 0 min 0,000 mm 0,0 UV-I 25 W/m 9,6 C 10,2 C 3,2 km/h (1 Bft) 98,44 %
17.09.2017 09:16 10,2 C 15,0 C 96 % 1012,6 hPa 0,0 l/m 0,7 km/h (0 Bft) S-SW 211 0 min 0,000 mm 0,0 UV-I 26 W/m 9,6 C 10,2 C 1,6 km/h (1 Bft) 100,00 %
17.09.2017 09:18 10,2 C 15,0 C 96 % 1012,6 hPa 0,0 l/m 0,5 km/h (0 Bft) S-SW 211 0 min 0,000 mm 0,0 UV-I 34 W/m 9,6 C 10,2 C 1,6 km/h (1 Bft) 100,00 %
17.09.2017 09:20 10,2 C 15,0 C 96 % 1012,7 hPa 0,0 l/m 0,0 km/h (0 Bft) S-SW 211 0 min 0,000 mm 0,0 UV-I 42 W/m 9,6 C 10,2 C 0,0 km/h (0 Bft) 100,00 %
17.09.2017 09:22 10,2 C 15,0 C 96 % 1012,7 hPa 0,0 l/m 0,2 km/h (0 Bft) S-SW 211 0 min 0,000 mm 0,0 UV-I 55 W/m 9,6 C 10,2 C 1,6 km/h (1 Bft) 97,87 %
17.09.2017 09:24 10,3 C 15,0 C 96 % 1012,7 hPa 0,0 l/m 0,0 km/h (0 Bft) S-SW 211 0 min 0,000 mm 0,0 UV-I 69 W/m 9,7 C 10,3 C 1,6 km/h (1 Bft) 100,00 %
17.09.2017 09:26 10,3 C 15,0 C 96 % 1012,7 hPa 0,0 l/m 0,0 km/h (0 Bft) S-SW 211 0 min 0,000 mm 0,0 UV-I 74 W/m 9,7 C 10,3 C 0,0 km/h (0 Bft) 97,92 %
17.09.2017 09:28 10,3 C 15,0 C 96 % 1012,7 hPa 0,0 l/m 0,0 km/h (0 Bft) S-SW 211 0 min 0,000 mm 0,0 UV-I 72 W/m 9,7 C 10,3 C 0,0 km/h (0 Bft) 100,00 %
17.09.2017 09:30 10,3 C 15,0 C 96 % 1012,7 hPa 0,0 l/m 0,0 km/h (0 Bft) S-SW 211 0 min 0,000 mm 0,0 UV-I 71 W/m 9,7 C 10,3 C 0,0 km/h (0 Bft) 100,00 %
17.09.2017 09:32 10,3 C 15,0 C 96 % 1012,7 hPa 0,0 l/m 0,0 km/h (0 Bft) S-SW 211 0 min 0,000 mm 0,0 UV-I 82 W/m 9,7 C 10,3 C 0,0 km/h (0 Bft) 100,00 %
17.09.2017 09:34 10,3 C 15,0 C 96 % 1012,7 hPa 0,0 l/m 0,0 km/h (0 Bft) S-SW 211 0 min 0,000 mm 0,0 UV-I 87 W/m 9,7 C 10,3 C 0,0 km/h (0 Bft) 98,00 %
17.09.2017 09:36 10,3 C 15,0 C 96 % 1012,7 hPa 0,0 l/m 0,0 km/h (0 Bft) S-SW 211 0 min 0,000 mm 0,0 UV-I 95 W/m 9,7 C 10,3 C 0,0 km/h (0 Bft) 100,00 %
17.09.2017 09:38 10,4 C 15,0 C 96 % 1012,6 hPa 0,0 l/m 1,1 km/h (1 Bft) S-SW 211 0 min 0,000 mm 0,2 UV-I 112 W/m 9,8 C 10,4 C 3,2 km/h (1 Bft) 100,00 %
17.09.2017 09:40 10,4 C 15,0 C 96 % 1012,7 hPa 0,0 l/m 0,3 km/h (0 Bft) S-SW 211 0 min 0,000 mm 0,5 UV-I 122 W/m 9,8 C 10,4 C 1,6 km/h (1 Bft) 96,00 %
17.09.2017 09:42 10,4 C 15,0 C 96 % 1012,7 hPa 0,0 l/m 2,1 km/h (1 Bft) S-SW 211 0 min 0,000 mm 0,4 UV-I 114 W/m 9,8 C 10,4 C 3,2 km/h (1 Bft) 100,00 %
17.09.2017 09:44 10,4 C 15,0 C 96 % 1012,7 hPa 0,0 l/m 3,1 km/h (1 Bft) W-SW 237 0 min 0,000 mm 0,0 UV-I 98 W/m 9,8 C 10,4 C 4,8 km/h (1 Bft) 98,11 %
17.09.2017 09:46 10,4 C 15,0 C 96 % 1012,8 hPa 0,0 l/m 2,5 km/h (1 Bft) W-SW 237 0 min 0,000 mm 0,0 UV-I 97 W/m 9,8 C 10,4 C 4,8 km/h (1 Bft) 97,56 %
17.09.2017 09:48 10,4 C 15,0 C 96 % 1012,7 hPa 0,0 l/m 1,4 km/h (1 Bft) W-SW 237 0 min 0,000 mm 0,0 UV-I 106 W/m 9,8 C 10,4 C 3,2 km/h (1 Bft) 98,00 %
17.09.2017 09:50 10,4 C 15,0 C 96 % 1012,7 hPa 0,0 l/m 2,9 km/h (1 Bft) W-NW 289 0 min 0,000 mm 0,4 UV-I 116 W/m 9,8 C 10,4 C 4,8 km/h (1 Bft) 94,74 %
17.09.2017 09:52 10,6 C 15,0 C 96 % 1012,7 hPa 0,0 l/m 1,9 km/h (1 Bft) W 278 0 min 0,000 mm 0,5 UV-I 133 W/m 10,0 C 10,6 C 4,8 km/h (1 Bft) 96,36 %
17.09.2017 09:54 10,7 C 15,0 C 96 % 1012,6 hPa 0,0 l/m 0,1 km/h (0 Bft) W 278 0 min 0,000 mm 0,6 UV-I 153 W/m 10,1 C 10,7 C 1,6 km/h (1 Bft) 98,00 %
17.09.2017 09:56 10,7 C 15,0 C 97 % 1012,6 hPa 0,0 l/m 0,2 km/h (0 Bft) W 278 0 min 0,000 mm 0,6 UV-I 159 W/m 10,2 C 10,7 C 1,6 km/h (1 Bft) 97,37 %
17.09.2017 09:58 10,7 C 15,0 C 96 % 1012,6 hPa 0,0 l/m 2,0 km/h (1 Bft) SW 226 0 min 0,000 mm 0,6 UV-I 151 W/m 10,1 C 10,7 C 6,4 km/h (2 Bft) 98,00 %
17.09.2017 10:00 10,8 C 15,0 C 96 % 1012,6 hPa 0,0 l/m 5,0 km/h (1 Bft) W 274 0 min 0,051 mm 0,7 UV-I 171 W/m 10,2 C 10,8 C 8,0 km/h (2 Bft) 96,23 %
17.09.2017 10:02 10,7 C 15,0 C 96 % 1012,5 hPa 0,0 l/m 4,7 km/h (1 Bft) W-NW 287 0 min 0,000 mm 0,9 UV-I 220 W/m 10,1 C 10,7 C 6,4 km/h (2 Bft) 95,12 %
17.09.2017 10:04 10,7 C 15,0 C 96 % 1012,4 hPa 0,0 l/m 3,2 km/h (1 Bft) W-NW 288 0 min 0,000 mm 1,1 UV-I 273 W/m 10,1 C 10,7 C 6,4 km/h (2 Bft) 96,23 %
17.09.2017 10:06 10,8 C 15,0 C 96 % 1012,4 hPa 0,0 l/m 4,2 km/h (1 Bft) W 260 0 min 0,000 mm 1,2 UV-I 274 W/m 10,2 C 10,8 C 6,4 km/h (2 Bft) 97,44 %
17.09.2017 10:08 10,9 C 15,0 C 96 % 1012,5 hPa 0,0 l/m 1,2 km/h (1 Bft) W 260 0 min 0,000 mm 1,1 UV-I 263 W/m 10,3 C 10,9 C 3,2 km/h (1 Bft) 98,00 %
17.09.2017 10:10 11,0 C 15,0 C 96 % 1012,5 hPa 0,0 l/m 3,0 km/h (1 Bft) W-SW 242 0 min 0,000 mm 1,0 UV-I 222 W/m 10,4 C 11,0 C 6,4 km/h (2 Bft) 97,87 %
17.09.2017 10:12 10,9 C 15,0 C 96 % 1012,5 hPa 0,0 l/m 3,0 km/h (1 Bft) W-NW 291 0 min 0,000 mm 0,9 UV-I 214 W/m 10,3 C 10,9 C 4,8 km/h (1 Bft) 96,00 %
17.09.2017 10:14 10,9 C 15,0 C 96 % 1012,6 hPa 0,0 l/m 5,5 km/h (1 Bft) W-SW 242 0 min 0,000 mm 0,8 UV-I 182 W/m 10,3 C 10,9 C 8,0 km/h (2 Bft) 98,00 %
17.09.2017 10:16 11,0 C 15,0 C 96 % 1012,6 hPa 0,0 l/m 3,7 km/h (1 Bft) SW 223 0 min 0,000 mm 0,7 UV-I 147 W/m 10,4 C 11,0 C 6,4 km/h (2 Bft) 97,56 %
17.09.2017 10:18 11,0 C 15,0 C 95 % 1012,6 hPa 0,0 l/m 6,4 km/h (2 Bft) W 265 0 min 0,000 mm 0,6 UV-I 122 W/m 10,2 C 11,0 C 11,3 km/h (2 Bft) 98,11 %
17.09.2017 10:20 10,9 C 15,0 C 95 % 1012,7 hPa 0,0 l/m 5,7 km/h (1 Bft) W 262 0 min 0,000 mm 0,1 UV-I 86 W/m 10,1 C 10,9 C 9,7 km/h (2 Bft) 97,56 %
17.09.2017 10:22 10,9 C 15,0 C 95 % 1012,8 hPa 0,0 l/m 3,8 km/h (1 Bft) W-SW 242 0 min 0,000 mm 0,0 UV-I 58 W/m 10,1 C 10,9 C 8,0 km/h (2 Bft) 100,00 %
17.09.2017 10:24 10,9 C 15,0 C 95 % 1012,8 hPa 0,0 l/m 6,1 km/h (2 Bft) SW 233 0 min 0,000 mm 0,0 UV-I 43 W/m 10,1 C 10,9 C 8,0 km/h (2 Bft) 97,37 %
17.09.2017 10:26 10,9 C 15,0 C 95 % 1012,8 hPa 0,0 l/m 5,8 km/h (2 Bft) SW 232 0 min 0,000 mm 0,0 UV-I 34 W/m 10,1 C 10,9 C 9,7 km/h (2 Bft) 98,00 %
17.09.2017 10:28 10,9 C 15,0 C 95 % 1012,8 hPa 0,0 l/m 3,8 km/h (1 Bft) W-SW 252 0 min 0,000 mm 0,0 UV-I 33 W/m 10,1 C 10,9 C 6,4 km/h (2 Bft) 98,00 %
17.09.2017 10:30 10,8 C 15,0 C 95 % 1012,8 hPa 0,2 l/m 5,1 km/h (1 Bft) W 260 0 min 0,000 mm 0,0 UV-I 37 W/m 10,0 C 10,8 C 9,7 km/h (2 Bft) 100,00 %
17.09.2017 10:32 10,8 C 15,0 C 95 % 1012,7 hPa 0,0 l/m 5,1 km/h (1 Bft) W-SW 248 0 min 0,000 mm 0,0 UV-I 45 W/m 10,0 C 10,8 C 9,7 km/h (2 Bft) 100,00 %
17.09.2017 10:34 10,8 C 15,0 C 95 % 1012,7 hPa 0,0 l/m 3,2 km/h (1 Bft) W-SW 248 0 min 0,000 mm 0,0 UV-I 48 W/m 10,0 C 10,8 C 4,8 km/h (1 Bft) 98,00 %
17.09.2017 10:36 10,7 C 15,0 C 95 % 1012,7 hPa 0,0 l/m 4,7 km/h (1 Bft) W-SW 254 0 min 0,000 mm 0,0 UV-I 48 W/m 9,9 C 10,7 C 11,3 km/h (2 Bft) 100,00 %
17.09.2017 10:38 10,7 C 15,0 C 95 % 1012,7 hPa 0,0 l/m 6,5 km/h (2 Bft) W 261 0 min 0,000 mm 0,0 UV-I 43 W/m 9,9 C 10,7 C 11,3 km/h (2 Bft) 100,00 %
17.09.2017 10:40 10,7 C 15,0 C 95 % 1012,7 hPa 0,0 l/m 6,2 km/h (2 Bft) W-SW 244 0 min 0,000 mm 0,0 UV-I 41 W/m 9,9 C 10,7 C 8,0 km/h (2 Bft) 97,73 %
17.09.2017 10:42 10,7 C 15,0 C 95 % 1012,7 hPa 0,0 l/m 4,5 km/h (1 Bft) W-SW 244 0 min 0,000 mm 0,0 UV-I 40 W/m 9,9 C 10,7 C 6,4 km/h (2 Bft) 97,62 %
17.09.2017 10:44 10,6 C 15,0 C 95 % 1012,8 hPa 0,0 l/m 5,0 km/h (1 Bft) W-SW 248 0 min 0,000 mm 0,0 UV-I 40 W/m 9,8 C 10,6 C 6,4 km/h (2 Bft) 96,36 %
17.09.2017 10:46 10,6 C 15,0 C 95 % 1012,8 hPa 0,0 l/m 5,9 km/h (2 Bft) SW 229 0 min 0,000 mm 0,0 UV-I 40 W/m 9,8 C 10,6 C 8,0 km/h (2 Bft) 98,00 %
17.09.2017 10:48 10,6 C 15,0 C 95 % 1012,8 hPa 0,0 l/m 5,3 km/h (1 Bft) W-SW 238 0 min 0,000 mm 0,0 UV-I 40 W/m 9,8 C 10,6 C 9,7 km/h (2 Bft) 97,62 %
17.09.2017 10:50 10,6 C 15,0 C 95 % 1012,8 hPa 0,0 l/m 6,3 km/h (2 Bft) W-SW 252 0 min 0,000 mm 0,0 UV-I 38 W/m 9,8 C 10,6 C 12,9 km/h (3 Bft) 97,56 %
17.09.2017 10:52 10,6 C 15,0 C 95 % 1012,8 hPa 0,0 l/m 6,9 km/h (2 Bft) W 260 0 min 0,000 mm 0,0 UV-I 39 W/m 9,8 C 10,3 C 11,3 km/h (2 Bft) 97,87 %
17.09.2017 10:54 10,6 C 15,0 C 95 % 1012,7 hPa 0,0 l/m 6,7 km/h (2 Bft) W-SW 246 0 min 0,000 mm 0,0 UV-I 43 W/m 9,8 C 10,4 C 12,9 km/h (3 Bft) 98,00 %
17.09.2017 10:56 10,6 C 15,0 C 95 % 1012,7 hPa 0,0 l/m 7,0 km/h (2 Bft) W-SW 240 0 min 0,000 mm 0,0 UV-I 47 W/m 9,8 C 10,2 C 12,9 km/h (3 Bft) 97,37 %
17.09.2017 10:58 10,5 C 15,0 C 95 % 1012,7 hPa 0,0 l/m 5,9 km/h (2 Bft) W-SW 247 0 min 0,000 mm 0,0 UV-I 52 W/m 9,7 C 10,5 C 9,7 km/h (2 Bft) 98,11 %
17.09.2017 11:00 10,5 C 15,0 C 95 % 1012,6 hPa 0,0 l/m 5,5 km/h (1 Bft) W-SW 258 0 min 0,051 mm 0,0 UV-I 56 W/m 9,7 C 10,5 C 8,0 km/h (2 Bft) 96,43 %
17.09.2017 11:02 10,5 C 15,0 C 95 % 1012,6 hPa 0,0 l/m 5,9 km/h (2 Bft) W-SW 247 0 min 0,000 mm 0,0 UV-I 60 W/m 9,7 C 10,5 C 8,0 km/h (2 Bft) 97,37 %
17.09.2017 11:04 10,5 C 15,0 C 95 % 1012,5 hPa 0,0 l/m 6,5 km/h (2 Bft) SW 217 0 min 0,000 mm 0,0 UV-I 63 W/m 9,7 C 10,5 C 11,3 km/h (2 Bft) 98,11 %
17.09.2017 11:06 10,5 C 15,0 C 95 % 1012,5 hPa 0,0 l/m 8,6 km/h (2 Bft) W-SW 252 0 min 0,000 mm 0,0 UV-I 69 W/m 9,7 C 9,0 C 14,5 km/h (3 Bft) 93,62 %
17.09.2017 11:08 10,5 C 15,0 C 95 % 1012,5 hPa 0,0 l/m 7,7 km/h (2 Bft) W-SW 241 0 min 0,000 mm 0,0 UV-I 77 W/m 9,7 C 9,6 C 12,9 km/h (3 Bft) 100,00 %
17.09.2017 11:10 10,5 C 15,0 C 95 % 1012,4 hPa 0,0 l/m 9,3 km/h (2 Bft) W-SW 240 0 min 0,000 mm 0,0 UV-I 85 W/m 9,7 C 8,6 C 14,5 km/h (3 Bft) 92,86 %
17.09.2017 11:12 10,5 C 15,0 C 95 % 1012,4 hPa 0,0 l/m 6,1 km/h (2 Bft) W-SW 244 0 min 0,000 mm 0,4 UV-I 98 W/m 9,7 C 10,5 C 12,9 km/h (3 Bft) 97,56 %
17.09.2017 11:14 10,5 C 15,0 C 95 % 1012,2 hPa 0,0 l/m 5,8 km/h (2 Bft) SW 225 0 min 0,000 mm 0,6 UV-I 115 W/m 9,7 C 10,5 C 11,3 km/h (2 Bft) 98,00 %
17.09.2017 11:16 10,5 C 15,0 C 95 % 1012,2 hPa 0,0 l/m 4,5 km/h (1 Bft) W 267 0 min 0,000 mm 0,7 UV-I 140 W/m 9,7 C 10,5 C 9,7 km/h (2 Bft) 96,00 %
17.09.2017 11:18 10,6 C 15,0 C 96 % 1012,2 hPa 0,0 l/m 5,1 km/h (1 Bft) W 262 0 min 0,000 mm 0,7 UV-I 158 W/m 10,0 C 10,6 C 8,0 km/h (2 Bft) 97,73 %
17.09.2017 11:20 10,6 C 15,0 C 96 % 1012,1 hPa 0,0 l/m 3,9 km/h (1 Bft) W 272 0 min 0,000 mm 0,8 UV-I 169 W/m 10,0 C 10,6 C 6,4 km/h (2 Bft) 97,22 %
17.09.2017 11:22 10,7 C 15,0 C 96 % 1012,3 hPa 0,0 l/m 4,9 km/h (1 Bft) W-SW 249 0 min 0,000 mm 0,8 UV-I 173 W/m 10,1 C 10,7 C 11,3 km/h (2 Bft) 100,00 %
17.09.2017 11:24 10,7 C 15,0 C 96 % 1012,2 hPa 0,0 l/m 8,3 km/h (2 Bft) W 266 0 min 0,000 mm 0,8 UV-I 158 W/m 10,1 C 9,4 C 12,9 km/h (3 Bft) 94,00 %
17.09.2017 11:26 10,7 C 15,0 C 96 % 1012,2 hPa 0,0 l/m 7,8 km/h (2 Bft) W 275 0 min 0,000 mm 0,7 UV-I 135 W/m 10,1 C 9,7 C 14,5 km/h (3 Bft) 95,12 %
17.09.2017 11:28 10,7 C 15,0 C 96 % 1012,1 hPa 0,0 l/m 6,6 km/h (2 Bft) W-SW 252 0 min 0,000 mm 0,6 UV-I 122 W/m 10,1 C 10,6 C 14,5 km/h (3 Bft) 98,00 %
17.09.2017 11:30 10,7 C 15,0 C 96 % 1012,1 hPa 0,0 l/m 9,5 km/h (2 Bft) W 266 0 min 0,000 mm 0,6 UV-I 108 W/m 10,1 C 8,7 C 14,5 km/h (3 Bft) 96,43 %
17.09.2017 11:32 10,6 C 15,0 C 95 % 1012,0 hPa 0,0 l/m 13,0 km/h (3 Bft) W-SW 247 0 min 0,000 mm 0,6 UV-I 102 W/m 9,8 C 6,7 C 17,7 km/h (3 Bft) 92,11 %
17.09.2017 11:34 10,6 C 15,0 C 95 % 1012,0 hPa 0,0 l/m 11,3 km/h (2 Bft) W-SW 254 0 min 0,000 mm 0,6 UV-I 103 W/m 9,8 C 7,6 C 16,1 km/h (3 Bft) 94,34 %
17.09.2017 11:36 10,6 C 15,0 C 95 % 1012,0 hPa 0,0 l/m 8,7 km/h (2 Bft) W 267 0 min 0,000 mm 0,6 UV-I 107 W/m 9,8 C 9,0 C 17,7 km/h (3 Bft) 97,87 %
17.09.2017 11:38 10,6 C 15,0 C 95 % 1012,1 hPa 0,0 l/m 10,2 km/h (2 Bft) W 263 0 min 0,000 mm 0,6 UV-I 105 W/m 9,8 C 8,1 C 12,9 km/h (3 Bft) 94,00 %
17.09.2017 11:40 10,5 C 15,0 C 95 % 1012,1 hPa 0,0 l/m 8,3 km/h (2 Bft) W-NW 286 0 min 0,000 mm 0,6 UV-I 100 W/m 9,7 C 9,2 C 14,5 km/h (3 Bft) 89,47 %
17.09.2017 11:42 10,6 C 15,0 C 95 % 1012,1 hPa 0,0 l/m 9,2 km/h (2 Bft) W-SW 243 0 min 0,000 mm 0,5 UV-I 96 W/m 9,8 C 8,7 C 16,1 km/h (3 Bft) 98,11 %
17.09.2017 11:44 10,6 C 15,0 C 95 % 1012,1 hPa 0,0 l/m 9,5 km/h (2 Bft) W 259 0 min 0,000 mm 0,5 UV-I 92 W/m 9,8 C 8,5 C 14,5 km/h (3 Bft) 97,37 %
17.09.2017 11:46 10,5 C 15,0 C 95 % 1012,1 hPa 0,0 l/m 11,3 km/h (2 Bft) S 184 0 min 0,000 mm 0,1 UV-I 84 W/m 9,7 C 7,4 C 16,1 km/h (3 Bft) 92,45 %
17.09.2017 11:48 10,5 C 15,0 C 95 % 1012,2 hPa 0,0 l/m 6,8 km/h (2 Bft) W 276 0 min 0,000 mm 0,0 UV-I 77 W/m 9,7 C 10,2 C 12,9 km/h (3 Bft) 98,00 %
17.09.2017 11:50 10,5 C 15,0 C 95 % 1012,2 hPa 0,2 l/m 8,7 km/h (2 Bft) W 267 0 min 0,000 mm 0,0 UV-I 78 W/m 9,7 C 8,9 C 14,5 km/h (3 Bft) 97,14 %
17.09.2017 11:52 10,5 C 15,0 C 95 % 1012,2 hPa 0,0 l/m 6,5 km/h (2 Bft) W-SW 253 0 min 0,000 mm 0,0 UV-I 79 W/m 9,7 C 10,5 C 11,3 km/h (2 Bft) 98,21 %
17.09.2017 11:54 10,5 C 15,0 C 95 % 1012,2 hPa 0,0 l/m 5,0 km/h (1 Bft) W-SW 258 0 min 0,000 mm 0,5 UV-I 81 W/m 9,7 C 10,5 C 6,4 km/h (2 Bft) 95,74 %
17.09.2017 11:56 10,6 C 15,0 C 96 % 1012,2 hPa 0,0 l/m 7,8 km/h (2 Bft) W-SW 252 0 min 0,000 mm 0,5 UV-I 84 W/m 10,0 C 9,6 C 12,9 km/h (3 Bft) 93,94 %
17.09.2017 11:58 10,6 C 15,0 C 96 % 1012,2 hPa 0,0 l/m 6,1 km/h (2 Bft) W-SW 248 0 min 0,000 mm 0,5 UV-I 90 W/m 10,0 C 10,6 C 9,7 km/h (2 Bft) 98,18 %
17.09.2017 12:00 10,6 C 15,0 C 95 % 1012,2 hPa 0,0 l/m 7,0 km/h (2 Bft) W-SW 254 0 min 0,051 mm 0,5 UV-I 89 W/m 9,8 C 10,2 C 14,5 km/h (3 Bft) 97,44 %
17.09.2017 12:02 10,6 C 15,0 C 95 % 1012,2 hPa 0,0 l/m 5,9 km/h (2 Bft) W-SW 254 0 min 0,000 mm 0,5 UV-I 91 W/m 9,8 C 10,6 C 11,3 km/h (2 Bft) 96,23 %
17.09.2017 12:04 10,6 C 15,0 C 96 % 1012,2 hPa 0,0 l/m 4,8 km/h (1 Bft) W 265 0 min 0,000 mm 0,6 UV-I 99 W/m 10,0 C 10,6 C 9,7 km/h (2 Bft) 96,15 %
17.09.2017 12:06 10,6 C 15,0 C 95 % 1012,2 hPa 0,0 l/m 5,1 km/h (1 Bft) W 262 0 min 0,000 mm 0,6 UV-I 111 W/m 9,8 C 10,6 C 9,7 km/h (2 Bft) 96,00 %
17.09.2017 12:08 10,6 C 15,0 C 96 % 1012,1 hPa 0,2 l/m 3,7 km/h (1 Bft) W-SW 248 0 min 0,000 mm 0,8 UV-I 131 W/m 10,0 C 10,6 C 6,4 km/h (2 Bft) 95,24 %
17.09.2017 12:10 10,7 C 15,0 C 96 % 1012,2 hPa 0,0 l/m 4,0 km/h (1 Bft) SW 224 0 min 0,000 mm 0,9 UV-I 149 W/m 10,1 C 10,7 C 6,4 km/h (2 Bft) 96,23 %
17.09.2017 12:12 10,7 C 15,0 C 96 % 1012,1 hPa 0,0 l/m 6,9 km/h (2 Bft) W-SW 251 0 min 0,000 mm 1,0 UV-I 173 W/m 10,1 C 10,4 C 12,9 km/h (3 Bft) 97,37 %
17.09.2017 12:14 10,8 C 15,0 C 96 % 1012,1 hPa 0,0 l/m 10,7 km/h (2 Bft) W-SW 239 0 min 0,000 mm 1,1 UV-I 206 W/m 10,2 C 8,1 C 14,5 km/h (3 Bft) 96,23 %
17.09.2017 12:16 10,8 C 15,0 C 95 % 1012,1 hPa 0,0 l/m 7,9 km/h (2 Bft) W 265 0 min 0,000 mm 1,3 UV-I 247 W/m 10,0 C 9,8 C 14,5 km/h (3 Bft) 97,87 %
17.09.2017 12:18 10,8 C 15,0 C 95 % 1012,0 hPa 0,0 l/m 8,2 km/h (2 Bft) W-SW 258 0 min 0,000 mm 1,2 UV-I 230 W/m 10,0 C 9,6 C 11,3 km/h (2 Bft) 97,73 %
17.09.2017 12:20 10,9 C 15,0 C 96 % 1012,1 hPa 0,0 l/m 6,7 km/h (2 Bft) W-SW 238 0 min 0,000 mm 0,8 UV-I 158 W/m 10,3 C 10,7 C 11,3 km/h (2 Bft) 97,87 %
17.09.2017 12:22 10,9 C 15,0 C 96 % 1012,1 hPa 0,0 l/m 6,4 km/h (2 Bft) W-SW 245 0 min 0,000 mm 0,6 UV-I 114 W/m 10,3 C 10,9 C 8,0 km/h (2 Bft) 100,00 %
17.09.2017 12:24 10,9 C 15,0 C 95 % 1012,1 hPa 0,0 l/m 10,7 km/h (2 Bft) W-SW 246 0 min 0,000 mm 0,6 UV-I 105 W/m 10,1 C 8,2 C 17,7 km/h (3 Bft) 97,14 %
17.09.2017 12:26 10,9 C 15,0 C 95 % 1012,1 hPa 0,0 l/m 11,4 km/h (2 Bft) W 261 0 min 0,000 mm 0,6 UV-I 109 W/m 10,1 C 7,8 C 16,1 km/h (3 Bft) 100,00 %
17.09.2017 12:28 10,8 C 15,0 C 95 % 1012,1 hPa 0,0 l/m 9,1 km/h (2 Bft) W-SW 250 0 min 0,000 mm 0,6 UV-I 107 W/m 10,0 C 9,0 C 14,5 km/h (3 Bft) 100,00 %
17.09.2017 12:30 10,8 C 15,0 C 95 % 1012,1 hPa 0,0 l/m 7,9 km/h (2 Bft) W-SW 257 0 min 0,000 mm 0,6 UV-I 103 W/m 10,0 C 9,8 C 14,5 km/h (3 Bft) 97,56 %
17.09.2017 12:32 10,8 C 15,0 C 95 % 1012,2 hPa 0,0 l/m 12,3 km/h (3 Bft) W 260 0 min 0,000 mm 0,7 UV-I 112 W/m 10,0 C 7,3 C 16,1 km/h (3 Bft) 98,46 %
17.09.2017 12:34 10,7 C 15,0 C 95 % 1012,1 hPa 0,0 l/m 8,5 km/h (2 Bft) W-SW 257 0 min 0,000 mm 0,7 UV-I 113 W/m 9,9 C 9,3 C 12,9 km/h (3 Bft) 100,00 %
17.09.2017 12:36 10,7 C 15,0 C 95 % 1012,1 hPa 0,0 l/m 9,2 km/h (2 Bft) W-SW 258 0 min 0,000 mm 0,6 UV-I 107 W/m 9,9 C 8,8 C 14,5 km/h (3 Bft) 100,00 %
17.09.2017 12:38 10,7 C 15,0 C 95 % 1012,1 hPa 0,0 l/m 9,6 km/h (2 Bft) SW 223 0 min 0,000 mm 0,6 UV-I 105 W/m 9,9 C 8,6 C 16,1 km/h (3 Bft) 97,87 %
17.09.2017 12:40 10,7 C 15,0 C 95 % 1012,1 hPa 0,0 l/m 8,8 km/h (2 Bft) W-SW 238 0 min 0,000 mm 0,6 UV-I 108 W/m 9,9 C 9,1 C 14,5 km/h (3 Bft) 100,00 %
17.09.2017 12:42 10,7 C 15,0 C 95 % 1012,1 hPa 0,0 l/m 7,5 km/h (2 Bft) W-NW 296 0 min 0,000 mm 0,6 UV-I 111 W/m 9,9 C 9,9 C 12,9 km/h (3 Bft) 97,73 %
17.09.2017 12:44 10,8 C 15,0 C 95 % 1012,1 hPa 0,0 l/m 10,6 km/h (2 Bft) W 266 0 min 0,000 mm 0,7 UV-I 115 W/m 10,0 C 8,2 C 16,1 km/h (3 Bft) 97,62 %
17.09.2017 12:46 10,7 C 15,0 C 95 % 1012,1 hPa 0,0 l/m 9,7 km/h (2 Bft) SW 236 0 min 0,000 mm 0,6 UV-I 113 W/m 9,9 C 8,5 C 14,5 km/h (3 Bft) 100,00 %
17.09.2017 12:48 10,7 C 15,0 C 95 % 1012,0 hPa 0,0 l/m 11,0 km/h (2 Bft) W 263 0 min 0,000 mm 0,7 UV-I 116 W/m 9,9 C 7,8 C 17,7 km/h (3 Bft) 98,11 %
17.09.2017 12:50 10,7 C 15,0 C 95 % 1012,1 hPa 0,0 l/m 8,4 km/h (2 Bft) W 260 0 min 0,000 mm 0,7 UV-I 112 W/m 9,9 C 9,3 C 16,1 km/h (3 Bft) 100,00 %
17.09.2017 12:52 10,8 C 15,0 C 95 % 1012,1 hPa 0,0 l/m 10,7 km/h (2 Bft) W-SW 251 0 min 0,000 mm 0,7 UV-I 119 W/m 10,0 C 8,1 C 17,7 km/h (3 Bft) 100,00 %
17.09.2017 12:54 10,8 C 15,0 C 95 % 1012,0 hPa 0,0 l/m 11,3 km/h (2 Bft) W-SW 249 0 min 0,000 mm 0,7 UV-I 121 W/m 10,0 C 7,8 C 17,7 km/h (3 Bft) 97,56 %
17.09.2017 12:56 10,8 C 15,0 C 95 % 1012,1 hPa 0,0 l/m 10,1 km/h (2 Bft) SW 232 0 min 0,000 mm 0,7 UV-I 120 W/m 10,0 C 8,4 C 17,7 km/h (3 Bft) 98,11 %
17.09.2017 12:58 10,8 C 15,0 C 95 % 1012,1 hPa 0,0 l/m 7,0 km/h (2 Bft) W-SW 252 0 min 0,000 mm 0,7 UV-I 119 W/m 10,0 C 10,4 C 17,7 km/h (3 Bft) 100,00 %
17.09.2017 13:00 10,8 C 15,0 C 95 % 1012,1 hPa 0,0 l/m 11,8 km/h (2 Bft) W-SW 246 0 min 0,076 mm 0,7 UV-I 114 W/m 10,0 C 7,5 C 16,1 km/h (3 Bft) 100,00 %
17.09.2017 13:02 10,8 C 15,0 C 95 % 1012,1 hPa 0,0 l/m 10,4 km/h (2 Bft) W-SW 256 0 min 0,000 mm 0,6 UV-I 109 W/m 10,0 C 8,3 C 14,5 km/h (3 Bft) 96,77 %
17.09.2017 13:04 10,8 C 15,0 C 95 % 1012,0 hPa 0,0 l/m 7,9 km/h (2 Bft) W 265 0 min 0,000 mm 0,6 UV-I 109 W/m 10,0 C 9,8 C 14,5 km/h (3 Bft) 97,37 %
17.09.2017 13:06 10,8 C 15,0 C 95 % 1012,0 hPa 0,0 l/m 7,8 km/h (2 Bft) SW 236 0 min 0,000 mm 0,7 UV-I 111 W/m 10,0 C 9,8 C 12,9 km/h (3 Bft) 100,00 %
17.09.2017 13:08 10,8 C 15,0 C 94 % 1012,1 hPa 0,0 l/m 8,4 km/h (2 Bft) W-NW 283 0 min 0,000 mm 0,7 UV-I 117 W/m 9,9 C 9,4 C 14,5 km/h (3 Bft) 100,00 %
17.09.2017 13:10 10,8 C 15,0 C 94 % 1012,0 hPa 0,0 l/m 9,5 km/h (2 Bft) W 267 0 min 0,000 mm 0,7 UV-I 122 W/m 9,9 C 8,8 C 16,1 km/h (3 Bft) 100,00 %
17.09.2017 13:12 10,8 C 15,0 C 94 % 1012,1 hPa 0,0 l/m 11,1 km/h (2 Bft) SW 236 0 min 0,000 mm 0,7 UV-I 121 W/m 9,9 C 7,9 C 17,7 km/h (3 Bft) 100,00 %
17.09.2017 13:14 10,8 C 15,0 C 94 % 1012,1 hPa 0,0 l/m 8,9 km/h (2 Bft) SW 215 0 min 0,000 mm 0,7 UV-I 119 W/m 9,9 C 9,1 C 14,5 km/h (3 Bft) 100,00 %
17.09.2017 13:16 10,8 C 15,0 C 94 % 1012,2 hPa 0,0 l/m 5,4 km/h (1 Bft) W-SW 256 0 min 0,000 mm 0,6 UV-I 113 W/m 9,9 C 10,8 C 11,3 km/h (2 Bft) 100,00 %
17.09.2017 13:18 10,9 C 15,0 C 94 % 1012,2 hPa 0,0 l/m 6,3 km/h (2 Bft) W 261 0 min 0,000 mm 0,6 UV-I 109 W/m 10,0 C 10,9 C 11,3 km/h (2 Bft) 100,00 %
17.09.2017 13:20 10,9 C 15,0 C 94 % 1012,3 hPa 0,0 l/m 10,3 km/h (2 Bft) S 182 0 min 0,000 mm 0,6 UV-I 105 W/m 10,0 C 8,4 C 16,1 km/h (3 Bft) 97,44 %
17.09.2017 13:22 10,9 C 15,0 C 94 % 1012,3 hPa 0,0 l/m 9,7 km/h (2 Bft) SW 227 0 min 0,000 mm 0,6 UV-I 98 W/m 10,0 C 8,8 C 16,1 km/h (3 Bft) 100,00 %
17.09.2017 13:24 10,9 C 15,0 C 94 % 1012,3 hPa 0,0 l/m 10,0 km/h (2 Bft) SW 229 0 min 0,000 mm 0,5 UV-I 91 W/m 10,0 C 8,6 C 16,1 km/h (3 Bft) 100,00 %
17.09.2017 13:26 10,9 C 15,0 C 94 % 1012,3 hPa 0,0 l/m 9,8 km/h (2 Bft) W-SW 241 0 min 0,000 mm 0,5 UV-I 94 W/m 10,0 C 8,7 C 16,1 km/h (3 Bft) 98,00 %
17.09.2017 13:28 10,9 C 15,0 C 94 % 1012,3 hPa 0,0 l/m 7,4 km/h (2 Bft) W-SW 242 0 min 0,000 mm 0,6 UV-I 98 W/m 10,0 C 10,2 C 14,5 km/h (3 Bft) 100,00 %
17.09.2017 13:30 10,9 C 15,0 C 94 % 1012,3 hPa 0,0 l/m 6,6 km/h (2 Bft) W-SW 237 0 min 0,000 mm 0,6 UV-I 100 W/m 10,0 C 10,8 C 11,3 km/h (2 Bft) 100,00 %
17.09.2017 13:32 11,0 C 15,0 C 95 % 1012,4 hPa 0,0 l/m 4,9 km/h (1 Bft) SW 223 0 min 0,000 mm 0,6 UV-I 100 W/m 10,2 C 11,0 C 9,7 km/h (2 Bft) 96,00 %
17.09.2017 13:34 11,1 C 15,0 C 94 % 1012,3 hPa 0,0 l/m 9,7 km/h (2 Bft) SW 217 0 min 0,000 mm 0,6 UV-I 102 W/m 10,2 C 9,0 C 14,5 km/h (3 Bft) 100,00 %
17.09.2017 13:36 11,1 C 15,0 C 94 % 1012,4 hPa 0,0 l/m 9,2 km/h (2 Bft) SW 228 0 min 0,000 mm 0,6 UV-I 103 W/m 10,2 C 9,3 C 12,9 km/h (3 Bft) 96,55 %
17.09.2017 13:38 11,1 C 15,0 C 94 % 1012,4 hPa 0,0 l/m 8,9 km/h (2 Bft) SW 217 0 min 0,000 mm 0,6 UV-I 106 W/m 10,2 C 9,4 C 11,3 km/h (2 Bft) 100,00 %
17.09.2017 13:40 11,1 C 15,0 C 94 % 1012,4 hPa 0,0 l/m 7,3 km/h (2 Bft) SW 215 0 min 0,000 mm 0,6 UV-I 107 W/m 10,2 C 10,5 C 11,3 km/h (2 Bft) 96,23 %
17.09.2017 13:42 11,1 C 15,0 C 94 % 1012,4 hPa 0,0 l/m 7,4 km/h (2 Bft) S-SW 209 0 min 0,000 mm 0,6 UV-I 109 W/m 10,2 C 10,4 C 14,5 km/h (3 Bft) 100,00 %
17.09.2017 13:44 11,2 C 15,0 C 94 % 1012,4 hPa 0,0 l/m 8,3 km/h (2 Bft) SW 227 0 min 0,000 mm 0,6 UV-I 119 W/m 10,3 C 9,9 C 16,1 km/h (3 Bft) 97,62 %
17.09.2017 13:46 11,2 C 15,0 C 94 % 1012,4 hPa 0,0 l/m 8,1 km/h (2 Bft) SW 225 0 min 0,000 mm 0,8 UV-I 136 W/m 10,3 C 10,0 C 14,5 km/h (3 Bft) 96,00 %
17.09.2017 13:48 11,2 C 15,0 C 93 % 1012,4 hPa 0,0 l/m 9,5 km/h (2 Bft) W-SW 251 0 min 0,000 mm 0,9 UV-I 164 W/m 10,1 C 9,2 C 12,9 km/h (3 Bft) 94,74 %
17.09.2017 13:50 11,3 C 15,0 C 94 % 1012,3 hPa 0,0 l/m 8,1 km/h (2 Bft) W-SW 238 0 min 0,000 mm 1,0 UV-I 196 W/m 10,4 C 10,2 C 14,5 km/h (3 Bft) 96,00 %
17.09.2017 13:52 11,3 C 15,0 C 93 % 1012,3 hPa 0,0 l/m 9,7 km/h (2 Bft) S 182 0 min 0,000 mm 1,2 UV-I 218 W/m 10,2 C 9,2 C 14,5 km/h (3 Bft) 95,74 %
17.09.2017 13:54 11,4 C 15,0 C 93 % 1012,3 hPa 0,0 l/m 11,1 km/h (2 Bft) W-SW 252 0 min 0,000 mm 1,3 UV-I 242 W/m 10,3 C 8,6 C 17,7 km/h (3 Bft) 97,73 %
17.09.2017 13:56 11,4 C 15,0 C 93 % 1012,3 hPa 0,0 l/m 9,9 km/h (2 Bft) W-SW 249 0 min 0,000 mm 1,3 UV-I 257 W/m 10,3 C 9,2 C 16,1 km/h (3 Bft) 96,00 %
17.09.2017 13:58 11,6 C 15,0 C 93 % 1012,3 hPa 0,0 l/m 6,5 km/h (2 Bft) SW 227 0 min 0,000 mm 1,4 UV-I 271 W/m 10,5 C 11,6 C 11,3 km/h (2 Bft) 97,62 %
17.09.2017 14:00 11,7 C 15,0 C 92 % 1012,3 hPa 0,0 l/m 12,4 km/h (3 Bft) W-SW 244 0 min 0,076 mm 1,5 UV-I 287 W/m 10,4 C 8,3 C 17,7 km/h (3 Bft) 96,15 %
17.09.2017 14:02 11,7 C 15,0 C 92 % 1012,3 hPa 0,0 l/m 13,8 km/h (3 Bft) S-SW 213 0 min 0,000 mm 1,5 UV-I 291 W/m 10,4 C 7,7 C 20,9 km/h (4 Bft) 96,00 %
17.09.2017 14:04 11,7 C 15,0 C 92 % 1012,3 hPa 0,0 l/m 13,8 km/h (3 Bft) SW 235 0 min 0,000 mm 1,4 UV-I 273 W/m 10,4 C 7,7 C 19,3 km/h (3 Bft) 100,00 %
17.09.2017 14:06 11,8 C 15,0 C 92 % 1012,3 hPa 0,0 l/m 10,5 km/h (2 Bft) W-SW 253 0 min 0,000 mm 1,3 UV-I 248 W/m 10,5 C 9,3 C 16,1 km/h (3 Bft) 97,37 %
17.09.2017 14:08 11,8 C 15,0 C 92 % 1012,3 hPa 0,0 l/m 10,2 km/h (2 Bft) S-SW 200 0 min 0,000 mm 1,3 UV-I 236 W/m 10,5 C 9,5 C 16,1 km/h (3 Bft) 96,23 %
17.09.2017 14:10 11,8 C 15,0 C 91 % 1012,2 hPa 0,0 l/m 7,8 km/h (2 Bft) SW 217 0 min 0,000 mm 1,3 UV-I 230 W/m 10,4 C 10,9 C 12,9 km/h (3 Bft) 98,21 %
17.09.2017 14:12 11,8 C 15,0 C 91 % 1012,2 hPa 0,0 l/m 12,6 km/h (3 Bft) W-SW 242 0 min 0,000 mm 1,3 UV-I 230 W/m 10,4 C 8,3 C 19,3 km/h (3 Bft) 93,18 %
17.09.2017 14:14 11,8 C 15,0 C 91 % 1012,3 hPa 0,0 l/m 10,1 km/h (2 Bft) W-SW 239 0 min 0,000 mm 1,3 UV-I 242 W/m 10,4 C 9,5 C 17,7 km/h (3 Bft) 96,00 %
17.09.2017 14:16 11,8 C 15,0 C 91 % 1012,2 hPa 0,0 l/m 12,2 km/h (2 Bft) SW 227 0 min 0,000 mm 1,4 UV-I 275 W/m 10,4 C 8,5 C 16,1 km/h (3 Bft) 97,56 %
17.09.2017 14:18 11,8 C 15,0 C 91 % 1012,2 hPa 0,0 l/m 10,4 km/h (2 Bft) S 173 0 min 0,000 mm 1,5 UV-I 306 W/m 10,4 C 9,4 C 16,1 km/h (3 Bft) 100,00 %
17.09.2017 14:20 11,8 C 15,0 C 91 % 1012,2 hPa 0,0 l/m 10,0 km/h (2 Bft) W-SW 243 0 min 0,000 mm 1,6 UV-I 335 W/m 10,4 C 9,6 C 16,1 km/h (3 Bft) 100,00 %
17.09.2017 14:22 11,9 C 15,0 C 90 % 1012,2 hPa 0,0 l/m 11,4 km/h (2 Bft) S 179 2 min 0,000 mm 1,7 UV-I 389 W/m 10,3 C 9,0 C 17,7 km/h (3 Bft) 100,00 %
17.09.2017 14:24 12,1 C 15,0 C 90 % 1012,2 hPa 0,0 l/m 9,3 km/h (2 Bft) SW 221 2 min 0,000 mm 1,7 UV-I 361 W/m 10,5 C 10,3 C 16,1 km/h (3 Bft) 98,00 %
17.09.2017 14:26 12,2 C 15,0 C 91 % 1012,2 hPa 0,0 l/m 8,7 km/h (2 Bft) S-SW 209 0 min 0,000 mm 1,5 UV-I 314 W/m 10,8 C 10,7 C 16,1 km/h (3 Bft) 97,37 %
17.09.2017 14:28 12,2 C 15,0 C 90 % 1012,2 hPa 0,0 l/m 10,3 km/h (2 Bft) S-SW 205 0 min 0,000 mm 1,5 UV-I 302 W/m 10,6 C 9,9 C 19,3 km/h (3 Bft) 100,00 %
17.09.2017 14:30 12,2 C 15,0 C 89 % 1012,2 hPa 0,0 l/m 14,2 km/h (3 Bft) W 259 0 min 0,000 mm 1,4 UV-I 290 W/m 10,4 C 8,1 C 22,5 km/h (4 Bft) 100,00 %
17.09.2017 14:32 12,2 C 15,0 C 89 % 1012,2 hPa 0,0 l/m 12,1 km/h (2 Bft) SW 217 0 min 0,000 mm 1,3 UV-I 283 W/m 10,4 C 9,0 C 17,7 km/h (3 Bft) 98,18 %
17.09.2017 14:34 12,1 C 15,0 C 90 % 1012,2 hPa 0,0 l/m 10,2 km/h (2 Bft) SW 215 0 min 0,000 mm 1,3 UV-I 278 W/m 10,5 C 9,8 C 19,3 km/h (3 Bft) 97,73 %
17.09.2017 14:36 12,2 C 15,0 C 91 % 1012,1 hPa 0,0 l/m 9,3 km/h (2 Bft) S-SW 192 0 min 0,000 mm 1,3 UV-I 266 W/m 10,8 C 10,4 C 14,5 km/h (3 Bft) 100,00 %
17.09.2017 14:38 12,2 C 15,0 C 89 % 1012,1 hPa 0,0 l/m 11,0 km/h (2 Bft) S-SW 211 0 min 0,000 mm 1,2 UV-I 253 W/m 10,4 C 9,5 C 17,7 km/h (3 Bft) 96,23 %
17.09.2017 14:40 12,2 C 15,0 C 89 % 1012,1 hPa 0,0 l/m 13,5 km/h (3 Bft) S-SW 194 0 min 0,000 mm 1,1 UV-I 243 W/m 10,4 C 8,4 C 17,7 km/h (3 Bft) 96,15 %
17.09.2017 14:42 12,2 C 15,0 C 88 % 1012,2 hPa 0,0 l/m 13,7 km/h (3 Bft) W-SW 246 0 min 0,000 mm 1,2 UV-I 247 W/m 10,3 C 8,3 C 19,3 km/h (3 Bft) 95,24 %
17.09.2017 14:44 12,2 C 15,0 C 88 % 1012,2 hPa 0,0 l/m 9,6 km/h (2 Bft) SW 232 0 min 0,000 mm 1,2 UV-I 263 W/m 10,3 C 10,2 C 17,7 km/h (3 Bft) 97,87 %
17.09.2017 14:46 12,3 C 15,0 C 89 % 1012,2 hPa 0,0 l/m 9,2 km/h (2 Bft) SW 217 0 min 0,000 mm 1,3 UV-I 274 W/m 10,5 C 10,6 C 14,5 km/h (3 Bft) 94,34 %
17.09.2017 14:48 12,4 C 15,0 C 89 % 1012,1 hPa 0,0 l/m 10,0 km/h (2 Bft) SW 215 0 min 0,000 mm 1,3 UV-I 281 W/m 10,6 C 10,2 C 17,7 km/h (3 Bft) 95,12 %
17.09.2017 14:50 12,4 C 15,0 C 89 % 1012,0 hPa 0,0 l/m 10,6 km/h (2 Bft) W-SW 240 0 min 0,000 mm 1,3 UV-I 287 W/m 10,6 C 9,9 C 16,1 km/h (3 Bft) 96,23 %
17.09.2017 14:52 12,4 C 15,0 C 88 % 1012,1 hPa 0,0 l/m 12,8 km/h (3 Bft) S-SW 208 0 min 0,000 mm 1,3 UV-I 300 W/m 10,5 C 8,9 C 19,3 km/h (3 Bft) 92,11 %
17.09.2017 14:54 12,4 C 15,0 C 88 % 1012,1 hPa 0,0 l/m 13,9 km/h (3 Bft) SW 236 0 min 0,000 mm 1,3 UV-I 302 W/m 10,5 C 8,5 C 19,3 km/h (3 Bft) 97,73 %
17.09.2017 14:56 12,4 C 15,0 C 88 % 1012,1 hPa 0,0 l/m 11,5 km/h (2 Bft) S 174 0 min 0,000 mm 1,4 UV-I 329 W/m 10,5 C 9,5 C 17,7 km/h (3 Bft) 98,21 %
17.09.2017 14:58 12,4 C 15,0 C 89 % 1012,1 hPa 0,0 l/m 9,9 km/h (2 Bft) S-SW 203 2 min 0,000 mm 1,5 UV-I 366 W/m 10,6 C 10,3 C 14,5 km/h (3 Bft) 97,56 %
17.09.2017 15:00 12,6 C 15,0 C 89 % 1012,1 hPa 0,0 l/m 14,0 km/h (3 Bft) S-SW 202 2 min 0,000 mm 1,5 UV-I 375 W/m 10,8 C 8,7 C 20,9 km/h (4 Bft) 97,73 %
17.09.2017 15:02 12,6 C 15,0 C 88 % 1012,0 hPa 0,0 l/m 12,7 km/h (3 Bft) S 187 2 min 0,153 mm 1,5 UV-I 368 W/m 10,7 C 9,2 C 20,9 km/h (4 Bft) 96,23 %
17.09.2017 15:04 12,6 C 15,0 C 88 % 1012,0 hPa 0,0 l/m 13,9 km/h (3 Bft) S-SW 202 2 min 0,000 mm 1,4 UV-I 346 W/m 10,7 C 8,7 C 17,7 km/h (3 Bft) 96,00 %
17.09.2017 15:06 12,6 C 15,0 C 87 % 1012,0 hPa 0,0 l/m 15,8 km/h (3 Bft) W-SW 240 2 min 0,000 mm 1,4 UV-I 340 W/m 10,5 C 8,0 C 20,9 km/h (4 Bft) 97,87 %
17.09.2017 15:08 12,5 C 15,0 C 87 % 1012,0 hPa 0,0 l/m 11,3 km/h (2 Bft) SW 232 0 min 0,000 mm 1,4 UV-I 314 W/m 10,4 C 9,7 C 20,9 km/h (4 Bft) 97,37 %
17.09.2017 15:10 12,6 C 15,0 C 88 % 1012,1 hPa 0,0 l/m 10,6 km/h (2 Bft) S-SW 196 0 min 0,000 mm 1,3 UV-I 302 W/m 10,7 C 10,2 C 14,5 km/h (3 Bft) 98,21 %
17.09.2017 15:12 12,6 C 15,0 C 88 % 1012,1 hPa 0,0 l/m 13,3 km/h (3 Bft) S 187 0 min 0,000 mm 1,3 UV-I 297 W/m 10,7 C 9,0 C 17,7 km/h (3 Bft) 97,73 %
17.09.2017 15:14 12,6 C 15,0 C 87 % 1012,1 hPa 0,0 l/m 10,6 km/h (2 Bft) S 176 0 min 0,000 mm 1,3 UV-I 288 W/m 10,5 C 10,2 C 17,7 km/h (3 Bft) 97,87 %
17.09.2017 15:16 12,6 C 15,0 C 87 % 1012,1 hPa 0,0 l/m 12,5 km/h (3 Bft) S 191 0 min 0,000 mm 1,3 UV-I 284 W/m 10,5 C 9,3 C 16,1 km/h (3 Bft) 97,87 %
17.09.2017 15:18 12,6 C 15,0 C 86 % 1012,1 hPa 0,0 l/m 11,0 km/h (2 Bft) S-SW 206 0 min 0,000 mm 1,2 UV-I 280 W/m 10,3 C 10,0 C 19,3 km/h (3 Bft) 98,00 %
17.09.2017 15:20 12,6 C 15,0 C 86 % 1012,1 hPa 0,0 l/m 14,7 km/h (3 Bft) SW 234 0 min 0,000 mm 1,1 UV-I 267 W/m 10,3 C 8,4 C 22,5 km/h (4 Bft) 97,62 %
17.09.2017 15:22 12,5 C 15,0 C 87 % 1012,0 hPa 0,0 l/m 15,4 km/h (3 Bft) SW 220 0 min 0,000 mm 1,2 UV-I 273 W/m 10,4 C 8,0 C 22,5 km/h (4 Bft) 98,08 %
17.09.2017 15:24 12,5 C 15,0 C 87 % 1012,1 hPa 0,0 l/m 13,0 km/h (3 Bft) S-SW 211 0 min 0,000 mm 1,1 UV-I 266 W/m 10,4 C 9,0 C 22,5 km/h (4 Bft) 95,24 %
17.09.2017 15:26 12,5 C 15,0 C 87 % 1012,0 hPa 0,0 l/m 13,6 km/h (3 Bft) SW 219 0 min 0,000 mm 1,1 UV-I 264 W/m 10,4 C 8,7 C 20,9 km/h (4 Bft) 94,34 %
17.09.2017 15:28 12,5 C 15,0 C 87 % 1012,0 hPa 0,0 l/m 11,4 km/h (2 Bft) SW 234 0 min 0,000 mm 1,0 UV-I 254 W/m 10,4 C 9,7 C 19,3 km/h (3 Bft) 97,37 %
17.09.2017 15:30 12,5 C 15,0 C 87 % 1012,0 hPa 0,0 l/m 12,9 km/h (3 Bft) W-SW 238 0 min 0,000 mm 0,9 UV-I 244 W/m 10,4 C 9,0 C 22,5 km/h (4 Bft) 98,00 %
17.09.2017 15:32 12,4 C 15,0 C 87 % 1012,0 hPa 0,0 l/m 13,1 km/h (3 Bft) W-SW 248 0 min 0,000 mm 0,9 UV-I 240 W/m 10,3 C 8,8 C 19,3 km/h (3 Bft) 94,74 %
17.09.2017 15:34 12,5 C 15,0 C 88 % 1012,0 hPa 0,0 l/m 10,6 km/h (2 Bft) W 271 0 min 0,000 mm 0,9 UV-I 232 W/m 10,6 C 10,1 C 17,7 km/h (3 Bft) 98,36 %
17.09.2017 15:36 12,5 C 15,0 C 88 % 1012,1 hPa 0,0 l/m 7,9 km/h (2 Bft) W-SW 240 0 min 0,000 mm 0,8 UV-I 216 W/m 10,6 C 11,5 C 14,5 km/h (3 Bft) 94,74 %
17.09.2017 15:38 12,5 C 15,0 C 88 % 1012,0 hPa 0,0 l/m 11,4 km/h (2 Bft) W-SW 244 0 min 0,000 mm 0,8 UV-I 211 W/m 10,6 C 9,7 C 20,9 km/h (4 Bft) 95,45 %
17.09.2017 15:40 12,4 C 15,0 C 87 % 1012,0 hPa 0,0 l/m 13,5 km/h (3 Bft) W-SW 244 0 min 0,000 mm 0,8 UV-I 216 W/m 10,3 C 8,6 C 20,9 km/h (4 Bft) 94,74 %
17.09.2017 15:42 12,4 C 15,0 C 87 % 1012,0 hPa 0,0 l/m 11,7 km/h (2 Bft) W 270 0 min 0,000 mm 0,8 UV-I 229 W/m 10,3 C 9,4 C 20,9 km/h (4 Bft) 95,38 %
17.09.2017 15:44 12,4 C 15,0 C 88 % 1012,0 hPa 0,0 l/m 10,3 km/h (2 Bft) W 272 0 min 0,000 mm 0,9 UV-I 232 W/m 10,5 C 10,1 C 17,7 km/h (3 Bft) 92,11 %
17.09.2017 15:46 12,3 C 15,0 C 87 % 1011,9 hPa 0,0 l/m 11,6 km/h (2 Bft) W-SW 238 0 min 0,000 mm 0,9 UV-I 237 W/m 10,2 C 9,3 C 17,7 km/h (3 Bft) 94,64 %
17.09.2017 15:48 12,3 C 15,0 C 87 % 1011,9 hPa 0,0 l/m 12,5 km/h (3 Bft) W-SW 252 0 min 0,000 mm 0,9 UV-I 250 W/m 10,2 C 8,9 C 19,3 km/h (3 Bft) 95,45 %
17.09.2017 15:50 12,3 C 15,0 C 87 % 1011,9 hPa 0,0 l/m 10,8 km/h (2 Bft) W 259 0 min 0,000 mm 0,9 UV-I 279 W/m 10,2 C 9,7 C 22,5 km/h (4 Bft) 94,00 %
17.09.2017 15:52 12,4 C 15,0 C 87 % 1012,0 hPa 0,0 l/m 11,0 km/h (2 Bft) W-SW 240 2 min 0,000 mm 1,0 UV-I 298 W/m 10,3 C 9,7 C 17,7 km/h (3 Bft) 92,68 %
17.09.2017 15:54 12,5 C 15,0 C 88 % 1012,0 hPa 0,0 l/m 10,6 km/h (2 Bft) SW 226 2 min 0,000 mm 1,0 UV-I 309 W/m 10,6 C 10,1 C 14,5 km/h (3 Bft) 96,23 %
17.09.2017 15:56 12,6 C 15,0 C 88 % 1011,9 hPa 0,0 l/m 10,9 km/h (2 Bft) S 182 2 min 0,000 mm 1,0 UV-I 294 W/m 10,7 C 10,0 C 14,5 km/h (3 Bft) 94,74 %
17.09.2017 15:58 12,7 C 15,0 C 87 % 1012,0 hPa 0,0 l/m 9,9 km/h (2 Bft) SW 228 2 min 0,000 mm 1,0 UV-I 289 W/m 10,6 C 10,6 C 16,1 km/h (3 Bft) 94,00 %
17.09.2017 16:00 12,7 C 15,0 C 87 % 1012,0 hPa 0,0 l/m 11,6 km/h (2 Bft) S-SW 211 2 min 0,152 mm 1,0 UV-I 324 W/m 10,6 C 9,8 C 17,7 km/h (3 Bft) 98,00 %
17.09.2017 16:02 12,7 C 15,0 C 87 % 1012,0 hPa 0,0 l/m 11,3 km/h (2 Bft) SW 219 2 min 0,000 mm 1,0 UV-I 315 W/m 10,6 C 9,9 C 17,7 km/h (3 Bft) 97,87 %
17.09.2017 16:04 12,7 C 15,0 C 86 % 1012,0 hPa 0,0 l/m 10,3 km/h (2 Bft) W-SW 239 2 min 0,000 mm 1,0 UV-I 297 W/m 10,4 C 10,4 C 17,7 km/h (3 Bft) 94,44 %
17.09.2017 16:06 12,7 C 15,0 C 86 % 1012,0 hPa 0,0 l/m 8,8 km/h (2 Bft) S-SW 192 2 min 0,000 mm 1,0 UV-I 281 W/m 10,4 C 11,2 C 16,1 km/h (3 Bft) 98,00 %
17.09.2017 16:08 12,7 C 15,0 C 85 % 1012,0 hPa 0,0 l/m 9,0 km/h (2 Bft) SW 223 2 min 0,000 mm 1,0 UV-I 301 W/m 10,2 C 11,1 C 14,5 km/h (3 Bft) 98,21 %
17.09.2017 16:10 12,7 C 15,0 C 85 % 1011,9 hPa 0,0 l/m 8,7 km/h (2 Bft) SW 217 2 min 0,000 mm 1,0 UV-I 295 W/m 10,2 C 11,3 C 17,7 km/h (3 Bft) 100,00 %
17.09.2017 16:12 12,8 C 15,0 C 85 % 1011,9 hPa 0,0 l/m 8,8 km/h (2 Bft) SW 234 2 min 0,000 mm 1,0 UV-I 281 W/m 10,3 C 11,3 C 12,9 km/h (3 Bft) 100,00 %
17.09.2017 16:14 12,8 C 15,0 C 87 % 1011,9 hPa 0,0 l/m 6,5 km/h (2 Bft) SW 225 2 min 0,000 mm 1,0 UV-I 350 W/m 10,7 C 12,8 C 11,3 km/h (2 Bft) 100,00 %
17.09.2017 16:16 13,0 C 15,0 C 86 % 1011,9 hPa 0,0 l/m 7,6 km/h (2 Bft) SW 229 2 min 0,000 mm 1,1 UV-I 424 W/m 10,7 C 12,2 C 9,7 km/h (2 Bft) 100,00 %
17.09.2017 16:18 13,2 C 15,0 C 87 % 1012,0 hPa 0,0 l/m 8,9 km/h (2 Bft) SW 216 2 min 0,000 mm 1,1 UV-I 440 W/m 11,1 C 11,7 C 14,5 km/h (3 Bft) 100,00 %
17.09.2017 16:20 13,3 C 15,0 C 83 % 1011,9 hPa 0,0 l/m 11,4 km/h (2 Bft) SW 217 2 min 0,000 mm 1,1 UV-I 413 W/m 10,5 C 10,6 C 17,7 km/h (3 Bft) 96,43 %
17.09.2017 16:22 13,3 C 15,0 C 83 % 1012,0 hPa 0,0 l/m 13,0 km/h (3 Bft) SW 227 2 min 0,000 mm 1,0 UV-I 401 W/m 10,5 C 9,9 C 17,7 km/h (3 Bft) 100,00 %
17.09.2017 16:24 13,2 C 15,0 C 83 % 1012,0 hPa 0,0 l/m 11,0 km/h (2 Bft) SW 232 2 min 0,000 mm 0,9 UV-I 285 W/m 10,4 C 10,6 C 14,5 km/h (3 Bft) 97,73 %
17.09.2017 16:26 13,2 C 15,0 C 83 % 1012,0 hPa 0,0 l/m 8,8 km/h (2 Bft) S 186 2 min 0,000 mm 0,9 UV-I 260 W/m 10,4 C 11,8 C 11,3 km/h (2 Bft) 100,00 %
17.09.2017 16:28 13,1 C 15,0 C 85 % 1011,9 hPa 0,0 l/m 8,5 km/h (2 Bft) W-SW 247 0 min 0,000 mm 0,8 UV-I 213 W/m 10,6 C 11,8 C 12,9 km/h (3 Bft) 100,00 %
17.09.2017 16:30 13,2 C 15,0 C 85 % 1012,0 hPa 0,0 l/m 6,2 km/h (2 Bft) SW 234 0 min 0,000 mm 0,8 UV-I 215 W/m 10,7 C 13,2 C 11,3 km/h (2 Bft) 100,00 %
17.09.2017 16:32 13,1 C 15,0 C 85 % 1011,9 hPa 0,0 l/m 6,3 km/h (2 Bft) SW 229 2 min 0,000 mm 0,8 UV-I 260 W/m 10,6 C 13,1 C 8,0 km/h (2 Bft) 100,00 %
17.09.2017 16:34 13,2 C 15,0 C 86 % 1012,0 hPa 0,0 l/m 9,7 km/h (2 Bft) SW 214 2 min 0,000 mm 0,8 UV-I 284 W/m 10,9 C 11,3 C 16,1 km/h (3 Bft) 100,00 %
17.09.2017 16:36 13,3 C 15,0 C 86 % 1011,9 hPa 0,0 l/m 7,6 km/h (2 Bft) W-SW 238 2 min 0,000 mm 0,9 UV-I 356 W/m 11,0 C 12,6 C 12,9 km/h (3 Bft) 98,00 %
17.09.2017 16:38 13,3 C 15,0 C 84 % 1011,9 hPa 0,0 l/m 10,1 km/h (2 Bft) W-SW 254 2 min 0,000 mm 0,9 UV-I 422 W/m 10,7 C 11,2 C 22,5 km/h (4 Bft) 100,00 %
17.09.2017 16:40 13,4 C 15,0 C 83 % 1011,9 hPa 0,0 l/m 8,5 km/h (2 Bft) SW 222 2 min 0,000 mm 0,8 UV-I 319 W/m 10,6 C 12,1 C 12,9 km/h (3 Bft) 97,14 %
17.09.2017 16:42 13,4 C 15,0 C 84 % 1011,9 hPa 0,0 l/m 11,4 km/h (2 Bft) W 260 0 min 0,000 mm 0,7 UV-I 192 W/m 10,8 C 10,7 C 19,3 km/h (3 Bft) 100,00 %
17.09.2017 16:44 13,3 C 15,0 C 83 % 1011,9 hPa 0,0 l/m 9,6 km/h (2 Bft) W-SW 244 0 min 0,000 mm 0,7 UV-I 172 W/m 10,5 C 11,4 C 17,7 km/h (3 Bft) 100,00 %
17.09.2017 16:46 13,3 C 15,0 C 84 % 1012,0 hPa 0,0 l/m 7,8 km/h (2 Bft) W-SW 248 0 min 0,000 mm 0,6 UV-I 152 W/m 10,7 C 12,4 C 11,3 km/h (2 Bft) 97,73 %
17.09.2017 16:48 13,2 C 15,0 C 84 % 1011,9 hPa 0,0 l/m 13,8 km/h (3 Bft) W-SW 239 0 min 0,000 mm 0,5 UV-I 168 W/m 10,6 C 9,5 C 22,5 km/h (4 Bft) 100,00 %
17.09.2017 16:50 13,2 C 15,0 C 83 % 1011,8 hPa 0,0 l/m 12,0 km/h (2 Bft) W-SW 239 2 min 0,000 mm 0,5 UV-I 221 W/m 10,4 C 10,2 C 19,3 km/h (3 Bft) 98,59 %
17.09.2017 16:52 13,2 C 15,0 C 83 % 1011,8 hPa 0,0 l/m 10,0 km/h (2 Bft) W-SW 250 2 min 0,000 mm 0,6 UV-I 236 W/m 10,4 C 11,1 C 19,3 km/h (3 Bft) 100,00 %
17.09.2017 16:54 13,2 C 15,0 C 84 % 1011,8 hPa 0,0 l/m 8,9 km/h (2 Bft) W-SW 250 0 min 0,000 mm 0,6 UV-I 187 W/m 10,6 C 11,7 C 19,3 km/h (3 Bft) 100,00 %
17.09.2017 16:56 13,2 C 15,0 C 83 % 1011,8 hPa 0,0 l/m 15,3 km/h (3 Bft) W-SW 257 0 min 0,000 mm 0,5 UV-I 150 W/m 10,4 C 8,9 C 22,5 km/h (4 Bft) 97,87 %
17.09.2017 16:58 13,1 C 15,0 C 83 % 1011,9 hPa 0,0 l/m 12,9 km/h (3 Bft) S-SW 209 0 min 0,000 mm 0,3 UV-I 127 W/m 10,3 C 9,7 C 19,3 km/h (3 Bft) 100,00 %
17.09.2017 17:00 13,0 C 15,0 C 83 % 1011,9 hPa 0,0 l/m 15,7 km/h (3 Bft) W-SW 254 0 min 0,000 mm 0,0 UV-I 126 W/m 10,2 C 8,5 C 22,5 km/h (4 Bft) 100,00 %
17.09.2017 17:02 12,9 C 15,0 C 83 % 1012,0 hPa 0,0 l/m 11,6 km/h (2 Bft) W-SW 255 0 min 0,152 mm 0,0 UV-I 132 W/m 10,1 C 10,0 C 19,3 km/h (3 Bft) 100,00 %
17.09.2017 17:04 12,8 C 15,0 C 83 % 1012,0 hPa 0,0 l/m 13,0 km/h (3 Bft) SW 226 0 min 0,000 mm 0,0 UV-I 140 W/m 10,0 C 9,3 C 17,7 km/h (3 Bft) 97,56 %
17.09.2017 17:06 12,8 C 15,0 C 83 % 1012,0 hPa 0,0 l/m 11,8 km/h (2 Bft) W-SW 240 0 min 0,000 mm 0,0 UV-I 141 W/m 10,0 C 9,8 C 17,7 km/h (3 Bft) 100,00 %
17.09.2017 17:08 12,7 C 15,0 C 83 % 1012,1 hPa 0,0 l/m 11,0 km/h (2 Bft) W-SW 241 0 min 0,000 mm 0,0 UV-I 138 W/m 9,9 C 10,1 C 19,3 km/h (3 Bft) 100,00 %
17.09.2017 17:10 12,7 C 15,0 C 83 % 1012,1 hPa 0,0 l/m 12,7 km/h (3 Bft) W-SW 241 0 min 0,000 mm 0,0 UV-I 124 W/m 9,9 C 9,3 C 17,7 km/h (3 Bft) 100,00 %
17.09.2017 17:12 12,6 C 15,0 C 84 % 1012,1 hPa 0,0 l/m 11,6 km/h (2 Bft) W-SW 246 0 min 0,000 mm 0,0 UV-I 115 W/m 10,0 C 9,7 C 14,5 km/h (3 Bft) 100,00 %
17.09.2017 17:14 12,6 C 15,0 C 84 % 1012,1 hPa 0,0 l/m 10,2 km/h (2 Bft) W-SW 248 0 min 0,000 mm 0,0 UV-I 112 W/m 10,0 C 10,4 C 14,5 km/h (3 Bft) 98,11 %
17.09.2017 17:16 12,4 C 15,0 C 83 % 1012,1 hPa 0,0 l/m 11,4 km/h (2 Bft) W-SW 240 0 min 0,000 mm 0,0 UV-I 103 W/m 9,6 C 9,6 C 17,7 km/h (3 Bft) 100,00 %
17.09.2017 17:18 12,4 C 15,0 C 83 % 1012,2 hPa 0,0 l/m 10,9 km/h (2 Bft) W 279 0 min 0,000 mm 0,0 UV-I 87 W/m 9,6 C 9,8 C 20,9 km/h (4 Bft) 98,25 %
17.09.2017 17:20 12,3 C 15,0 C 83 % 1012,2 hPa 0,0 l/m 12,5 km/h (3 Bft) W-SW 240 0 min 0,000 mm 0,0 UV-I 69 W/m 9,5 C 8,9 C 19,3 km/h (3 Bft) 100,00 %
17.09.2017 17:22 12,2 C 15,0 C 83 % 1012,3 hPa 0,0 l/m 10,8 km/h (2 Bft) W 263 0 min 0,000 mm 0,0 UV-I 52 W/m 9,4 C 9,6 C 16,1 km/h (3 Bft) 100,00 %
17.09.2017 17:24 12,1 C 15,0 C 83 % 1012,3 hPa 0,0 l/m 11,6 km/h (2 Bft) W-SW 254 0 min 0,000 mm 0,0 UV-I 40 W/m 9,3 C 9,1 C 17,7 km/h (3 Bft) 100,00 %
17.09.2017 17:26 11,9 C 15,0 C 82 % 1012,3 hPa 0,0 l/m 13,8 km/h (3 Bft) W-SW 257 0 min 0,000 mm 0,0 UV-I 29 W/m 8,9 C 7,9 C 20,9 km/h (4 Bft) 100,00 %
17.09.2017 17:28 11,8 C 15,0 C 83 % 1012,3 hPa 0,0 l/m 16,3 km/h (3 Bft) SW 236 0 min 0,000 mm 0,0 UV-I 24 W/m 9,0 C 6,8 C 22,5 km/h (4 Bft) 96,00 %
17.09.2017 17:30 11,7 C 15,0 C 83 % 1012,4 hPa 0,0 l/m 9,5 km/h (2 Bft) SW 231 0 min 0,000 mm 0,0 UV-I 23 W/m 8,9 C 9,7 C 16,1 km/h (3 Bft) 97,56 %
17.09.2017 17:32 11,6 C 15,0 C 84 % 1012,4 hPa 0,0 l/m 11,8 km/h (2 Bft) W-SW 248 0 min 0,000 mm 0,0 UV-I 23 W/m 9,0 C 8,5 C 14,5 km/h (3 Bft) 96,23 %
17.09.2017 17:34 11,6 C 15,0 C 84 % 1012,4 hPa 0,0 l/m 10,0 km/h (2 Bft) W-SW 237 0 min 0,000 mm 0,0 UV-I 21 W/m 9,0 C 9,4 C 17,7 km/h (3 Bft) 97,37 %
17.09.2017 17:36 11,4 C 15,0 C 84 % 1012,4 hPa 0,0 l/m 8,0 km/h (2 Bft) W 279 0 min 0,000 mm 0,0 UV-I 21 W/m 8,8 C 10,3 C 11,3 km/h (2 Bft) 95,45 %
17.09.2017 17:38 11,4 C 15,0 C 84 % 1012,4 hPa 0,0 l/m 8,9 km/h (2 Bft) W-SW 237 0 min 0,000 mm 0,0 UV-I 22 W/m 8,8 C 9,8 C 12,9 km/h (3 Bft) 96,43 %
17.09.2017 17:40 11,3 C 15,0 C 85 % 1012,5 hPa 0,0 l/m 9,9 km/h (2 Bft) SW 225 0 min 0,000 mm 0,0 UV-I 25 W/m 8,9 C 9,1 C 14,5 km/h (3 Bft) 98,00 %
17.09.2017 17:42 11,3 C 15,0 C 85 % 1012,4 hPa 0,0 l/m 6,4 km/h (2 Bft) SW 217 0 min 0,000 mm 0,0 UV-I 28 W/m 8,9 C 11,3 C 11,3 km/h (2 Bft) 94,87 %
17.09.2017 17:44 11,2 C 15,0 C 86 % 1012,5 hPa 0,0 l/m 8,3 km/h (2 Bft) W 267 0 min 0,000 mm 0,0 UV-I 31 W/m 8,9 C 9,9 C 14,5 km/h (3 Bft) 98,11 %
17.09.2017 17:46 11,2 C 15,0 C 86 % 1012,5 hPa 0,0 l/m 9,7 km/h (2 Bft) SW 222 0 min 0,000 mm 0,0 UV-I 33 W/m 8,9 C 9,1 C 14,5 km/h (3 Bft) 97,37 %
17.09.2017 17:48 11,1 C 15,0 C 86 % 1012,5 hPa 0,0 l/m 7,4 km/h (2 Bft) SW 227 0 min 0,000 mm 0,0 UV-I 36 W/m 8,8 C 10,4 C 11,3 km/h (2 Bft) 97,73 %
17.09.2017 17:50 11,1 C 15,0 C 86 % 1012,5 hPa 0,0 l/m 8,4 km/h (2 Bft) W-SW 238 0 min 0,000 mm 0,0 UV-I 37 W/m 8,8 C 9,8 C 12,9 km/h (3 Bft) 96,43 %
17.09.2017 17:52 11,1 C 15,0 C 87 % 1012,5 hPa 0,0 l/m 8,6 km/h (2 Bft) SW 218 0 min 0,000 mm 0,0 UV-I 38 W/m 9,0 C 9,6 C 12,9 km/h (3 Bft) 98,00 %
17.09.2017 17:54 11,1 C 15,0 C 87 % 1012,4 hPa 0,0 l/m 8,6 km/h (2 Bft) W-SW 242 0 min 0,000 mm 0,0 UV-I 40 W/m 9,0 C 9,6 C 11,3 km/h (2 Bft) 97,44 %
17.09.2017 17:56 11,0 C 15,0 C 87 % 1012,5 hPa 0,0 l/m 8,9 km/h (2 Bft) SW 232 0 min 0,000 mm 0,0 UV-I 38 W/m 8,9 C 9,3 C 14,5 km/h (3 Bft) 97,87 %
17.09.2017 17:58 11,0 C 15,0 C 87 % 1012,4 hPa 0,0 l/m 8,9 km/h (2 Bft) SW 223 0 min 0,000 mm 0,0 UV-I 35 W/m 8,9 C 9,3 C 11,3 km/h (2 Bft) 98,00 %
17.09.2017 18:00 11,0 C 15,0 C 87 % 1012,5 hPa 0,0 l/m 7,9 km/h (2 Bft) W-SW 239 0 min 0,051 mm 0,0 UV-I 31 W/m 8,9 C 10,0 C 12,9 km/h (3 Bft) 96,15 %
17.09.2017 18:02 11,0 C 15,0 C 87 % 1012,5 hPa 0,0 l/m 7,8 km/h (2 Bft) W-SW 242 0 min 0,000 mm 0,0 UV-I 27 W/m 8,9 C 10,0 C 12,9 km/h (3 Bft) 100,00 %
17.09.2017 18:04 11,0 C 15,0 C 87 % 1012,5 hPa 0,0 l/m 8,7 km/h (2 Bft) W 259 0 min 0,000 mm 0,0 UV-I 25 W/m 8,9 C 9,5 C 14,5 km/h (3 Bft) 100,00 %
17.09.2017 18:06 11,0 C 15,0 C 88 % 1012,6 hPa 0,0 l/m 7,6 km/h (2 Bft) W-SW 239 0 min 0,000 mm 0,0 UV-I 23 W/m 9,1 C 10,2 C 11,3 km/h (2 Bft) 100,00 %
17.09.2017 18:08 11,0 C 15,0 C 88 % 1012,6 hPa 0,0 l/m 9,5 km/h (2 Bft) SW 217 0 min 0,000 mm 0,0 UV-I 20 W/m 9,1 C 9,0 C 14,5 km/h (3 Bft) 96,00 %
17.09.2017 18:10 11,0 C 15,0 C 88 % 1012,7 hPa 0,0 l/m 8,0 km/h (2 Bft) SW 232 0 min 0,000 mm 0,0 UV-I 18 W/m 9,1 C 9,9 C 12,9 km/h (3 Bft) 98,00 %
17.09.2017 18:12 11,0 C 15,0 C 88 % 1012,7 hPa 0,0 l/m 7,0 km/h (2 Bft) W-SW 247 0 min 0,000 mm 0,0 UV-I 16 W/m 9,1 C 10,6 C 9,7 km/h (2 Bft) 100,00 %
17.09.2017 18:14 10,9 C 15,0 C 88 % 1012,7 hPa 0,0 l/m 8,4 km/h (2 Bft) W-SW 237 0 min 0,000 mm 0,0 UV-I 16 W/m 9,0 C 9,5 C 14,5 km/h (3 Bft) 100,00 %
17.09.2017 18:16 10,9 C 15,0 C 88 % 1012,7 hPa 0,0 l/m 6,5 km/h (2 Bft) W-SW 254 0 min 0,000 mm 0,0 UV-I 16 W/m 9,0 C 10,9 C 11,3 km/h (2 Bft) 100,00 %
17.09.2017 18:18 10,9 C 15,0 C 88 % 1012,8 hPa 0,0 l/m 7,5 km/h (2 Bft) W-SW 244 0 min 0,000 mm 0,0 UV-I 13 W/m 9,0 C 10,1 C 12,9 km/h (3 Bft) 97,37 %
17.09.2017 18:20 10,9 C 15,0 C 88 % 1012,8 hPa 0,0 l/m 6,1 km/h (2 Bft) SW 221 0 min 0,000 mm 0,0 UV-I 12 W/m 9,0 C 10,9 C 11,3 km/h (2 Bft) 100,00 %
17.09.2017 18:22 10,9 C 15,0 C 88 % 1012,8 hPa 0,0 l/m 7,2 km/h (2 Bft) SW 232 0 min 0,000 mm 0,0 UV-I 13 W/m 9,0 C 10,3 C 11,3 km/h (2 Bft) 100,00 %
17.09.2017 18:24 10,9 C 15,0 C 88 % 1012,8 hPa 0,0 l/m 7,4 km/h (2 Bft) SW 229 0 min 0,000 mm 0,0 UV-I 16 W/m 9,0 C 10,2 C 11,3 km/h (2 Bft) 96,00 %
17.09.2017 18:26 10,9 C 15,0 C 88 % 1012,7 hPa 0,0 l/m 8,9 km/h (2 Bft) SW 232 0 min 0,000 mm 0,0 UV-I 23 W/m 9,0 C 9,2 C 17,7 km/h (3 Bft) 100,00 %
17.09.2017 18:28 10,9 C 15,0 C 88 % 1012,7 hPa 0,0 l/m 6,8 km/h (2 Bft) SW 224 0 min 0,000 mm 0,0 UV-I 30 W/m 9,0 C 10,6 C 9,7 km/h (2 Bft) 100,00 %
17.09.2017 18:30 10,9 C 15,0 C 88 % 1012,7 hPa 0,0 l/m 8,2 km/h (2 Bft) S-SW 207 0 min 0,000 mm 0,0 UV-I 35 W/m 9,0 C 9,7 C 14,5 km/h (3 Bft) 98,21 %
17.09.2017 18:32 10,9 C 15,0 C 87 % 1012,7 hPa 0,0 l/m 7,4 km/h (2 Bft) SW 229 0 min 0,000 mm 0,0 UV-I 39 W/m 8,8 C 10,2 C 14,5 km/h (3 Bft) 100,00 %
17.09.2017 18:34 10,9 C 15,0 C 87 % 1012,7 hPa 0,0 l/m 7,9 km/h (2 Bft) SW 224 0 min 0,000 mm 0,0 UV-I 37 W/m 8,8 C 9,9 C 12,9 km/h (3 Bft) 100,00 %
17.09.2017 18:36 10,9 C 15,0 C 87 % 1012,7 hPa 0,0 l/m 7,7 km/h (2 Bft) SW 229 0 min 0,000 mm 0,0 UV-I 33 W/m 8,8 C 10,0 C 11,3 km/h (2 Bft) 100,00 %
17.09.2017 18:38 10,9 C 15,0 C 87 % 1012,7 hPa 0,0 l/m 11,1 km/h (2 Bft) W-SW 248 0 min 0,000 mm 0,0 UV-I 30 W/m 8,8 C 8,0 C 16,1 km/h (3 Bft) 100,00 %
17.09.2017 18:40 11,0 C 15,0 C 87 % 1012,7 hPa 0,0 l/m 10,0 km/h (2 Bft) SW 233 0 min 0,000 mm 0,0 UV-I 24 W/m 8,9 C 8,7 C 16,1 km/h (3 Bft) 100,00 %
17.09.2017 18:42 11,0 C 15,0 C 87 % 1012,8 hPa 0,0 l/m 8,0 km/h (2 Bft) W-SW 237 0 min 0,000 mm 0,0 UV-I 18 W/m 8,9 C 9,9 C 12,9 km/h (3 Bft) 100,00 %
17.09.2017 18:44 11,0 C 15,0 C 87 % 1012,8 hPa 0,0 l/m 11,0 km/h (2 Bft) S-SW 195 0 min 0,000 mm 0,0 UV-I 13 W/m 8,9 C 8,2 C 14,5 km/h (3 Bft) 100,00 %
17.09.2017 18:46 10,9 C 15,0 C 87 % 1012,9 hPa 0,0 l/m 9,9 km/h (2 Bft) SW 222 0 min 0,000 mm 0,0 UV-I 10 W/m 8,8 C 8,6 C 12,9 km/h (3 Bft) 100,00 %
17.09.2017 18:48 11,0 C 15,0 C 87 % 1013,0 hPa 0,0 l/m 9,1 km/h (2 Bft) SW 230 0 min 0,000 mm 0,0 UV-I 7 W/m 8,9 C 9,2 C 17,7 km/h (3 Bft) 100,00 %
17.09.2017 18:50 11,0 C 15,0 C 87 % 1013,1 hPa 0,0 l/m 12,7 km/h (3 Bft) W 259 0 min 0,000 mm 0,0 UV-I 6 W/m 8,9 C 7,3 C 17,7 km/h (3 Bft) 100,00 %
17.09.2017 18:52 11,0 C 15,0 C 87 % 1013,2 hPa 0,0 l/m 8,1 km/h (2 Bft) W-SW 248 0 min 0,000 mm 0,0 UV-I 5 W/m 8,9 C 9,8 C 16,1 km/h (3 Bft) 100,00 %
17.09.2017 18:54 10,9 C 15,0 C 87 % 1013,3 hPa 0,4 l/m 10,6 km/h (2 Bft) W-NW 283 0 min 0,000 mm 0,0 UV-I 5 W/m 8,8 C 8,3 C 17,7 km/h (3 Bft) 100,00 %
17.09.2017 18:56 10,8 C 15,0 C 86 % 1013,3 hPa 0,8 l/m 6,7 km/h (2 Bft) W-NW 298 0 min 0,000 mm 0,0 UV-I 7 W/m 8,6 C 10,6 C 20,9 km/h (4 Bft) 100,00 %
17.09.2017 18:58 10,6 C 15,0 C 87 % 1013,4 hPa 0,4 l/m 5,1 km/h (1 Bft) W-SW 246 0 min 0,000 mm 0,0 UV-I 8 W/m 8,5 C 10,6 C 12,9 km/h (3 Bft) 100,00 %
17.09.2017 19:00 10,4 C 15,0 C 87 % 1013,3 hPa 0,2 l/m 7,0 km/h (2 Bft) W-SW 257 0 min 0,026 mm 0,0 UV-I 9 W/m 8,3 C 10,0 C 11,3 km/h (2 Bft) 97,73 %
17.09.2017 19:02 10,2 C 15,0 C 88 % 1013,4 hPa 0,0 l/m 6,3 km/h (2 Bft) W-SW 243 0 min 0,000 mm 0,0 UV-I 9 W/m 8,3 C 10,2 C 11,3 km/h (2 Bft) 96,23 %
17.09.2017 19:04 10,0 C 15,0 C 88 % 1013,4 hPa 0,4 l/m 5,9 km/h (2 Bft) W 261 0 min 0,000 mm 0,0 UV-I 7 W/m 8,1 C 10,0 C 11,3 km/h (2 Bft) 98,00 %
17.09.2017 19:06 9,9 C 15,0 C 89 % 1013,4 hPa 0,0 l/m 4,2 km/h (1 Bft) W-SW 252 0 min 0,000 mm 0,0 UV-I 7 W/m 8,2 C 9,9 C 6,4 km/h (2 Bft) 97,37 %
17.09.2017 19:08 9,7 C 15,0 C 89 % 1013,4 hPa 0,2 l/m 4,1 km/h (1 Bft) SW 234 0 min 0,000 mm 0,0 UV-I 6 W/m 8,0 C 9,7 C 8,0 km/h (2 Bft) 98,11 %
17.09.2017 19:10 9,7 C 15,0 C 90 % 1013,3 hPa 0,0 l/m 5,3 km/h (1 Bft) SW 230 0 min 0,000 mm 0,0 UV-I 5 W/m 8,1 C 9,7 C 8,0 km/h (2 Bft) 96,30 %
17.09.2017 19:12 9,6 C 15,0 C 90 % 1013,4 hPa 0,0 l/m 5,7 km/h (1 Bft) SW 214 0 min 0,000 mm 0,0 UV-I 5 W/m 8,0 C 9,6 C 8,0 km/h (2 Bft) 98,21 %
17.09.2017 19:14 9,5 C 15,0 C 91 % 1013,4 hPa 0,2 l/m 4,4 km/h (1 Bft) SW 220 0 min 0,000 mm 0,0 UV-I 2 W/m 8,1 C 9,5 C 6,4 km/h (2 Bft) 98,11 %
17.09.2017 19:16 9,4 C 15,0 C 91 % 1013,4 hPa 0,0 l/m 5,1 km/h (1 Bft) SW 217 0 min 0,000 mm 0,0 UV-I 0 W/m 8,0 C 9,4 C 9,7 km/h (2 Bft) 98,08 %
17.09.2017 19:18 9,4 C 15,0 C 91 % 1013,4 hPa 0,0 l/m 6,0 km/h (2 Bft) S-SW 203 0 min 0,000 mm 0,0 UV-I 0 W/m 8,0 C 9,4 C 8,0 km/h (2 Bft) 97,44 %
17.09.2017 19:20 9,3 C 15,0 C 91 % 1013,4 hPa 0,0 l/m 4,9 km/h (1 Bft) S-SW 197 0 min 0,000 mm 0,0 UV-I 0 W/m 7,9 C 9,3 C 8,0 km/h (2 Bft) 98,00 %
17.09.2017 19:22 9,3 C 15,0 C 91 % 1013,4 hPa 0,0 l/m 4,9 km/h (1 Bft) S-SW 197 0 min 0,000 mm 0,0 UV-I 0 W/m 7,9 C 9,3 C 8,0 km/h (2 Bft) 96,00 %
17.09.2017 19:24 9,2 C 15,0 C 92 % 1013,4 hPa 0,0 l/m 4,1 km/h (1 Bft) S-SW 196 0 min 0,000 mm 0,0 UV-I 0 W/m 8,0 C 9,2 C 6,4 km/h (2 Bft) 97,56 %
17.09.2017 19:26 9,2 C 15,0 C 92 % 1013,5 hPa 0,0 l/m 4,0 km/h (1 Bft) S-SW 198 0 min 0,000 mm 0,0 UV-I 0 W/m 8,0 C 9,2 C 8,0 km/h (2 Bft) 98,11 %
17.09.2017 19:28 9,2 C 15,0 C 92 % 1013,5 hPa 0,0 l/m 5,6 km/h (1 Bft) S-SW 205 0 min 0,000 mm 0,0 UV-I 0 W/m 8,0 C 9,2 C 9,7 km/h (2 Bft) 96,00 %
17.09.2017 19:30 9,2 C 15,0 C 92 % 1013,5 hPa 0,0 l/m 3,4 km/h (1 Bft) S-SW 205 0 min 0,000 mm 0,0 UV-I 0 W/m 8,0 C 9,2 C 6,4 km/h (2 Bft) 97,87 %
17.09.2017 19:32 9,2 C 15,0 C 92 % 1013,5 hPa 0,0 l/m 2,9 km/h (1 Bft) S-SW 205 0 min 0,000 mm 0,0 UV-I 0 W/m 8,0 C 9,2 C 4,8 km/h (1 Bft) 94,74 %
17.09.2017 19:34 9,2 C 15,0 C 92 % 1013,5 hPa 0,0 l/m 2,9 km/h (1 Bft) S-SW 204 0 min 0,000 mm 0,0 UV-I 0 W/m 8,0 C 9,2 C 4,8 km/h (1 Bft) 94,00 %
17.09.2017 19:36 9,2 C 15,0 C 92 % 1013,5 hPa 0,0 l/m 3,8 km/h (1 Bft) S-SW 204 0 min 0,000 mm 0,0 UV-I 0 W/m 8,0 C 9,2 C 4,8 km/h (1 Bft) 95,74 %
17.09.2017 19:38 9,2 C 15,0 C 93 % 1013,5 hPa 0,0 l/m 3,0 km/h (1 Bft) S-SW 204 0 min 0,000 mm 0,0 UV-I 0 W/m 8,1 C 9,2 C 4,8 km/h (1 Bft) 95,74 %
17.09.2017 19:40 9,2 C 15,0 C 93 % 1013,5 hPa 0,0 l/m 4,2 km/h (1 Bft) S-SW 202 0 min 0,000 mm 0,0 UV-I 0 W/m 8,1 C 9,2 C 6,4 km/h (2 Bft) 93,62 %
17.09.2017 19:42 9,2 C 15,0 C 93 % 1013,5 hPa 0,0 l/m 4,7 km/h (1 Bft) S-SW 202 0 min 0,000 mm 0,0 UV-I 0 W/m 8,1 C 9,2 C 8,0 km/h (2 Bft) 96,00 %
17.09.2017 19:44 9,2 C 15,0 C 93 % 1013,5 hPa 0,0 l/m 5,4 km/h (1 Bft) S-SW 213 0 min 0,000 mm 0,0 UV-I 0 W/m 8,1 C 9,2 C 8,0 km/h (2 Bft) 94,74 %
17.09.2017 19:46 9,2 C 15,0 C 93 % 1013,6 hPa 0,0 l/m 5,3 km/h (1 Bft) SW 215 0 min 0,000 mm 0,0 UV-I 0 W/m 8,1 C 9,2 C 8,0 km/h (2 Bft) 94,92 %
17.09.2017 19:48 9,2 C 15,0 C 93 % 1013,6 hPa 0,0 l/m 6,3 km/h (2 Bft) S-SW 211 0 min 0,000 mm 0,0 UV-I 0 W/m 8,1 C 9,2 C 8,0 km/h (2 Bft) 93,62 %
17.09.2017 19:50 9,2 C 15,0 C 93 % 1013,6 hPa 0,0 l/m 5,0 km/h (1 Bft) S-SW 202 0 min 0,000 mm 0,0 UV-I 0 W/m 8,1 C 9,2 C 8,0 km/h (2 Bft) 100,00 %
17.09.2017 19:52 9,2 C 15,0 C 93 % 1013,5 hPa 0,0 l/m 5,8 km/h (2 Bft) S-SW 204 0 min 0,000 mm 0,0 UV-I 0 W/m 8,1 C 9,2 C 9,7 km/h (2 Bft) 93,75 %
17.09.2017 19:54 9,2 C 15,0 C 93 % 1013,5 hPa 0,0 l/m 5,4 km/h (1 Bft) SW 220 0 min 0,000 mm 0,0 UV-I 0 W/m 8,1 C 9,2 C 9,7 km/h (2 Bft) 98,00 %
17.09.2017 19:56 9,2 C 15,0 C 93 % 1013,5 hPa 0,0 l/m 7,0 km/h (2 Bft) S-SW 211 0 min 0,000 mm 0,0 UV-I 0 W/m 8,1 C 8,8 C 12,9 km/h (3 Bft) 95,74 %
17.09.2017 19:58 9,2 C 15,0 C 93 % 1013,5 hPa 0,0 l/m 6,5 km/h (2 Bft) S-SW 209 0 min 0,000 mm 0,0 UV-I 0 W/m 8,1 C 9,2 C 8,0 km/h (2 Bft) 97,44 %
17.09.2017 20:00 9,2 C 15,0 C 93 % 1013,4 hPa 0,0 l/m 4,9 km/h (1 Bft) S-SW 193 0 min 0,000 mm 0,0 UV-I 0 W/m 8,1 C 9,2 C 8,0 km/h (2 Bft) 98,21 %
17.09.2017 20:02 9,2 C 15,0 C 93 % 1013,4 hPa 0,0 l/m 5,5 km/h (1 Bft) S-SW 193 0 min 0,000 mm 0,0 UV-I 0 W/m 8,1 C 9,2 C 11,3 km/h (2 Bft) 97,37 %
17.09.2017 20:04 9,2 C 15,0 C 93 % 1013,5 hPa 0,0 l/m 4,4 km/h (1 Bft) S 180 0 min 0,000 mm 0,0 UV-I 0 W/m 8,1 C 9,2 C 8,0 km/h (2 Bft) 98,00 %
17.09.2017 20:06 9,2 C 15,0 C 93 % 1013,5 hPa 0,0 l/m 3,6 km/h (1 Bft) S 189 0 min 0,000 mm 0,0 UV-I 0 W/m 8,1 C 9,2 C 6,4 km/h (2 Bft) 100,00 %
17.09.2017 20:08 9,2 C 15,0 C 94 % 1013,5 hPa 0,0 l/m 4,1 km/h (1 Bft) S 172 0 min 0,000 mm 0,0 UV-I 0 W/m 8,3 C 9,2 C 9,7 km/h (2 Bft) 100,00 %
17.09.2017 20:10 9,2 C 15,0 C 94 % 1013,5 hPa 0,0 l/m 3,5 km/h (1 Bft) S-SO 165 0 min 0,000 mm 0,0 UV-I 0 W/m 8,3 C 9,2 C 6,4 km/h (2 Bft) 100,00 %
17.09.2017 20:12 9,3 C 15,0 C 94 % 1013,5 hPa 0,0 l/m 2,8 km/h (1 Bft) S-SW 196 0 min 0,000 mm 0,0 UV-I 0 W/m 8,4 C 9,3 C 6,4 km/h (2 Bft) 100,00 %
17.09.2017 20:14 9,3 C 15,0 C 94 % 1013,6 hPa 0,0 l/m 4,1 km/h (1 Bft) S 173 0 min 0,000 mm 0,0 UV-I 0 W/m 8,4 C 9,3 C 8,0 km/h (2 Bft) 100,00 %
17.09.2017 20:16 9,3 C 15,0 C 94 % 1013,6 hPa 0,0 l/m 2,6 km/h (1 Bft) S-SO 163 0 min 0,000 mm 0,0 UV-I 0 W/m 8,4 C 9,3 C 6,4 km/h (2 Bft) 98,11 %
17.09.2017 20:18 9,3 C 15,0 C 94 % 1013,5 hPa 0,0 l/m 1,8 km/h (1 Bft) S 187 0 min 0,000 mm 0,0 UV-I 0 W/m 8,4 C 9,3 C 8,0 km/h (2 Bft) 100,00 %
17.09.2017 20:20 9,3 C 15,0 C 94 % 1013,6 hPa 0,0 l/m 3,0 km/h (1 Bft) S 187 0 min 0,000 mm 0,0 UV-I 0 W/m 8,4 C 9,3 C 6,4 km/h (2 Bft) 100,00 %
17.09.2017 20:22 9,3 C 15,0 C 93 % 1013,6 hPa 0,0 l/m 3,8 km/h (1 Bft) S 187 0 min 0,000 mm 0,0 UV-I 0 W/m 8,2 C 9,3 C 4,8 km/h (1 Bft) 100,00 %
17.09.2017 20:24 9,2 C 15,0 C 93 % 1013,6 hPa 0,0 l/m 3,2 km/h (1 Bft) S 187 0 min 0,000 mm 0,0 UV-I 0 W/m 8,1 C 9,2 C 4,8 km/h (1 Bft) 97,87 %
17.09.2017 20:26 9,2 C 15,0 C 93 % 1013,6 hPa 0,0 l/m 3,8 km/h (1 Bft) S 187 0 min 0,000 mm 0,0 UV-I 0 W/m 8,1 C 9,2 C 4,8 km/h (1 Bft) 100,00 %
17.09.2017 20:28 9,2 C 15,0 C 93 % 1013,7 hPa 0,0 l/m 3,4 km/h (1 Bft) S 187 0 min 0,000 mm 0,0 UV-I 0 W/m 8,1 C 9,2 C 6,4 km/h (2 Bft) 100,00 %
17.09.2017 20:30 9,2 C 15,0 C 94 % 1013,7 hPa 0,0 l/m 2,2 km/h (1 Bft) S 187 0 min 0,000 mm 0,0 UV-I 0 W/m 8,3 C 9,2 C 4,8 km/h (1 Bft) 97,37 %
17.09.2017 20:32 9,1 C 15,0 C 94 % 1013,7 hPa 0,0 l/m 1,5 km/h (1 Bft) S 187 0 min 0,000 mm 0,0 UV-I 0 W/m 8,2 C 9,1 C 3,2 km/h (1 Bft) 98,00 %
17.09.2017 20:34 9,1 C 15,0 C 94 % 1013,7 hPa 0,0 l/m 1,3 km/h (1 Bft) S 187 0 min 0,000 mm 0,0 UV-I 0 W/m 8,2 C 9,1 C 3,2 km/h (1 Bft) 100,00 %
17.09.2017 20:36 9,1 C 15,0 C 94 % 1013,7 hPa 0,0 l/m 2,4 km/h (1 Bft) S 187 0 min 0,000 mm 0,0 UV-I 0 W/m 8,2 C 9,1 C 4,8 km/h (1 Bft) 100,00 %
17.09.2017 20:38 9,1 C 15,0 C 94 % 1013,7 hPa 0,0 l/m 2,8 km/h (1 Bft) S 187 0 min 0,000 mm 0,0 UV-I 0 W/m 8,2 C 9,1 C 4,8 km/h (1 Bft) 100,00 %
17.09.2017 20:40 9,1 C 15,0 C 94 % 1013,7 hPa 0,0 l/m 3,2 km/h (1 Bft) S 187 0 min 0,000 mm 0,0 UV-I 0 W/m 8,2 C 9,1 C 4,8 km/h (1 Bft) 98,00 %
17.09.2017 20:42 9,0 C 15,0 C 94 % 1013,6 hPa 0,0 l/m 3,0 km/h (1 Bft) S 187 0 min 0,000 mm 0,0 UV-I 0 W/m 8,1 C 9,0 C 6,4 km/h (2 Bft) 100,00 %
17.09.2017 20:44 9,0 C 15,0 C 94 % 1013,7 hPa 0,0 l/m 3,6 km/h (1 Bft) S 187 0 min 0,000 mm 0,0 UV-I 0 W/m 8,1 C 9,0 C 4,8 km/h (1 Bft) 100,00 %
17.09.2017 20:46 9,0 C 15,0 C 94 % 1013,7 hPa 0,0 l/m 3,8 km/h (1 Bft) SW 217 0 min 0,000 mm 0,0 UV-I 0 W/m 8,1 C 9,0 C 6,4 km/h (2 Bft) 95,74 %
17.09.2017 20:48 8,9 C 15,0 C 94 % 1013,7 hPa 0,0 l/m 4,4 km/h (1 Bft) SW 218 0 min 0,000 mm 0,0 UV-I 0 W/m 8,0 C 8,9 C 6,4 km/h (2 Bft) 100,00 %
17.09.2017 20:50 8,9 C 15,0 C 94 % 1013,7 hPa 0,0 l/m 3,4 km/h (1 Bft) SW 218 0 min 0,000 mm 0,0 UV-I 0 W/m 8,0 C 8,9 C 4,8 km/h (1 Bft) 98,00 %
17.09.2017 20:52 8,9 C 15,0 C 94 % 1013,7 hPa 0,0 l/m 4,8 km/h (1 Bft) SW 229 0 min 0,000 mm 0,0 UV-I 0 W/m 8,0 C 8,9 C 6,4 km/h (2 Bft) 97,87 %
17.09.2017 20:54 8,8 C 15,0 C 94 % 1013,8 hPa 0,0 l/m 3,8 km/h (1 Bft) SW 229 0 min 0,000 mm 0,0 UV-I 0 W/m 7,9 C 8,8 C 4,8 km/h (1 Bft) 100,00 %
17.09.2017 20:56 8,8 C 15,0 C 94 % 1013,9 hPa 0,0 l/m 3,2 km/h (1 Bft) SW 228 0 min 0,000 mm 0,0 UV-I 0 W/m 7,9 C 8,8 C 4,8 km/h (1 Bft) 100,00 %
17.09.2017 20:58 8,7 C 15,0 C 94 % 1013,9 hPa 0,0 l/m 3,7 km/h (1 Bft) SW 228 0 min 0,000 mm 0,0 UV-I 0 W/m 7,8 C 8,7 C 6,4 km/h (2 Bft) 98,00 %
17.09.2017 21:00 8,7 C 15,0 C 94 % 1013,9 hPa 0,0 l/m 2,5 km/h (1 Bft) SW 228 0 min 0,000 mm 0,0 UV-I 0 W/m 7,8 C 8,7 C 4,8 km/h (1 Bft) 100,00 %
17.09.2017 21:02 8,7 C 15,0 C 94 % 1013,9 hPa 0,0 l/m 3,2 km/h (1 Bft) S 178 0 min 0,000 mm 0,0 UV-I 0 W/m 7,8 C 8,7 C 4,8 km/h (1 Bft) 97,87 %
17.09.2017 21:04 8,7 C 15,0 C 94 % 1014,0 hPa 0,0 l/m 2,8 km/h (1 Bft) S 178 0 min 0,000 mm 0,0 UV-I 0 W/m 7,8 C 8,7 C 4,8 km/h (1 Bft) 97,87 %
17.09.2017 21:06 8,6 C 15,0 C 94 % 1013,9 hPa 0,0 l/m 3,3 km/h (1 Bft) S 178 0 min 0,000 mm 0,0 UV-I 0 W/m 7,7 C 8,6 C 4,8 km/h (1 Bft) 100,00 %
17.09.2017 21:08 8,6 C 15,0 C 94 % 1014,0 hPa 0,0 l/m 2,3 km/h (1 Bft) S 178 0 min 0,000 mm 0,0 UV-I 0 W/m 7,7 C 8,6 C 4,8 km/h (1 Bft) 100,00 %
17.09.2017 21:10 8,6 C 15,0 C 94 % 1014,0 hPa 0,0 l/m 3,9 km/h (1 Bft) S-SW 202 0 min 0,000 mm 0,0 UV-I 0 W/m 7,7 C 8,6 C 6,4 km/h (2 Bft) 100,00 %
17.09.2017 21:12 8,6 C 15,0 C 94 % 1013,9 hPa 0,0 l/m 3,3 km/h (1 Bft) S-SW 202 0 min 0,000 mm 0,0 UV-I 0 W/m 7,7 C 8,6 C 4,8 km/h (1 Bft) 100,00 %
17.09.2017 21:14 8,6 C 15,0 C 94 % 1013,9 hPa 0,0 l/m 3,9 km/h (1 Bft) S-SW 202 0 min 0,000 mm 0,0 UV-I 0 W/m 7,7 C 8,6 C 6,4 km/h (2 Bft) 100,00 %
17.09.2017 21:16 8,5 C 15,0 C 94 % 1013,9 hPa 0,0 l/m 2,7 km/h (1 Bft) S-SW 202 0 min 0,000 mm 0,0 UV-I 0 W/m 7,6 C 8,5 C 4,8 km/h (1 Bft) 98,11 %
17.09.2017 21:18 8,4 C 15,0 C 94 % 1014,0 hPa 0,0 l/m 2,3 km/h (1 Bft) S-SW 202 0 min 0,000 mm 0,0 UV-I 0 W/m 7,5 C 8,4 C 4,8 km/h (1 Bft) 97,56 %
17.09.2017 21:20 8,4 C 15,0 C 94 % 1013,9 hPa 0,0 l/m 0,9 km/h (0 Bft) S-SW 202 0 min 0,000 mm 0,0 UV-I 0 W/m 7,5 C 8,4 C 1,6 km/h (1 Bft) 97,87 %
17.09.2017 21:22 8,3 C 15,0 C 94 % 1013,9 hPa 0,0 l/m 1,2 km/h (1 Bft) S-SW 202 0 min 0,000 mm 0,0 UV-I 0 W/m 7,4 C 8,3 C 3,2 km/h (1 Bft) 97,73 %
17.09.2017 21:24 8,3 C 15,0 C 94 % 1013,9 hPa 0,0 l/m 1,2 km/h (1 Bft) S-SW 201 0 min 0,000 mm 0,0 UV-I 0 W/m 7,4 C 8,3 C 3,2 km/h (1 Bft) 100,00 %
17.09.2017 21:26 8,3 C 15,0 C 94 % 1013,9 hPa 0,0 l/m 2,5 km/h (1 Bft) S-SW 192 0 min 0,000 mm 0,0 UV-I 0 W/m 7,4 C 8,3 C 4,8 km/h (1 Bft) 98,00 %
17.09.2017 21:28 8,3 C 15,0 C 95 % 1013,9 hPa 0,0 l/m 2,7 km/h (1 Bft) S-SW 192 0 min 0,000 mm 0,0 UV-I 0 W/m 7,5 C 8,3 C 4,8 km/h (1 Bft) 100,00 %
17.09.2017 21:30 8,4 C 15,0 C 95 % 1013,9 hPa 0,0 l/m 2,5 km/h (1 Bft) S-SW 192 0 min 0,000 mm 0,0 UV-I 0 W/m 7,6 C 8,4 C 4,8 km/h (1 Bft) 100,00 %
17.09.2017 21:32 8,4 C 15,0 C 95 % 1014,0 hPa 0,0 l/m 3,5 km/h (1 Bft) S 169 0 min 0,000 mm 0,0 UV-I 0 W/m 7,6 C 8,4 C 6,4 km/h (2 Bft) 97,87 %
17.09.2017 21:34 8,4 C 15,0 C 95 % 1014,0 hPa 0,0 l/m 2,7 km/h (1 Bft) S 180 0 min 0,000 mm 0,0 UV-I 0 W/m 7,6 C 8,4 C 6,4 km/h (2 Bft) 98,00 %
17.09.2017 21:36 8,4 C 15,0 C 95 % 1014,0 hPa 0,0 l/m 1,9 km/h (1 Bft) S 180 0 min 0,000 mm 0,0 UV-I 0 W/m 7,6 C 8,4 C 4,8 km/h (1 Bft) 98,00 %
17.09.2017 21:38 8,4 C 15,0 C 95 % 1014,0 hPa 0,0 l/m 2,2 km/h (1 Bft) S 180 0 min 0,000 mm 0,0 UV-I 0 W/m 7,6 C 8,4 C 4,8 km/h (1 Bft) 97,37 %
17.09.2017 21:40 8,4 C 15,0 C 95 % 1014,0 hPa 0,0 l/m 3,1 km/h (1 Bft) S 180 0 min 0,000 mm 0,0 UV-I 0 W/m 7,6 C 8,4 C 6,4 km/h (2 Bft) 98,11 %
17.09.2017 21:43 8,4 C 15,0 C 95 % 1013,9 hPa 0,0 l/m 3,5 km/h (1 Bft) S 179 0 min 0,000 mm 0,0 UV-I 0 W/m 7,6 C 8,4 C 6,4 km/h (2 Bft) 97,06 %
17.09.2017 21:44 8,4 C 15,0 C 95 % 1013,9 hPa 0,0 l/m 4,2 km/h (1 Bft) S 179 0 min 0,000 mm 0,0 UV-I 0 W/m 7,6 C 8,4 C 4,8 km/h (1 Bft) 100,00 %
17.09.2017 21:46 8,4 C 15,0 C 95 % 1014,0 hPa 0,0 l/m 4,2 km/h (1 Bft) S 180 0 min 0,000 mm 0,0 UV-I 0 W/m 7,6 C 8,4 C 6,4 km/h (2 Bft) 98,18 %
17.09.2017 21:48 8,4 C 15,0 C 95 % 1013,9 hPa 0,0 l/m 2,9 km/h (1 Bft) S 182 0 min 0,000 mm 0,0 UV-I 0 W/m 7,6 C 8,4 C 4,8 km/h (1 Bft) 96,00 %
17.09.2017 21:50 8,4 C 15,0 C 95 % 1013,9 hPa 0,0 l/m 3,2 km/h (1 Bft) S-SW 192 0 min 0,000 mm 0,0 UV-I 0 W/m 7,6 C 8,4 C 6,4 km/h (2 Bft) 96,00 %
17.09.2017 21:52 8,4 C 15,0 C 95 % 1013,9 hPa 0,0 l/m 3,7 km/h (1 Bft) S 176 0 min 0,000 mm 0,0 UV-I 0 W/m 7,6 C 8,4 C 6,4 km/h (2 Bft) 100,00 %
17.09.2017 21:54 8,4 C 15,0 C 95 % 1013,8 hPa 0,0 l/m 4,7 km/h (1 Bft) S-SW 197 0 min 0,000 mm 0,0 UV-I 0 W/m 7,6 C 8,4 C 8,0 km/h (2 Bft) 94,34 %
17.09.2017 21:56 8,4 C 15,0 C 95 % 1013,9 hPa 0,0 l/m 4,7 km/h (1 Bft) S-SW 202 0 min 0,000 mm 0,0 UV-I 0 W/m 7,6 C 8,4 C 6,4 km/h (2 Bft) 97,37 %
17.09.2017 21:58 8,4 C 15,0 C 95 % 1013,9 hPa 0,0 l/m 3,9 km/h (1 Bft) S-SW 205 0 min 0,000 mm 0,0 UV-I 0 W/m 7,6 C 8,4 C 6,4 km/h (2 Bft) 96,55 %
17.09.2017 22:00 8,3 C 15,0 C 95 % 1014,0 hPa 0,0 l/m 4,9 km/h (1 Bft) S-SW 205 0 min 0,000 mm 0,0 UV-I 0 W/m 7,5 C 8,3 C 6,4 km/h (2 Bft) 97,30 %
17.09.2017 22:02 8,3 C 15,0 C 95 % 1014,0 hPa 0,0 l/m 3,3 km/h (1 Bft) S-SW 205 0 min 0,000 mm 0,0 UV-I 0 W/m 7,5 C 8,3 C 6,4 km/h (2 Bft) 100,00 %
17.09.2017 22:04 8,3 C 15,0 C 95 % 1014,0 hPa 0,0 l/m 4,4 km/h (1 Bft) S 181 0 min 0,000 mm 0,0 UV-I 0 W/m 7,5 C 8,3 C 6,4 km/h (2 Bft) 95,74 %
17.09.2017 22:06 8,3 C 15,0 C 95 % 1014,0 hPa 0,0 l/m 3,6 km/h (1 Bft) S 180 0 min 0,000 mm 0,0 UV-I 0 W/m 7,5 C 8,3 C 6,4 km/h (2 Bft) 97,37 %
17.09.2017 22:08 8,2 C 15,0 C 95 % 1014,0 hPa 0,0 l/m 3,8 km/h (1 Bft) S 182 0 min 0,000 mm 0,0 UV-I 0 W/m 7,4 C 8,2 C 6,4 km/h (2 Bft) 97,73 %
17.09.2017 22:10 8,2 C 15,0 C 95 % 1014,0 hPa 0,0 l/m 3,5 km/h (1 Bft) S 184 0 min 0,000 mm 0,0 UV-I 0 W/m 7,4 C 8,2 C 6,4 km/h (2 Bft) 100,00 %
17.09.2017 22:12 8,2 C 15,0 C 95 % 1014,0 hPa 0,0 l/m 3,1 km/h (1 Bft) S 184 0 min 0,000 mm 0,0 UV-I 0 W/m 7,4 C 8,2 C 6,4 km/h (2 Bft) 98,00 %
17.09.2017 22:14 8,2 C 15,0 C 95 % 1014,1 hPa 0,0 l/m 3,7 km/h (1 Bft) S 184 0 min 0,000 mm 0,0 UV-I 0 W/m 7,4 C 8,2 C 6,4 km/h (2 Bft) 97,56 %
17.09.2017 22:16 8,2 C 15,0 C 95 % 1014,1 hPa 0,0 l/m 3,0 km/h (1 Bft) S 184 0 min 0,000 mm 0,0 UV-I 0 W/m 7,4 C 8,2 C 6,4 km/h (2 Bft) 97,87 %
17.09.2017 22:18 8,2 C 15,0 C 95 % 1014,1 hPa 0,0 l/m 2,2 km/h (1 Bft) S 184 0 min 0,000 mm 0,0 UV-I 0 W/m 7,4 C 8,2 C 4,8 km/h (1 Bft) 98,00 %
17.09.2017 22:20 8,2 C 15,0 C 95 % 1014,1 hPa 0,0 l/m 3,3 km/h (1 Bft) S-SO 168 0 min 0,000 mm 0,0 UV-I 0 W/m 7,4 C 8,2 C 8,0 km/h (2 Bft) 98,00 %
17.09.2017 22:22 8,2 C 15,0 C 95 % 1014,1 hPa 0,0 l/m 3,5 km/h (1 Bft) S-SO 168 0 min 0,000 mm 0,0 UV-I 0 W/m 7,4 C 8,2 C 6,4 km/h (2 Bft) 97,37 %
17.09.2017 22:24 8,2 C 15,0 C 95 % 1014,1 hPa 0,0 l/m 1,9 km/h (1 Bft) S-SO 168 0 min 0,000 mm 0,0 UV-I 0 W/m 7,4 C 8,2 C 3,2 km/h (1 Bft) 98,11 %
17.09.2017 22:26 8,2 C 15,0 C 95 % 1014,1 hPa 0,0 l/m 2,7 km/h (1 Bft) S-SO 168 0 min 0,000 mm 0,0 UV-I 0 W/m 7,4 C 8,2 C 6,4 km/h (2 Bft) 98,00 %
17.09.2017 22:28 8,1 C 15,0 C 95 % 1014,1 hPa 0,0 l/m 0,9 km/h (0 Bft) S-SO 168 0 min 0,000 mm 0,0 UV-I 0 W/m 7,3 C 8,1 C 3,2 km/h (1 Bft) 97,56 %
17.09.2017 22:30 8,1 C 15,0 C 95 % 1014,1 hPa 0,0 l/m 0,6 km/h (0 Bft) S-SO 168 0 min 0,000 mm 0,0 UV-I 0 W/m 7,3 C 8,1 C 3,2 km/h (1 Bft) 97,87 %
17.09.2017 22:32 8,1 C 15,0 C 95 % 1014,1 hPa 0,0 l/m 1,9 km/h (1 Bft) S-SO 168 0 min 0,000 mm 0,0 UV-I 0 W/m 7,3 C 8,1 C 3,2 km/h (1 Bft) 95,83 %
17.09.2017 22:34 8,1 C 15,0 C 95 % 1014,2 hPa 0,0 l/m 1,8 km/h (1 Bft) S-SO 168 0 min 0,000 mm 0,0 UV-I 0 W/m 7,3 C 8,1 C 3,2 km/h (1 Bft) 95,74 %
17.09.2017 22:36 8,0 C 15,0 C 95 % 1014,1 hPa 0,0 l/m 2,9 km/h (1 Bft) S 178 0 min 0,000 mm 0,0 UV-I 0 W/m 7,2 C 8,0 C 6,4 km/h (2 Bft) 97,56 %
17.09.2017 22:38 7,9 C 15,0 C 95 % 1014,2 hPa 0,0 l/m 2,1 km/h (1 Bft) S 178 0 min 0,000 mm 0,0 UV-I 0 W/m 7,1 C 7,9 C 4,8 km/h (1 Bft) 95,74 %
17.09.2017 22:40 7,9 C 15,0 C 95 % 1014,2 hPa 0,0 l/m 1,6 km/h (1 Bft) S 178 0 min 0,000 mm 0,0 UV-I 0 W/m 7,1 C 7,9 C 3,2 km/h (1 Bft) 96,00 %
17.09.2017 22:43 7,9 C 15,0 C 95 % 1014,2 hPa 0,0 l/m 2,0 km/h (1 Bft) S 178 0 min 0,000 mm 0,0 UV-I 0 W/m 7,1 C 7,9 C 4,8 km/h (1 Bft) 97,26 %
17.09.2017 22:44 7,9 C 15,0 C 95 % 1014,2 hPa 0,0 l/m 0,0 km/h (0 Bft) S 178 0 min 0,000 mm 0,0 UV-I 0 W/m 7,1 C 7,9 C 0,0 km/h (0 Bft) 100,00 %
17.09.2017 22:46 7,8 C 15,0 C 95 % 1014,2 hPa 0,0 l/m 0,0 km/h (0 Bft) S 178 0 min 0,000 mm 0,0 UV-I 0 W/m 7,0 C 7,8 C 0,0 km/h (0 Bft) 97,87 %
17.09.2017 22:48 7,8 C 15,0 C 95 % 1014,2 hPa 0,0 l/m 0,0 km/h (0 Bft) S 178 0 min 0,000 mm 0,0 UV-I 0 W/m 7,0 C 7,8 C 0,0 km/h (0 Bft) 97,87 %
17.09.2017 22:50 7,7 C 15,0 C 95 % 1014,2 hPa 0,0 l/m 0,2 km/h (0 Bft) S 178 0 min 0,000 mm 0,0 UV-I 0 W/m 7,0 C 7,7 C 1,6 km/h (1 Bft) 97,87 %
17.09.2017 22:52 7,7 C 15,0 C 95 % 1014,2 hPa 0,0 l/m 0,0 km/h (0 Bft) S 178 0 min 0,000 mm 0,0 UV-I 0 W/m 7,0 C 7,7 C 0,0 km/h (0 Bft) 94,00 %
17.09.2017 22:54 7,6 C 15,0 C 95 % 1014,2 hPa 0,0 l/m 0,4 km/h (0 Bft) S 178 0 min 0,000 mm 0,0 UV-I 0 W/m 6,9 C 7,6 C 1,6 km/h (1 Bft) 100,00 %
17.09.2017 22:56 7,6 C 14,4 C 95 % 1014,2 hPa 0,0 l/m 0,4 km/h (0 Bft) S 178 0 min 0,000 mm 0,0 UV-I 0 W/m 6,9 C 7,6 C 1,6 km/h (1 Bft) 96,43 %
17.09.2017 22:58 7,4 C 14,4 C 95 % 1014,3 hPa 0,0 l/m 0,5 km/h (0 Bft) S 178 0 min 0,000 mm 0,0 UV-I 0 W/m 6,7 C 7,4 C 3,2 km/h (1 Bft) 95,74 %
17.09.2017 23:00 7,4 C 15,0 C 95 % 1014,3 hPa 0,0 l/m 1,7 km/h (1 Bft) S 178 0 min 0,000 mm 0,0 UV-I 0 W/m 6,7 C 7,4 C 3,2 km/h (1 Bft) 97,37 %
17.09.2017 23:02 7,3 C 14,4 C 95 % 1014,2 hPa 0,0 l/m 1,7 km/h (1 Bft) S 178 0 min 0,000 mm 0,0 UV-I 0 W/m 6,6 C 7,3 C 3,2 km/h (1 Bft) 98,00 %
17.09.2017 23:04 7,3 C 14,4 C 95 % 1014,2 hPa 0,0 l/m 0,5 km/h (0 Bft) S 178 0 min 0,000 mm 0,0 UV-I 0 W/m 6,6 C 7,3 C 1,6 km/h (1 Bft) 97,87 %
17.09.2017 23:06 7,3 C 14,4 C 95 % 1014,2 hPa 0,0 l/m 0,3 km/h (0 Bft) S 178 0 min 0,000 mm 0,0 UV-I 0 W/m 6,6 C 7,3 C 1,6 km/h (1 Bft) 98,00 %
17.09.2017 23:08 7,3 C 14,4 C 95 % 1014,2 hPa 0,0 l/m 0,3 km/h (0 Bft) S 178 0 min 0,000 mm 0,0 UV-I 0 W/m 6,6 C 7,3 C 1,6 km/h (1 Bft) 97,44 %
17.09.2017 23:10 7,3 C 14,4 C 95 % 1014,2 hPa 0,0 l/m 0,0 km/h (0 Bft) S 178 0 min 0,000 mm 0,0 UV-I 0 W/m 6,6 C 7,3 C 0,0 km/h (0 Bft) 100,00 %
17.09.2017 23:12 7,2 C 14,4 C 95 % 1014,2 hPa 0,0 l/m 0,0 km/h (0 Bft) S 178 0 min 0,000 mm 0,0 UV-I 0 W/m 6,5 C 7,2 C 1,6 km/h (1 Bft) 100,00 %
17.09.2017 23:14 7,2 C 14,4 C 95 % 1014,2 hPa 0,0 l/m 0,1 km/h (0 Bft) S 178 0 min 0,000 mm 0,0 UV-I 0 W/m 6,5 C 7,2 C 1,6 km/h (1 Bft) 100,00 %
17.09.2017 23:16 7,2 C 14,4 C 95 % 1014,2 hPa 0,0 l/m 0,0 km/h (0 Bft) S 178 0 min 0,000 mm 0,0 UV-I 0 W/m 6,5 C 7,2 C 0,0 km/h (0 Bft) 98,00 %
17.09.2017 23:18 7,2 C 14,4 C 95 % 1014,2 hPa 0,0 l/m 0,0 km/h (0 Bft) S 178 0 min 0,000 mm 0,0 UV-I 0 W/m 6,5 C 7,2 C 0,0 km/h (0 Bft) 100,00 %
17.09.2017 23:20 7,2 C 14,4 C 95 % 1014,2 hPa 0,0 l/m 0,0 km/h (0 Bft) S 178 0 min 0,000 mm 0,0 UV-I 0 W/m 6,5 C 7,2 C 1,6 km/h (1 Bft) 100,00 %
17.09.2017 23:22 7,1 C 14,4 C 95 % 1014,2 hPa 0,0 l/m 1,5 km/h (1 Bft) S 178 0 min 0,000 mm 0,0 UV-I 0 W/m 6,4 C 7,1 C 3,2 km/h (1 Bft) 98,11 %
17.09.2017 23:24 7,1 C 14,4 C 95 % 1014,2 hPa 0,0 l/m 0,4 km/h (0 Bft) S 178 0 min 0,000 mm 0,0 UV-I 0 W/m 6,4 C 7,1 C 1,6 km/h (1 Bft) 100,00 %
17.09.2017 23:26 7,0 C 14,4 C 95 % 1014,2 hPa 0,0 l/m 0,5 km/h (0 Bft) S 178 0 min 0,000 mm 0,0 UV-I 0 W/m 6,3 C 7,0 C 1,6 km/h (1 Bft) 100,00 %
17.09.2017 23:28 6,9 C 14,4 C 95 % 1014,2 hPa 0,0 l/m 0,3 km/h (0 Bft) S 178 0 min 0,000 mm 0,0 UV-I 0 W/m 6,2 C 6,9 C 1,6 km/h (1 Bft) 100,00 %
17.09.2017 23:30 6,9 C 14,4 C 95 % 1014,3 hPa 0,0 l/m 0,0 km/h (0 Bft) S 178 0 min 0,000 mm 0,0 UV-I 0 W/m 6,2 C 6,9 C 0,0 km/h (0 Bft) 98,00 %
17.09.2017 23:32 6,9 C 14,4 C 95 % 1014,3 hPa 0,0 l/m 0,0 km/h (0 Bft) S 178 0 min 0,000 mm 0,0 UV-I 0 W/m 6,2 C 6,9 C 0,0 km/h (0 Bft) 100,00 %
17.09.2017 23:34 6,9 C 14,4 C 95 % 1014,2 hPa 0,0 l/m 0,0 km/h (0 Bft) S 178 0 min 0,000 mm 0,0 UV-I 0 W/m 6,2 C 6,9 C 1,6 km/h (1 Bft) 97,87 %
17.09.2017 23:36 6,8 C 14,4 C 95 % 1014,3 hPa 0,0 l/m 1,8 km/h (1 Bft) S 178 0 min 0,000 mm 0,0 UV-I 0 W/m 6,1 C 6,8 C 3,2 km/h (1 Bft) 100,00 %
17.09.2017 23:38 6,8 C 14,4 C 95 % 1014,3 hPa 0,0 l/m 2,7 km/h (1 Bft) S 178 0 min 0,000 mm 0,0 UV-I 0 W/m 6,1 C 6,8 C 3,2 km/h (1 Bft) 96,43 %
17.09.2017 23:40 6,9 C 14,4 C 96 % 1014,4 hPa 0,0 l/m 2,9 km/h (1 Bft) S 178 0 min 0,000 mm 0,0 UV-I 0 W/m 6,3 C 6,9 C 4,8 km/h (1 Bft) 97,87 %
17.09.2017 23:42 6,9 C 14,4 C 96 % 1014,4 hPa 0,0 l/m 2,2 km/h (1 Bft) S 178 0 min 0,000 mm 0,0 UV-I 0 W/m 6,3 C 6,9 C 3,2 km/h (1 Bft) 97,37 %
17.09.2017 23:44 6,9 C 14,4 C 96 % 1014,4 hPa 0,0 l/m 1,8 km/h (1 Bft) S 178 0 min 0,000 mm 0,0 UV-I 0 W/m 6,3 C 6,9 C 3,2 km/h (1 Bft) 98,18 %
17.09.2017 23:46 6,9 C 14,4 C 95 % 1014,4 hPa 0,0 l/m 1,8 km/h (1 Bft) S 178 0 min 0,000 mm 0,0 UV-I 0 W/m 6,2 C 6,9 C 3,2 km/h (1 Bft) 97,37 %
17.09.2017 23:48 6,9 C 14,4 C 95 % 1014,4 hPa 0,0 l/m 1,2 km/h (1 Bft) S 178 0 min 0,000 mm 0,0 UV-I 0 W/m 6,2 C 6,9 C 1,6 km/h (1 Bft) 98,11 %
17.09.2017 23:50 6,8 C 14,4 C 95 % 1014,4 hPa 0,0 l/m 0,2 km/h (0 Bft) S 178 0 min 0,000 mm 0,0 UV-I 0 W/m 6,1 C 6,8 C 1,6 km/h (1 Bft) 97,44 %
17.09.2017 23:52 6,7 C 14,4 C 95 % 1014,3 hPa 0,0 l/m 0,0 km/h (0 Bft) S 178 0 min 0,000 mm 0,0 UV-I 0 W/m 6,0 C 6,7 C 0,0 km/h (0 Bft) 97,37 %
17.09.2017 23:54 6,7 C 14,4 C 95 % 1014,3 hPa 0,0 l/m 0,8 km/h (0 Bft) S 178 0 min 0,000 mm 0,0 UV-I 0 W/m 6,0 C 6,7 C 1,6 km/h (1 Bft) 95,31 %
17.09.2017 23:56 6,6 C 14,4 C 95 % 1014,4 hPa 0,0 l/m 2,0 km/h (1 Bft) S 178 0 min 0,000 mm 0,0 UV-I 0 W/m 5,9 C 6,6 C 3,2 km/h (1 Bft) 97,56 %
17.09.2017 23:58 6,4 C 14,4 C 95 % 1014,4 hPa 0,0 l/m 0,8 km/h (0 Bft) S 178 0 min 0,000 mm 0,0 UV-I 0 W/m 5,7 C 6,4 C 3,2 km/h (1 Bft) 95,74 %
_ Min-Zeit 23:58 22:56 17:26 16:50 - 00:30 - - - - - - 23:58 23:58 00:30 11:40
Minimum _ 6,4 C 14,4 C 82 % 1011,8 hPa - 0,0 km/h (0 Bft) - - - - - - 5,7 C 6,4 C 0,0 km/h (0 Bft) 89,47 %
_ Max-Zeit 16:40 00:00 09:56 23:40 18:56 17:28 - - 14:22 15:02 14:22 16:18 16:18 16:30 14:30 00:26
Maximum _ 13,4 C 15,6 C 97 % 1014,4 hPa 0,8 l/m 16,3 km/h
SW (3 Bft)
- - 2 min 0,153 mm 1,7 UV-I 440 W/m 11,1 C 13,2 C 22,5 km/h
SW (4 Bft)
100,00 %
Durchschnitt _ 10,3 C 15,1 C 93 % 1012,7 hPa #6,6 l/m 4,7 km/h (1 Bft) SW - #1:04 h #0,864 mm 0,9 UV-I 121 W/m 9,2 C 9,7 C 8,0 km/h (2 Bft) 97,94 %